[[{"header":{"parameterUnit":"m.s-1","parameterCategory":1,"la1":30.6,"la2":29.2853,"lo1":-89.7004,"lo2":-87.6739,"dx":0.0162,"dy":0.0183,"nx":112,"ny":82,"refTime":"2023-01-04T18:00:00:Z","depth":0,"parameterNumber":2,"parameterNumberName":"U-component_of_WINDS"},"data":[0.0,0.0,0.0,0.0,0.0,0.0,0.0,0.0,0.0,0.0,0.0,0.0,0.0,0.0,0.0,0.0,0.0,0.0,0.0,0.0,0.0,0.0,0.0,0.0,0.0,0.0,0.0,0.0,0.0,0.0,0.0,0.0,0.0,0.0,0.0,0.0,0.0,0.0,0.0,0.0,0.0,0.0,0.0,0.0,0.0,0.0,0.0,0.0,0.0,0.0,0.0,0.0,0.0,0.0,0.0,0.0,0.0,0.0,0.0,0.0,0.0,0.0,0.0,0.0,0.0,0.0,0.0,0.0,0.0,0.0,0.0,0.0,0.0,0.0,0.0,0.0,0.0,0.0,0.0,0.0,0.0,0.0,0.0,0.0,0.0,0.0,0.0,0.0,0.0,0.0,2.109,2.2097,2.2733,2.2848,2.2246,2.1958,2.1472,2.0721,0.0,0.0,0.0,0.0,0.0,0.0,0.0,0.0,0.0,0.0,0.0,0.0,0.0,0.0,0.0,0.0,0.0,0.0,0.0,0.0,0.0,0.0,0.0,0.0,0.0,0.0,0.0,0.0,0.0,0.0,0.0,0.0,0.0,0.0,0.0,0.0,0.0,0.0,0.0,0.0,0.0,0.0,0.0,0.0,0.0,0.0,0.0,0.0,0.0,0.0,0.0,0.0,0.0,0.0,0.0,0.0,0.0,0.0,0.0,0.0,0.0,0.0,0.0,0.0,0.0,0.0,0.0,0.0,0.0,0.0,0.0,0.0,0.0,0.0,0.0,0.0,0.0,0.0,0.0,0.0,0.0,0.0,0.0,0.0,0.0,0.0,0.0,0.0,0.0,0.0,0.0,0.0,0.0,0.0,0.0,0.0,0.0,0.0,0.0,0.0,0.0,0.0,0.0,0.0,2.2226,2.3828,2.3468,2.331,2.3871,2.2613,2.1725,2.1522,0.0,0.0,0.0,0.0,0.0,0.0,0.0,0.0,0.0,0.0,0.0,0.0,0.0,0.0,0.0,0.0,0.0,0.0,0.0,0.0,0.0,0.0,0.0,0.0,0.0,0.0,0.0,0.0,0.0,0.0,0.0,0.0,0.0,0.0,0.0,0.0,0.0,0.0,0.0,0.0,0.0,0.0,0.0,0.0,0.0,0.0,0.0,0.0,0.0,0.0,0.0,0.0,0.0,0.0,0.0,0.0,0.0,0.0,0.0,0.0,0.0,0.0,0.0,0.0,0.0,0.0,0.0,0.0,0.0,0.0,0.0,0.0,0.0,0.0,0.0,0.0,0.0,0.0,0.0,0.0,0.0,0.0,0.0,0.0,0.0,0.0,0.0,0.0,0.0,0.0,0.0,0.0,0.0,0.0,0.0,0.0,0.0,0.0,0.0,0.0,0.0,0.0,0.0,2.1894,2.3515,2.4316,2.4422,2.4417,2.4312,2.3154,2.2236,2.1736,1.9308,0.0,0.0,0.0,0.0,0.0,0.0,0.0,0.0,0.0,0.0,0.0,0.0,0.0,0.0,0.0,0.0,0.0,0.0,0.0,0.0,0.0,0.0,0.0,0.0,0.0,0.0,0.0,0.0,0.0,0.0,0.0,0.0,0.0,0.0,0.0,0.0,0.0,0.0,0.0,0.0,0.0,0.0,0.0,0.0,0.0,0.0,0.0,0.0,0.0,0.0,0.0,0.0,0.0,0.0,0.0,0.0,0.0,0.0,0.0,0.0,0.0,0.0,0.0,0.0,0.0,0.0,0.0,0.0,0.0,0.0,0.0,0.0,0.0,0.0,0.0,0.0,0.0,0.0,0.0,0.0,0.0,0.0,0.0,0.0,0.0,0.0,0.0,0.0,0.0,0.0,0.0,0.0,0.0,0.0,0.0,0.0,0.0,0.0,0.0,0.0,0.0,0.0,2.3457,2.4472,2.4664,2.5236,2.5324,2.4667,2.3811,2.2921,2.2066,1.9618,0.0,0.0,0.0,0.0,0.0,0.0,0.0,0.0,0.0,0.0,0.0,0.0,0.0,0.0,0.0,0.0,0.0,0.0,0.0,0.0,0.0,0.0,0.0,0.0,0.0,0.0,0.0,0.0,0.0,0.0,0.0,0.0,0.0,0.0,0.0,0.0,0.0,0.0,0.0,0.0,0.0,0.0,0.0,0.0,0.0,0.0,0.0,0.0,0.0,0.0,0.0,0.0,0.0,0.0,0.0,0.0,0.0,0.0,0.0,0.0,0.0,0.0,0.0,0.0,0.0,0.0,0.0,0.0,0.0,0.0,0.0,0.0,0.0,0.0,0.0,0.0,0.0,0.0,0.0,0.0,0.0,0.0,0.0,0.0,0.0,0.0,0.0,0.0,0.0,0.0,0.0,0.0,0.0,0.0,0.0,0.0,0.0,0.0,0.0,0.0,0.0,0.0,2.381,2.4695,2.5447,2.557,2.5585,2.551,2.4708,2.3834,2.2959,2.0512,0.0,0.0,0.0,0.0,0.0,0.0,0.0,0.0,0.0,0.0,0.0,0.0,0.0,0.0,0.0,0.0,0.0,0.0,0.0,0.0,0.0,0.0,0.0,0.0,0.0,0.0,0.0,0.0,0.0,0.0,0.0,0.0,0.0,0.0,0.0,0.0,0.0,0.0,0.0,0.0,0.0,0.0,0.0,0.0,0.0,0.0,0.0,0.0,0.0,0.0,0.0,0.0,0.0,0.0,0.0,0.0,0.0,0.0,0.0,0.0,0.0,0.0,0.0,0.0,0.0,0.0,0.0,0.0,0.0,0.0,0.0,0.0,0.0,0.0,0.0,0.0,0.0,0.0,0.0,0.0,0.0,0.0,0.0,0.0,0.0,0.0,0.0,0.0,0.0,0.0,0.0,0.0,0.0,0.0,0.0,0.0,0.0,0.0,0.0,0.0,0.0,0.0,2.4339,2.532,2.5573,2.5593,2.56,2.5607,2.4799,2.3925,2.3057,0.0,0.0,0.0,0.0,0.0,0.0,0.0,0.0,0.0,0.0,0.0,0.0,0.0,0.0,0.0,0.0,0.0,0.0,0.0,0.0,0.0,0.0,0.0,0.0,0.0,0.0,0.0,0.0,0.0,0.0,0.0,0.0,0.0,0.0,0.0,0.0,0.0,0.0,0.0,0.0,0.0,0.0,0.0,0.0,0.0,0.0,0.0,0.0,0.0,0.0,0.0,0.0,0.0,0.0,0.0,0.0,0.0,0.0,0.0,0.0,0.0,0.0,0.0,0.0,0.0,0.0,0.0,0.0,0.0,0.0,0.0,0.0,0.0,0.0,0.0,0.0,0.0,0.0,0.0,0.0,0.0,0.0,0.0,0.0,0.0,0.0,0.0,0.0,0.0,0.0,0.0,0.0,0.0,0.0,0.0,0.0,0.0,0.0,0.0,0.0,0.0,0.0,2.2997,2.46,2.5655,2.5593,2.5601,2.5595,2.5607,2.5057,2.4339,2.3464,0.0,0.0,0.0,0.0,0.0,0.0,0.0,0.0,0.0,0.0,0.0,0.0,0.0,0.0,0.0,0.0,0.0,0.0,0.0,0.0,0.0,0.0,0.0,0.0,0.0,0.0,0.0,0.0,0.0,0.0,0.0,0.0,0.0,0.0,0.0,0.0,0.0,0.0,0.0,0.0,0.0,0.0,0.0,0.0,0.0,0.0,0.0,0.0,0.0,0.0,0.0,0.0,0.0,0.0,0.0,0.0,0.0,0.0,0.0,0.0,0.0,0.0,0.0,0.0,0.0,0.0,0.0,0.0,0.0,0.0,0.0,0.0,0.0,0.0,0.0,0.0,0.0,0.0,0.0,0.0,0.0,0.0,0.0,0.0,0.0,0.0,0.0,0.0,0.0,0.0,0.0,0.0,0.0,0.0,0.0,0.0,0.0,0.0,0.0,0.0,0.0,0.0,2.3003,2.4568,2.5595,2.5607,2.559,2.5595,2.5601,2.5601,2.5232,0.0,0.0,0.0,0.0,0.0,0.0,0.0,0.0,0.0,0.0,0.0,0.0,0.0,0.0,0.0,0.0,0.0,0.0,0.0,0.0,0.0,0.0,0.0,0.0,0.0,0.0,0.0,0.0,0.0,0.0,0.0,0.0,0.0,0.0,0.0,0.0,0.0,0.0,0.0,0.0,0.0,0.0,0.0,0.0,0.0,0.0,0.0,0.0,0.0,0.0,0.0,0.0,0.0,0.0,0.0,0.0,0.0,0.0,0.0,0.0,0.0,0.0,0.0,0.0,0.0,0.0,0.0,0.0,0.0,0.0,0.0,0.0,0.0,0.0,0.0,0.0,0.0,0.0,0.0,0.0,0.0,0.0,0.0,0.0,0.0,0.0,0.0,0.0,0.0,0.0,0.0,0.0,0.0,0.0,0.0,0.0,0.0,0.0,0.0,0.0,0.0,0.0,0.0,2.3903,2.4938,2.5605,2.5595,2.5605,2.5595,2.5601,2.5601,2.5232,2.4352,0.0,0.0,0.0,0.0,0.0,0.0,0.0,0.0,0.0,0.0,0.0,0.0,0.0,0.0,0.0,0.0,0.0,0.0,0.0,0.0,0.0,0.0,0.0,0.0,0.0,0.0,0.0,0.0,0.0,0.0,0.0,0.0,0.0,0.0,0.0,0.0,0.0,0.0,0.0,0.0,0.0,0.0,0.0,0.0,0.0,0.0,0.0,0.0,0.0,0.0,0.0,0.0,0.0,0.0,0.0,0.0,0.0,0.0,0.0,0.0,0.0,0.0,0.0,0.0,0.0,0.0,0.0,0.0,0.0,0.0,0.0,0.0,0.0,0.0,0.0,0.0,0.0,0.0,0.0,0.0,0.0,0.0,0.0,0.0,0.0,0.0,0.0,0.0,0.0,0.0,0.0,0.0,0.0,0.0,0.0,0.0,0.0,0.0,0.0,0.0,0.0,0.0,2.4237,2.5099,2.559,2.559,2.559,2.5604,2.5601,2.5601,2.5387,2.4838,0.0,0.0,0.0,0.0,0.0,0.0,0.0,0.0,0.0,0.0,0.0,0.0,0.0,0.0,0.0,0.0,0.0,0.0,0.0,0.0,0.0,0.0,0.0,0.0,0.0,0.0,0.0,0.0,0.0,0.0,0.0,0.0,0.0,0.0,0.0,0.0,0.0,0.0,0.0,0.0,0.0,0.0,0.0,0.0,0.0,0.0,0.0,0.0,0.0,0.0,0.0,0.0,0.0,0.0,0.0,0.0,0.0,0.0,0.0,0.0,0.0,0.0,0.0,0.0,0.0,0.0,0.0,0.0,0.0,0.0,0.0,0.0,0.0,0.0,0.0,0.0,0.0,0.0,0.0,0.0,0.0,0.0,0.0,0.0,0.0,0.0,0.0,0.0,0.0,0.0,0.0,0.0,0.0,0.0,0.0,0.0,0.0,0.0,0.0,0.0,0.0,0.0,2.4307,2.5185,2.5718,2.5718,2.5795,2.5834,2.5834,2.5757,2.5718,2.5718,0.0,0.0,0.0,0.0,0.0,0.0,0.0,0.0,0.0,0.0,0.0,0.0,0.0,0.0,0.0,0.0,0.0,0.0,0.0,0.0,0.0,0.0,0.0,0.0,0.0,0.0,0.0,0.0,0.0,0.0,0.0,0.0,0.0,0.0,0.0,0.0,0.0,0.0,0.0,0.0,0.0,0.0,0.0,0.0,0.0,0.0,0.0,0.0,0.0,0.0,0.0,0.0,0.0,0.0,0.0,0.0,0.0,0.0,0.0,0.0,1.7807,1.6132,0.0,0.0,0.0,0.0,0.0,0.0,0.0,0.0,0.0,0.0,0.0,0.0,0.0,0.0,0.0,0.0,0.0,0.0,0.0,0.0,0.0,0.0,0.0,0.0,0.0,0.0,0.0,0.0,0.0,0.0,0.0,0.0,0.0,0.0,0.0,0.0,0.0,0.0,0.0,0.0,2.5193,2.6073,2.6611,2.6611,2.7194,2.7576,2.7576,2.7,2.6611,2.6611,2.5154,0.0,0.0,0.0,0.0,0.0,0.0,0.0,0.0,0.0,0.0,0.0,0.0,0.0,0.0,0.0,0.0,0.0,0.0,0.0,0.0,0.0,0.0,0.0,0.0,0.0,0.0,0.0,0.0,0.0,0.0,0.0,0.0,0.0,0.0,0.0,0.0,0.0,0.0,0.0,0.0,0.0,0.0,0.0,0.0,0.0,0.0,0.0,0.0,0.0,0.0,0.0,0.0,0.0,0.0,0.0,0.0,0.0,0.0,0.0,1.9658,1.8305,0.0,0.0,0.0,0.0,0.0,0.0,0.0,0.0,0.0,0.0,0.0,0.0,0.0,0.0,0.0,0.0,0.0,0.0,0.0,0.0,0.0,0.0,0.0,0.0,0.0,0.0,0.0,0.0,0.0,0.0,0.0,0.0,0.0,0.0,0.0,0.0,0.0,0.0,0.0,0.0,2.61,2.6961,2.7485,2.7485,2.7848,2.81,2.81,2.7718,2.7485,2.7485,2.6262,0.0,0.0,0.0,0.0,0.0,0.0,0.0,0.0,0.0,0.0,0.0,0.0,0.0,0.0,0.0,0.0,0.0,0.0,0.0,0.0,0.0,0.0,0.0,0.0,0.0,0.0,0.0,0.0,0.0,0.0,0.0,0.0,0.0,0.0,0.0,0.0,0.0,0.0,0.0,0.0,0.0,0.0,0.0,0.0,0.0,0.0,0.0,0.0,0.0,0.0,0.0,0.0,0.0,2.1545,2.1736,2.2107,2.2107,2.2084,2.199,2.0923,2.0337,2.0092,1.9721,0.0,0.0,0.0,0.0,0.0,0.0,0.0,0.0,0.0,0.0,0.0,0.0,0.0,0.0,0.0,0.0,0.0,0.0,0.0,0.0,0.0,0.0,2.304,2.304,2.304,2.2677,2.1282,0.0,0.0,0.0,0.0,0.0,0.0,0.0,0.0,0.0,0.0,0.0,2.6987,2.7815,2.8372,2.8528,2.8683,2.8838,2.8994,2.8722,2.8547,2.8547,2.7641,2.6728,0.0,0.0,0.0,0.0,0.0,0.0,0.0,0.0,0.0,0.0,0.0,0.0,0.0,0.0,0.0,0.0,0.0,0.0,0.0,0.0,0.0,0.0,0.0,0.0,0.0,0.0,0.0,0.0,0.0,0.0,0.0,0.0,1.3775,1.4648,0.0,0.0,0.0,0.0,0.0,0.0,0.0,0.0,0.0,0.0,0.0,0.0,0.0,2.1294,2.2204,2.2021,2.2336,2.3205,2.2959,2.2748,2.2609,2.2609,2.2478,2.2262,2.2324,0.0,2.0932,2.0761,0.0,0.0,0.0,0.0,0.0,0.0,0.0,0.0,0.0,0.0,0.0,0.0,0.0,0.0,0.0,0.0,0.0,0.0,0.0,0.0,0.0,0.0,2.4866,2.4866,2.4866,2.4809,2.458,2.3433,2.2409,2.2295,2.2352,2.2677,0.0,0.0,0.0,0.0,0.0,0.0,2.7822,2.869,2.9525,3.0282,3.104,3.1797,3.2555,3.1234,3.036,3.036,2.8845,2.7582,2.6767,2.5892,0.0,0.0,0.0,0.0,0.0,0.0,0.0,0.0,0.0,0.0,0.0,0.0,0.0,0.0,0.0,0.0,0.0,0.0,0.0,0.0,0.0,0.0,0.0,0.0,0.0,0.0,0.0,0.0,0.0,1.4253,1.5638,1.6503,1.717,1.779,0.0,0.0,0.0,0.0,0.0,0.0,0.0,0.0,0.0,2.2054,2.2407,2.2806,2.3309,2.3419,2.3602,2.3883,2.4025,2.3964,2.3716,2.3716,2.3716,2.3773,2.3887,2.3745,2.3382,2.25,2.2265,2.25,0.0,0.0,0.0,0.0,2.2136,2.1716,2.1807,2.1552,2.1189,2.1295,0.0,0.0,0.0,0.0,0.0,0.0,0.0,2.5428,2.5906,2.6326,2.6612,2.6612,2.6612,2.6612,2.6612,2.6001,2.5313,2.4836,2.474,2.5008,2.5886,2.6039,0.0,0.0,0.0,2.8965,2.9447,3.0727,3.1739,3.2128,3.2497,3.2885,3.3274,3.2594,3.1953,3.1467,3.0243,2.9175,2.834,2.7039,2.5725,0.0,0.0,0.0,0.0,0.0,0.0,0.0,0.0,0.0,0.0,0.0,0.0,0.0,0.0,0.0,0.0,0.0,0.0,0.0,0.0,0.0,0.0,0.0,0.0,0.0,0.0,0.0,0.0,1.616,1.7396,1.8467,1.8928,1.9495,0.0,0.0,0.0,0.0,0.0,0.0,2.196,2.2461,2.2916,2.3275,2.3816,2.4172,2.4302,2.4641,2.467,2.4365,2.466,2.4701,2.4506,2.4506,2.4628,2.482,2.482,2.489,2.5032,2.4059,2.3784,2.3975,2.4109,2.4284,2.4472,2.4553,2.4192,2.3753,2.4293,2.4112,2.3603,2.3764,2.3802,2.384,2.4128,0.0,0.0,0.0,0.0,2.688,2.7529,2.7854,2.8007,2.8007,2.8179,2.8332,2.8332,2.8332,2.8026,2.6937,2.6727,2.6937,2.7587,2.7873,0.0,2.8399,2.9778,3.0895,3.1178,3.2395,3.3294,3.3507,3.3563,3.3677,3.391,3.3732,3.3332,3.2691,3.1836,3.0865,2.9777,2.8534,2.7239,2.5867,0.0,0.0,0.0,0.0,0.0,0.0,0.0,0.0,0.0,0.0,0.0,0.0,0.0,0.0,0.0,0.0,0.0,0.0,0.0,0.0,0.0,0.0,0.0,0.0,0.0,0.0,0.0,0.0,0.0,2.0746,2.1003,0.0,0.0,0.0,0.0,2.2626,2.2658,2.2964,2.3733,2.3744,2.4085,2.4864,2.4918,2.5162,2.5686,2.5464,2.5195,2.4867,2.4624,2.4506,2.4506,2.4506,2.4506,2.4506,2.4506,2.4537,2.455,2.5004,2.5189,2.5243,2.5565,2.57,2.5754,2.6072,2.6123,2.6023,2.6077,2.6059,2.6023,2.6046,2.6224,2.6397,2.6438,2.6785,0.0,0.0,2.7327,2.7644,2.7701,2.8261,2.8834,2.8834,2.9478,3.007,3.007,3.007,2.9593,2.795,2.7625,2.7644,2.7701,0.0,2.9136,3.0042,3.0957,3.1878,3.276,3.2956,3.3304,3.4067,3.4262,3.4681,3.5524,3.4891,3.442,3.4381,3.3623,3.24,3.069,3.0554,2.935,2.6883,2.5874,0.0,0.0,0.0,0.0,0.0,0.0,0.0,0.0,0.0,0.0,0.0,0.0,0.0,0.0,0.0,0.0,0.0,0.0,0.0,0.0,0.0,0.0,0.0,0.0,0.0,0.0,0.0,0.0,2.199,2.1995,0.0,2.2908,2.2797,2.3117,2.4145,2.4197,2.452,2.5339,2.5353,2.5479,2.5769,2.5584,2.56,2.5786,2.6254,2.6429,2.6323,2.7062,2.7419,2.7419,2.7419,2.7419,2.7419,2.7419,2.7521,2.772,2.793,2.6969,2.5384,2.5707,2.5924,2.6063,2.6181,2.6227,2.6204,2.6204,2.6204,2.6204,2.6295,2.6845,2.7421,2.7481,2.8071,2.8819,2.9345,2.9569,2.9808,3.0336,3.0818,3.1146,3.1146,3.1489,3.1809,3.1809,3.1809,3.1637,3.1045,3.0472,3.0261,3.0835,3.1159,3.146,3.1795,3.2612,3.3333,3.3667,3.4732,3.556,3.5849,3.6376,3.6832,3.7153,3.648,3.5815,3.5234,3.4439,3.3479,3.2296,3.1119,3.0085,2.9168,2.7758,2.661,0.0,0.0,0.0,0.0,0.0,0.0,0.0,0.0,0.0,0.0,0.0,0.0,0.0,0.0,0.0,0.0,0.0,0.0,0.0,0.0,0.0,0.0,0.0,0.0,0.0,2.1144,2.187,2.2857,2.3099,2.3462,2.4136,2.4334,2.4689,2.5348,2.5407,2.5642,2.6168,2.6475,2.6682,2.6831,2.6923,2.6978,2.7003,2.758,2.7823,2.7758,2.8591,2.9011,2.9011,2.9011,2.9011,2.9011,2.9011,2.9138,2.9351,2.9438,2.838,2.6801,2.7218,2.7484,2.7673,2.7791,2.7815,2.7815,2.7815,2.7815,2.784,2.7912,2.8406,2.8989,2.9075,2.962,3.0327,3.0928,3.1158,3.1352,3.1975,3.2468,3.2899,3.3273,3.3661,3.4047,3.4331,3.4388,3.4388,3.4388,3.3012,3.2004,3.2596,3.2955,3.3257,3.3551,3.4347,3.5023,3.5336,3.6383,3.7089,3.7089,3.7618,3.7959,3.7959,3.7571,3.7069,3.6455,3.5687,3.4835,3.3953,3.2529,3.1465,3.0886,2.9226,2.7914,2.6997,0.0,0.0,0.0,0.0,0.0,0.0,0.0,0.0,0.0,0.0,0.0,0.0,0.0,0.0,0.0,0.0,0.0,0.0,0.0,0.0,0.0,0.0,0.0,2.1978,2.2216,2.2668,2.3432,2.4424,2.5045,2.5045,2.5769,2.6258,2.6276,2.6312,2.6331,2.6349,2.7091,2.772,2.8172,2.8938,2.9339,2.9386,2.942,2.928,2.9008,2.9059,2.9076,2.9076,2.9146,2.9163,2.9163,2.9163,2.9146,2.9183,2.9418,2.9541,2.9627,3.0251,3.0505,3.0534,3.0902,3.0985,3.0985,3.0985,3.0985,3.0985,3.0985,3.1057,3.1156,3.1245,3.1476,3.17,3.1807,3.1986,3.2197,3.2468,3.3127,3.3978,3.5026,3.5919,3.6757,3.7521,3.7693,3.7693,3.7693,3.5076,3.2863,3.2863,3.3566,3.4416,3.5336,3.6074,0.0,3.7778,3.7797,3.7731,3.7749,3.7888,3.797,3.797,3.8144,3.8187,3.8034,3.7344,3.6516,3.5605,3.482,3.3616,3.1865,3.021,2.8888,2.7911,0.0,0.0,0.0,0.0,0.0,0.0,0.0,0.0,0.0,0.0,0.0,0.0,0.0,0.0,0.0,0.0,0.0,0.0,0.0,0.0,0.0,2.2832,2.3596,2.3122,2.3741,2.428,2.4295,2.5234,2.5878,2.5878,2.6602,2.7327,2.7881,2.8485,2.9047,2.9644,2.988,2.9981,2.9857,2.9827,2.9677,2.9403,2.9739,2.9861,2.9803,3.0869,3.1376,3.1393,3.1935,3.2188,3.2188,3.2188,3.2349,3.2608,3.2724,3.2879,3.2912,3.1168,3.0499,3.0558,3.0874,3.0985,3.0985,3.0985,3.0985,3.1012,3.1057,3.1465,3.2101,3.2739,3.3442,3.4119,3.4734,3.514,3.5416,3.5506,3.5932,3.6444,3.673,3.7089,3.7426,3.7655,3.7693,3.7693,3.7693,3.6967,3.6337,3.6337,3.6528,3.6774,3.7018,3.725,3.7462,3.7725,3.8265,3.8665,3.8783,3.9353,3.9714,3.9714,3.9273,3.8954,3.8804,3.8065,3.7522,3.7247,3.5782,3.418,3.2492,3.1482,3.0784,0.0,0.0,0.0,0.0,0.0,0.0,0.0,0.0,0.0,0.0,0.0,0.0,0.0,0.0,0.0,0.0,0.0,0.0,0.0,0.0,0.0,0.0,2.3678,2.4424,2.4444,2.5072,2.5452,2.5296,2.6417,2.7218,2.7218,2.825,2.9101,2.9572,3.0043,3.0496,3.0966,3.1163,3.1112,3.0765,3.1058,3.1045,3.0612,3.1167,3.1495,3.1495,3.2341,3.2747,3.2763,3.3203,3.3406,3.3406,3.3406,3.3532,3.3738,3.3738,3.3865,3.3934,0.0,0.0,0.0,0.0,3.3013,3.3013,3.3013,3.3013,3.3013,3.306,3.3408,3.3891,3.4433,3.4976,3.552,3.6062,3.6362,3.6554,3.6642,3.6863,3.7171,3.764,3.7823,3.804,3.8518,3.8613,3.8652,3.8764,3.8782,0.0,3.8782,3.8171,3.7825,3.8257,3.8282,3.8379,3.8774,3.9257,3.9582,3.9651,4.0072,4.036,4.036,3.9996,0.0,0.0,0.0,3.8293,3.7913,3.6891,0.0,0.0,0.0,3.2962,3.2497,3.168,0.0,0.0,2.8409,2.7988,0.0,0.0,0.0,0.0,0.0,0.0,0.0,0.0,0.0,0.0,0.0,0.0,0.0,0.0,0.0,0.0,2.4768,2.5254,2.5968,2.6459,2.6651,2.6447,2.7863,2.8884,2.8884,3.0242,3.1129,3.1129,3.1292,3.1401,3.1327,3.1769,0.0,0.0,0.0,3.2831,3.2449,3.3068,3.3406,3.3406,3.3491,3.3525,3.3541,3.3609,3.366,3.366,3.366,3.366,3.366,3.366,3.3702,3.3794,3.4314,3.4783,3.5218,3.5656,3.582,3.582,3.582,0.0,0.0,3.582,3.5833,3.5914,3.6061,3.6152,3.6278,3.6465,3.656,3.6628,3.6822,3.6909,3.7154,3.8115,3.8357,3.8635,3.9678,3.9914,3.9996,4.0253,4.0368,4.0444,4.0444,3.9088,3.8299,3.9183,3.9233,3.9449,4.0296,4.0345,4.0291,4.031,4.031,0.0,4.031,4.0377,4.0358,4.0291,3.9689,3.893,3.807,3.8031,3.7609,3.6727,3.6017,3.5243,3.4407,3.3643,3.3245,3.3223,3.1402,3.0579,0.0,0.0,0.0,0.0,0.0,0.0,0.0,0.0,0.0,0.0,0.0,0.0,0.0,0.0,0.0,2.4989,2.6473,2.7567,2.771,2.9071,2.952,2.7994,2.9431,3.0532,3.0532,3.1401,3.1962,3.1962,3.3176,3.3779,3.3448,3.4062,3.4111,3.3446,3.368,3.3579,3.3186,3.3339,3.3406,3.3406,3.3998,0.0,3.4303,3.4912,3.5182,3.5182,3.5182,3.5182,3.5182,3.5182,3.5402,3.5648,3.4864,3.5013,3.5688,3.577,3.582,3.582,3.582,3.582,3.582,3.582,3.5802,3.596,3.6626,3.6853,0.0,3.7794,3.8157,3.8375,3.8563,3.8689,3.8845,3.9177,3.9239,3.9368,3.981,3.9914,3.9996,4.0253,4.0826,4.1266,4.1266,4.0444,3.9852,4.006,4.008,4.01,4.0309,4.031,4.0309,4.0375,4.0375,4.0375,4.0375,4.0389,4.0358,4.0291,4.0176,3.9697,3.8818,3.8798,3.8378,3.7498,3.7326,3.7173,3.6986,3.6814,3.6738,3.6661,3.3639,3.2607,0.0,0.0,0.0,0.0,0.0,0.0,0.0,0.0,0.0,0.0,0.0,2.2671,2.4087,0.0,2.4972,2.6534,2.7594,2.8533,2.9476,3.0767,3.112,2.9755,3.0785,3.1763,3.2162,3.2922,3.3574,3.3973,3.4751,3.5029,3.4563,3.4729,3.46,3.4002,3.4161,3.4159,3.3947,3.432,3.4506,3.4523,3.4878,3.5064,3.5064,3.5453,3.5622,3.5622,3.5622,3.5622,3.5622,3.5622,3.5871,3.6215,3.5682,3.5947,3.6676,3.6913,3.6997,3.6997,3.6997,3.6997,3.6997,3.6997,3.6997,3.7069,3.7533,3.7675,3.7812,3.8291,3.8523,3.8658,3.8766,3.8913,3.9027,3.9082,3.9417,3.9806,4.0207,4.0521,4.0866,4.1354,4.1679,4.1945,4.2025,4.1761,4.1552,4.1552,4.1552,4.1552,4.1552,4.1552,4.1552,4.1589,4.1607,4.1607,4.1607,4.1607,4.1398,4.0922,4.0903,4.052,3.9699,3.9661,3.9451,3.9011,3.8572,3.8325,3.8251,3.7885,3.7695,3.7603,3.5976,3.5439,0.0,0.0,0.0,0.0,0.0,0.0,0.0,2.1044,2.1673,2.3053,2.3446,2.3846,2.4871,2.5264,2.6069,2.8,2.8564,2.929,3.0797,3.1833,3.2223,3.166,3.2224,3.2977,3.3791,3.4461,3.5064,3.5634,3.58,3.5672,3.512,3.4988,3.4731,3.4329,3.4576,3.4709,3.4709,3.5318,3.5622,3.5622,3.5622,3.5622,3.5622,3.5774,3.5842,3.5859,3.5994,3.6062,3.6062,3.6062,3.6314,3.6715,3.6577,3.6968,3.7646,3.7864,3.7985,3.8054,3.8054,3.814,3.8192,3.8192,3.8192,3.8225,3.8274,3.8274,3.8307,3.8368,3.8433,3.8483,3.8679,3.8766,3.892,3.9067,3.9598,4.0209,4.0672,4.1148,4.1613,4.2281,4.2469,4.2564,4.2731,4.3054,4.3176,4.2851,4.2794,4.2794,4.2794,4.2794,4.2794,4.2794,4.2794,4.2794,4.2794,4.2794,4.2507,4.18,4.1743,4.1457,4.0807,4.0788,4.0788,4.0788,4.01,3.97,3.9565,3.8975,3.8669,3.8614,3.8669,3.8419,1.7893,1.8422,1.9075,1.9026,1.9814,2.0942,0.0,2.2422,2.2889,2.4036,2.4312,2.47,2.5769,2.6488,2.7355,2.8531,2.9892,3.0858,3.1067,3.2334,3.3352,3.363,3.406,3.4661,3.5457,3.562,3.5548,3.52,3.5827,3.5898,3.5128,3.5745,3.5916,3.5457,3.5453,3.5504,3.5504,3.5571,3.5622,3.5622,3.5622,3.5622,3.5639,3.6332,3.6654,3.6688,3.7364,3.7652,3.7652,3.7652,3.7899,3.8188,3.7542,3.7547,3.7853,3.7263,3.7283,3.7578,3.7578,3.7845,3.8192,3.8192,3.8192,3.8192,3.8225,3.8225,3.8225,3.8307,3.8274,3.8437,3.9243,3.9443,3.9628,4.0388,4.0641,4.0796,4.1077,4.1194,4.1329,4.1661,4.2547,4.3283,4.3326,4.4265,4.4513,4.3023,4.2794,4.2794,4.2794,4.2794,4.2794,4.2794,4.2794,4.2794,4.2794,4.2794,4.2756,4.266,4.2641,4.2603,4.2526,4.2526,4.2526,4.2526,4.2412,4.2374,4.2354,4.2278,4.224,4.222,4.224,4.1017,1.9385,1.984,2.0366,2.066,2.1407,2.2264,2.2965,2.3374,2.3832,2.4793,2.5041,2.5554,2.7051,2.7612,2.8345,2.9887,3.0688,3.1491,3.2623,3.333,3.4228,3.5594,3.5901,3.6127,3.6472,3.624,3.6181,3.647,3.6592,3.6408,3.5818,3.6128,3.6088,3.5622,3.6062,3.6299,3.6299,3.6721,3.6958,3.6958,3.6958,3.6958,3.6958,3.7297,3.7432,3.7449,3.777,3.7905,3.7905,3.7905,3.7984,3.812,3.7797,3.7944,3.8251,3.7535,3.7358,3.7542,3.7792,3.8054,3.8192,3.8192,3.8192,3.8192,3.8192,3.8192,3.8316,3.8787,3.8948,3.9164,4.0013,4.0247,4.0338,4.07,4.1172,4.157,4.188,4.2151,4.2481,4.2969,4.3455,4.3849,4.4003,4.4697,4.4941,4.4236,4.4204,4.4246,4.4246,4.4246,4.4246,4.4246,4.4246,4.4246,4.4246,4.4246,4.4036,4.3539,4.3501,4.3291,4.2813,4.2794,4.2754,4.2692,4.2673,4.261,4.2435,4.2544,4.2522,4.2458,4.2544,4.2058,2.0737,2.1023,2.1424,2.1982,2.2486,2.3047,2.3851,2.4149,2.4547,2.5481,2.5933,2.6539,2.7845,2.8494,2.9248,3.0732,3.1115,3.188,3.3628,3.4035,3.4761,3.6429,3.6822,3.6966,3.6913,3.6738,3.6845,3.7305,3.6978,3.6602,3.638,3.6397,3.6385,3.6185,3.6789,3.7094,3.7094,3.7635,3.7858,3.7858,3.7858,3.781,3.7778,3.8029,3.8215,3.8417,3.8417,3.8417,3.8417,3.8466,3.8466,3.8449,3.8294,3.8414,3.8608,3.8023,3.796,3.8167,3.8294,3.8432,3.8482,3.8264,3.8337,3.8518,3.8518,3.8663,3.8952,3.9532,3.973,3.9981,4.078,4.0996,4.1086,4.134,4.1814,4.2321,4.2561,4.2865,4.325,4.3693,4.3855,4.4011,4.4269,4.4681,4.4948,4.5038,4.5125,4.5213,4.5297,4.5297,4.5297,4.5297,4.5297,4.5297,4.5297,4.5297,4.5029,4.4399,4.436,4.4072,4.346,4.3441,4.3378,4.3228,4.3228,4.3137,4.295,4.3023,4.3066,4.2999,4.3114,4.3206,2.1801,2.2003,2.2366,2.2853,2.2837,2.3124,2.4795,2.4926,2.502,2.6215,2.7145,2.7739,2.7807,2.9042,3.0173,3.054,3.1232,3.2102,3.3336,3.4127,3.4863,3.556,3.6408,3.6847,3.6711,3.7193,3.7323,3.6939,3.6574,3.6353,3.6468,3.6675,3.703,3.7612,3.7807,3.7872,3.7872,3.7889,3.7858,3.7696,3.7696,3.7664,3.7551,3.8254,3.8957,3.9662,3.9662,3.9662,3.9662,3.9782,3.9833,3.9766,3.9192,3.8954,3.895,3.8603,3.9063,3.9738,3.8953,3.8996,3.9224,3.8445,3.8717,3.9351,3.9351,3.9858,4.0456,4.0474,4.0474,4.0655,4.147,4.1687,4.1868,4.2629,4.2828,4.2902,4.2902,4.2902,4.292,4.292,4.3266,4.3605,4.3881,4.4252,4.4617,4.487,4.4895,4.501,4.5275,4.5297,4.5297,4.5297,4.5297,4.5297,4.5297,4.5297,4.5277,4.5258,4.5258,4.5197,4.5049,4.5026,4.4981,4.4819,4.4819,4.4838,4.4819,4.4819,4.4891,4.5026,4.5026,4.5094,2.2179,2.2428,2.2943,2.3799,2.4181,2.4674,2.5813,2.6015,2.625,2.7178,2.7585,2.8093,2.9161,2.9941,3.0565,3.0929,3.1391,3.2199,3.3554,3.399,3.4692,3.6125,3.6589,3.6746,3.6689,3.7138,3.7346,3.7111,3.7171,3.7276,3.7292,3.7278,3.7412,3.7696,3.8135,3.8387,3.8387,3.8858,3.9042,3.9042,3.9042,3.8992,3.8957,3.9209,3.9443,3.9677,3.9677,3.9677,3.9729,3.9833,3.9901,3.9867,3.9767,3.9946,4.0168,4.0053,4.0418,4.0747,3.9417,3.9256,3.9621,3.9352,3.9662,4.013,4.013,4.0311,4.0619,4.1162,4.1307,4.1488,4.2285,4.2502,4.2556,4.2828,4.2882,4.2882,4.2882,4.2882,4.2938,4.3012,4.3214,4.3424,4.3612,4.4053,4.4503,4.4846,4.4986,4.508,4.5148,4.5235,4.5297,4.5297,4.5297,4.5297,4.5297,4.5297,4.5297,4.5297,4.5297,4.5275,4.5235,4.5148,4.5057,4.4895,4.4796,4.4719,4.4632,4.4632,4.4659,4.4712,4.4712,4.477,2.3273,2.35,2.3909,2.4778,2.5092,2.5436,2.6317,2.6468,2.6652,2.7567,2.8009,2.8619,2.9888,3.0449,3.0868,3.1304,3.1747,3.2538,3.3934,3.4389,3.5013,3.6284,3.6481,3.6502,3.6526,3.7107,3.7404,3.7158,3.7479,3.7765,3.7919,3.7952,3.8086,3.8338,3.874,3.8974,3.8974,3.9443,3.9677,3.9642,3.9573,3.9573,3.9573,3.9573,3.9573,3.9573,3.9573,3.9573,3.9573,3.9694,3.9746,3.9746,3.9884,4.0154,4.0483,4.0483,4.0707,4.0874,4.0084,3.9975,4.0217,4.0103,4.0454,4.0944,4.0944,4.1144,4.147,4.1995,4.214,4.2248,4.2755,4.2882,4.2882,4.2882,4.2882,4.2882,4.2882,4.2882,4.2938,4.2994,4.3087,4.3196,4.341,4.3855,4.4308,4.4595,4.4802,4.4967,4.5014,4.5084,4.5148,4.5148,4.5192,4.5213,4.5213,4.5275,4.5297,4.5297,4.5254,4.5192,4.517,4.5033,4.4895,4.4745,4.4685,4.4578,4.4515,4.4515,4.4524,4.4578,4.4578,4.4632,2.4895,2.4981,2.5067,2.5594,2.5465,2.5465,2.633,2.626,2.6336,2.7461,2.8345,2.9161,2.9867,3.0555,3.1128,3.1551,3.2204,3.3093,3.4347,3.5101,3.5618,3.5848,3.6011,3.61,3.6169,3.7114,3.7537,3.707,3.7533,3.8019,3.8453,3.8707,3.9042,3.9484,3.9642,3.9677,3.9677,3.9677,3.9642,3.9501,3.9379,3.9272,3.9272,3.9272,3.9272,3.9272,3.9272,3.9272,3.9325,3.9432,3.9501,3.9484,3.9625,3.9781,3.9901,3.9901,3.9986,4.0152,4.0768,4.0994,4.0949,4.0634,4.1071,4.1741,4.1741,4.2303,4.2882,4.2882,4.2882,4.2882,4.2882,4.2882,4.2882,4.2882,4.2882,4.2882,4.2882,4.2882,4.2882,4.2882,4.2882,4.2995,4.3267,4.3726,4.406,4.4109,4.443,4.4719,4.487,4.4914,4.4895,4.4895,4.5014,4.5103,4.5103,4.5213,4.5297,4.5275,4.517,4.5057,4.4914,4.477,4.4632,4.4515,4.4515,4.4515,4.4515,4.4515,4.457,4.4685,4.4685,4.4764,2.4048,2.4256,2.4583,2.4639,2.4942,2.5329,2.5868,2.6013,2.6247,2.7138,2.7746,2.8241,2.8758,2.9878,3.0668,3.0534,3.1319,3.2282,3.3277,3.3592,3.4074,3.5182,3.556,3.5864,3.6185,3.7129,3.7814,3.7887,3.8706,3.9209,3.9201,3.9218,3.9249,3.9484,3.9432,3.9432,3.9432,3.9432,3.9379,3.9325,3.9325,3.9272,3.9272,3.9272,3.9272,3.9272,3.9272,3.9272,3.9325,3.9432,3.9501,3.9484,3.9625,3.9729,3.9729,3.9729,3.9849,4.0003,4.0543,4.0752,4.0916,4.1145,4.1611,4.2131,4.2499,4.2737,4.2882,4.2882,4.2882,4.2882,4.2882,4.2882,4.2882,4.2882,4.2882,4.2882,4.2882,4.2882,4.2882,4.2882,4.2882,4.2995,4.3267,4.3389,4.3627,4.403,4.4199,4.4374,4.4693,4.4821,4.4895,4.4895,4.5014,4.5057,4.4943,4.517,4.5213,4.5014,4.5061,4.5057,4.4914,4.477,4.4667,4.4659,4.4551,4.4515,4.4515,4.4515,4.4515,4.4551,4.4551,4.4551,2.4214,2.442,2.4664,2.4639,2.4902,2.5275,2.5556,2.5668,2.5954,2.6787,2.7251,2.7704,2.8306,2.9441,3.0248,3.0036,3.1031,3.1998,3.2488,3.3131,3.3807,3.4505,3.5073,3.5559,3.6072,3.6984,3.7719,3.8162,3.9085,3.9537,3.9448,3.9379,3.9395,3.9379,3.9325,3.9272,3.9272,3.9272,3.9272,3.9272,3.9272,3.9272,3.9272,3.9272,3.9272,3.9272,3.9272,3.9272,3.9325,3.9379,3.9379,3.9448,3.9484,3.9573,3.959,3.959,3.9694,3.9833,4.0087,4.0385,4.0676,4.1321,4.1803,4.2239,4.2498,4.2729,4.2882,4.2882,4.2882,4.2882,4.2882,4.2882,4.2882,4.2882,4.2882,4.2882,4.2882,4.2882,4.2882,4.2882,4.2882,4.2957,4.3105,4.3232,4.3442,4.3873,4.403,4.4229,4.4578,4.4685,4.4719,4.4719,4.4895,4.4967,4.4895,4.5148,4.5213,4.4991,4.4991,4.4943,4.484,4.4685,4.4605,4.4605,4.4542,4.4515,4.4515,4.4515,4.4515,4.4515,4.4515,4.4515,2.4623,2.4768,2.4847,2.4831,2.491,2.5067,2.5253,2.5329,2.5583,2.6312,2.6742,2.7188,2.7815,2.8774,2.9501,2.9585,3.0784,3.18,3.196,3.3165,3.4008,3.3972,3.4685,3.5388,3.5926,3.6787,3.7586,3.8162,3.898,3.9448,3.9325,3.9379,3.9448,3.9325,3.9272,3.9272,3.9272,3.9272,3.9272,3.9272,3.9272,3.9272,3.9272,3.9272,3.9272,3.9272,3.9272,3.9272,3.9272,3.9272,3.9272,3.9272,3.9272,3.9379,3.9501,3.9501,3.9537,3.9677,3.9677,3.9935,4.037,4.1185,4.176,4.2133,4.2216,4.2555,4.2862,4.2882,4.2882,4.2882,4.2882,4.2882,4.2882,4.2882,4.2882,4.2882,4.2882,4.2882,4.2882,4.2882,4.2882,4.2882,4.2882,4.3087,4.3338,4.3612,4.3873,4.414,4.4411,4.4487,4.4515,4.4515,4.4719,4.487,4.4846,4.5103,4.517,4.5014,4.4919,4.4796,4.4685,4.4551,4.4515,4.4515,4.4515,4.4515,4.4515,4.4515,4.4515,4.4515,4.4515,4.4515,2.3809,2.3894,2.3979,2.3879,2.3921,2.4188,2.4623,2.5005,2.5329,2.5627,2.5787,2.5816,2.5625,2.6449,2.738,2.8076,2.9353,3.069,3.1867,3.2713,3.3362,3.3752,3.476,3.5496,3.5975,3.6918,3.7719,3.8162,3.8927,3.9325,3.9272,3.9325,3.9325,3.9272,3.9272,3.9272,3.9272,3.9272,3.9272,3.9272,3.9272,3.9272,3.9272,3.9272,3.9272,3.9272,3.9272,3.9272,3.9272,3.9272,3.9272,3.9272,3.9272,3.9325,3.9325,3.9325,3.9432,3.9537,3.9537,3.9642,3.9969,4.0802,4.1373,4.1805,4.2333,4.2591,4.267,4.2844,4.2882,4.2882,4.2882,4.2882,4.2882,4.2882,4.2882,4.2882,4.2882,4.2882,4.2882,4.2882,4.2882,4.2882,4.2882,4.292,4.3069,4.3338,4.3612,4.3873,4.414,4.4364,4.4515,4.4515,4.4632,4.4685,4.4578,4.4815,4.487,4.4632,4.4685,4.4685,4.4524,4.4515,4.4515,4.4515,4.4515,4.4515,4.4515,4.4515,4.4515,4.4515,4.4515,4.4515,2.3595,2.3653,2.3696,2.3595,2.3653,2.3734,2.3759,2.3909,2.3983,2.3869,2.4178,2.4414,2.4194,2.5196,2.627,2.6976,2.8246,2.9527,3.0492,3.1565,3.2486,3.3172,3.4039,3.4788,3.5346,3.6222,3.7003,3.7582,3.8311,3.8891,3.9255,3.9272,3.9272,3.9272,3.9272,3.9272,3.9272,3.9272,3.9272,3.9272,3.9272,3.9272,3.9272,3.9272,3.9272,3.9272,3.9272,3.9272,3.9272,3.9272,3.9272,3.9272,3.9272,3.9272,3.9272,3.9272,3.9325,3.9395,3.9395,3.959,3.9884,4.0303,4.0676,4.1082,4.1735,4.2074,4.2378,4.2788,4.2882,4.2882,4.2882,4.2882,4.2882,4.2882,4.2882,4.2882,4.2882,4.2882,4.2882,4.2882,4.2882,4.2882,4.2882,4.2882,4.2995,4.3267,4.3545,4.3809,4.4079,4.4335,4.4515,4.4515,4.4632,4.4685,4.4605,4.4789,4.4815,4.4605,4.4659,4.4632,4.4515,4.4515,4.4515,4.4515,4.4515,4.4515,4.4515,4.4515,4.4515,4.4515,4.4515,4.4515,2.3565,2.3595,2.3595,2.3595,2.349,2.3366,2.3061,2.302,2.2917,2.2605,2.3007,2.339,2.339,2.4265,2.5261,2.605,2.7214,2.8355,2.9307,3.0643,3.1805,3.2625,3.3433,3.418,3.4833,3.5562,3.6241,3.682,3.7698,3.8526,3.9239,3.9272,3.9272,3.9272,3.9272,3.9272,3.9272,3.9272,3.9272,3.9272,3.9272,3.9272,3.9272,3.9272,3.9272,3.9272,3.9272,3.9272,3.9272,3.9272,3.9272,3.9272,3.9272,3.9272,3.9272,3.9272,3.9272,3.9272,3.9272,3.9484,3.9798,3.9798,4.0054,4.0497,4.103,4.1525,4.1973,4.2498,4.2729,4.2862,4.2862,4.2862,4.2882,4.2882,4.2882,4.2882,4.2882,4.2882,4.2882,4.2882,4.2882,4.2882,4.2882,4.2882,4.2957,4.3196,4.3477,4.3777,4.3999,4.4306,4.4515,4.4515,4.4578,4.4659,4.4659,4.4745,4.477,4.4659,4.4659,4.4605,4.4496,4.4515,4.4515,4.4515,4.4515,4.4515,4.4515,4.4515,4.4515,4.4515,4.4515,4.4515,2.3445,2.3595,2.3595,2.3595,2.3176,2.2825,2.297,2.3063,2.3127,2.3275,2.3357,2.3375,2.3315,2.3318,2.379,2.5279,2.6065,2.7211,2.9293,3.0532,3.1614,3.2558,3.3612,3.4409,3.488,3.5562,3.6025,3.6108,3.7417,3.8526,3.9239,3.9272,3.9272,3.9272,3.9272,3.9272,3.9272,3.9272,3.9272,3.9272,3.9272,3.9272,3.9272,3.9272,3.9272,3.9272,3.9272,3.9272,3.9272,3.9272,3.9272,3.9272,3.9272,3.9272,3.9272,3.9272,3.9272,3.9272,3.9272,3.9325,3.9379,3.9379,3.985,4.0449,4.0754,4.1128,4.1507,4.1753,4.2192,4.2649,4.2649,4.2747,4.2882,4.2882,4.2882,4.2882,4.2882,4.2882,4.2882,4.2882,4.2882,4.2882,4.2882,4.2882,4.292,4.292,4.3373,4.3712,4.3744,4.417,4.4515,4.4515,4.4515,4.4515,4.4515,4.4542,4.4524,4.4515,4.4515,4.4515,4.4515,4.4515,4.4515,4.4515,4.4515,4.4515,4.4515,4.4515,4.4515,4.4515,4.4515,4.4515,2.2383,2.2458,2.2458,2.2458,2.2304,2.2149,2.2102,2.2134,2.2194,2.2134,2.2256,2.2365,2.2335,2.2348,2.2725,2.3777,2.4846,2.6208,2.7969,2.9315,3.0599,3.1868,3.2829,3.3544,3.4154,3.4899,3.5528,3.5976,3.7384,3.8344,3.8626,3.904,3.9272,3.9272,3.9272,3.9272,3.9272,3.9272,3.9272,3.9272,3.9272,3.9272,3.9272,3.9272,3.9272,3.9272,3.9272,3.9272,3.9272,3.9272,3.9272,3.9272,3.9272,3.9272,3.9272,3.9272,3.9272,3.9272,3.9272,3.9272,3.9272,3.9272,3.952,3.9885,4.0563,4.0896,4.1174,4.1856,4.231,4.2609,4.2609,4.2747,4.2882,4.2882,4.2882,4.2882,4.2882,4.2882,4.2882,4.2882,4.2882,4.2882,4.2882,4.2882,4.2882,4.2882,4.3373,4.3712,4.3712,4.4188,4.4515,4.4515,4.4515,4.4515,4.4515,4.4515,4.4515,4.4515,4.4515,4.4515,4.4515,4.4515,4.4515,4.4515,4.4515,4.4515,4.4515,4.4515,4.4515,4.4515,4.4515,4.4515,2.165,2.1695,2.1695,2.1695,2.1584,2.1439,2.1378,2.1264,2.1195,2.1103,2.1386,2.1648,2.1617,2.1781,2.2132,2.2851,2.3983,2.5292,2.675,2.8268,2.9712,3.1123,3.2204,3.3112,3.3723,3.4468,3.5197,3.5943,3.697,3.7649,3.788,3.856,3.9056,3.9272,3.9272,3.9272,3.9272,3.9272,3.9272,3.9272,3.9272,3.9272,3.9272,3.9272,3.9272,3.9272,3.9272,3.9272,3.9272,3.9272,3.9272,3.9272,3.9272,3.9272,3.9272,3.9272,3.9272,3.9272,3.9272,3.9272,3.9272,3.9272,3.9272,3.9468,4.0286,4.0611,4.0832,4.1534,4.2127,4.253,4.267,4.2786,4.2882,4.2882,4.2882,4.2882,4.2882,4.2882,4.2882,4.2882,4.2882,4.2882,4.2882,4.2882,4.2882,4.2882,4.3373,4.3712,4.3712,4.4188,4.4515,4.4515,4.4515,4.4515,4.4515,4.4515,4.4515,4.4515,4.4515,4.4515,4.4515,4.4515,4.4515,4.4515,4.4515,4.4515,4.4515,4.4515,4.4515,4.4515,4.4515,4.4515,2.1515,2.1695,2.1695,2.1695,2.1201,2.076,2.097,2.0645,2.0364,2.0548,2.1071,2.1493,2.1417,2.1691,2.2102,2.2806,2.3537,2.453,2.6005,2.7688,2.9219,3.0402,3.2101,3.3332,3.3769,3.4468,3.5197,3.5943,3.6009,3.634,3.7069,3.7814,3.8543,3.9255,3.9272,3.9272,3.9272,3.9272,3.9272,3.9272,3.9272,3.9272,3.9272,3.9272,3.9272,3.9272,3.9272,3.9272,3.9272,3.9272,3.9272,3.9272,3.9272,3.9272,3.9272,3.9272,3.9272,3.9272,3.9272,3.9272,3.9272,3.9272,3.9272,3.9379,3.9798,4.0154,4.04,4.04,4.1338,4.2391,4.2768,4.2882,4.2882,4.2882,4.2882,4.2882,4.2882,4.2882,4.2882,4.2882,4.2882,4.2882,4.2882,4.2882,4.2882,4.2882,4.3373,4.3712,4.3712,4.4188,4.4515,4.4515,4.4515,4.4515,4.4515,4.4515,4.4515,4.4515,4.4515,4.4515,4.4515,4.4515,4.4515,4.4515,4.4515,4.4515,4.4515,4.4515,4.4515,4.4515,4.4515,4.4515,2.0347,2.0355,2.0318,2.0318,2.0294,2.0273,2.0476,2.05,2.0581,2.0812,2.0975,2.1087,2.1055,2.1293,2.156,2.1774,2.3029,2.4348,2.5309,2.7241,2.8821,2.9648,3.1573,3.3311,3.4419,3.475,3.4998,3.523,3.5727,3.6108,3.634,3.7052,3.7798,3.8526,3.9023,3.9272,3.9272,3.9272,3.9272,3.9272,3.9272,3.9272,3.9272,3.9272,3.9272,3.9272,3.9272,3.9272,3.9272,3.9272,3.9272,3.9272,3.9272,3.9272,3.9272,3.9272,3.9272,3.9272,3.9272,3.9272,3.9272,3.9272,3.9272,3.9325,3.9432,3.9781,4.0154,4.0563,4.1036,4.1561,4.2139,4.236,4.2498,4.2844,4.2882,4.2882,4.2882,4.2882,4.2882,4.2882,4.2882,4.2882,4.2882,4.2882,4.2882,4.2882,4.3373,4.3712,4.3712,4.4188,4.4515,4.4515,4.4515,4.4515,4.4515,4.4515,4.4515,4.4515,4.4515,4.4515,4.4515,4.4515,4.4515,4.4515,4.4515,4.4411,4.4229,4.4229,4.414,4.3936,4.3936,4.3936,1.9687,1.9762,1.969,1.969,1.9797,1.994,2.007,2.0174,2.0361,2.0714,2.0681,2.073,2.1007,2.1183,2.134,2.1464,2.2913,2.4166,2.463,2.6816,2.8853,3.0096,3.1686,3.316,3.4369,3.4733,3.4899,3.4899,3.533,3.5578,3.5578,3.629,3.6903,3.7367,3.8361,3.9007,3.9272,3.9272,3.9272,3.9272,3.9272,3.9272,3.9272,3.9272,3.9272,3.9272,3.9272,3.9272,0.0,3.9272,3.9272,3.9272,3.9272,3.9272,3.9272,3.9272,3.9272,3.9272,3.9272,3.9272,3.9272,3.9272,3.9272,3.9272,3.9272,3.959,4.0037,4.0628,4.0849,4.1111,4.181,4.2038,4.2279,4.2768,4.2882,4.2882,4.2882,4.2882,4.2882,4.2882,4.2882,4.2882,4.2882,4.2882,4.2882,4.2882,4.3267,4.3545,4.3545,4.4017,4.4335,4.4335,4.444,4.4515,4.4515,4.4515,4.4515,4.4515,4.4515,4.444,4.4335,4.4335,4.4306,4.4218,4.4218,4.4109,4.3936,4.3936,4.3873,4.3679,4.3579,4.3612,0.0,1.9732,1.969,1.969,1.969,1.9726,1.9762,1.9762,0.0,2.0273,2.0258,2.0413,2.1103,2.1246,2.1402,2.1691,2.304,2.4017,2.4067,2.6601,2.9234,3.1328,3.2249,3.2978,3.3723,3.4468,3.4899,3.4899,3.4899,3.4899,3.4899,3.5545,3.5959,3.6009,3.7334,3.8427,3.9189,3.9206,3.9222,3.9272,3.9272,3.9272,3.9272,3.9272,3.9272,3.9272,3.9272,3.9272,3.9272,3.9272,3.9272,3.9272,3.9272,3.9272,3.9272,3.9272,3.9272,3.9272,3.9272,3.9272,3.9272,3.9272,3.9272,3.9272,3.9272,3.9537,3.9986,4.0531,4.0707,4.0926,4.1725,4.1937,4.2162,4.275,4.2882,4.2882,4.2882,4.2882,4.2882,4.2882,4.2882,4.2882,4.2882,4.2882,4.2882,4.2882,4.3124,4.3303,4.3303,4.3758,4.406,4.406,4.4306,4.444,4.444,4.4487,4.4487,4.4468,4.4468,4.4335,4.4091,4.406,4.3936,4.3712,4.3679,4.3679,4.3679,4.3646,4.3646,4.3646,4.3373,4.3408,1.9049,0.0,1.969,1.969,1.9726,1.9762,0.0,1.9762,1.9797,1.9854,2.005,2.0243,2.0413,2.0926,2.1325,2.1402,2.2881,2.4199,2.4762,2.7346,2.9781,3.1394,3.2249,3.2978,3.3723,3.4468,3.4899,3.4899,3.4899,3.4899,3.4899,3.5048,3.5413,3.5976,3.634,3.7152,3.8444,3.846,3.8742,3.9272,3.9272,3.9272,3.9272,3.9272,3.9272,3.9272,3.9272,3.9272,3.9272,3.9272,3.9272,3.9272,3.9272,3.9272,3.9272,3.9272,3.9272,3.9272,3.9272,3.9272,3.9272,3.9272,3.9272,3.9272,3.9272,3.9379,3.9484,3.9609,3.9952,4.0434,4.115,4.1613,4.2074,4.275,4.2882,4.2882,4.2882,4.2882,4.2882,4.2882,4.2882,4.2882,4.2882,4.2882,4.2882,4.2882,4.3124,4.3303,4.3303,4.3579,4.3777,4.3777,4.3841,4.3892,4.3892,4.4248,4.4411,4.4199,4.4199,4.4079,4.3809,4.3777,4.3744,4.3712,4.3511,4.3408,4.3408,4.3196,4.3105,4.3105,4.3032,4.3032,1.862,1.9231,1.969,1.969,1.9726,1.9726,1.9726,1.9726,1.9797,1.9925,1.9945,2.0085,2.0395,2.108,2.1649,2.1795,2.3309,2.4994,2.6419,2.8224,2.9831,3.0974,3.205,3.2845,3.3243,3.427,3.4899,3.4899,3.4899,3.4899,3.4899,3.4899,3.5081,3.5479,3.5495,3.6208,3.7698,3.8046,3.8411,3.8791,3.9123,3.9272,3.9272,3.9272,3.9272,3.9272,3.9272,3.9272,3.9272,3.9272,3.9272,3.9272,3.9272,3.9272,3.9272,3.9272,3.9272,3.9272,3.9272,3.9272,3.9272,3.9272,3.9272,3.9272,3.9272,3.9272,3.9272,3.9272,3.952,3.9935,4.0856,4.1331,4.1743,4.2673,4.2882,4.2882,4.2882,4.2882,4.2882,4.2882,4.2882,4.2882,4.2882,4.2882,4.2882,4.2882,4.3032,4.3142,4.3142,4.3338,4.3511,4.3511,4.3612,4.3712,4.3712,4.3955,4.4079,4.3936,4.3905,4.3809,4.3545,4.3511,4.3477,4.3338,4.3196,4.3142,4.3142,4.2957,4.2882,4.2882,4.2882,4.2882,1.8223,1.9031,1.9555,1.966,1.969,1.969,1.969,1.969,1.9782,2.0085,1.9945,2.0025,2.0821,2.1494,2.2109,2.2573,2.4214,2.617,2.8241,2.9135,2.9847,3.0593,3.1868,3.2729,3.2845,3.4087,3.4899,3.4899,3.4899,3.4899,3.4899,3.4899,3.4899,3.4899,3.4899,3.5495,3.6754,3.7615,3.8096,3.8228,3.8941,3.9272,3.9272,3.9272,3.9272,3.9272,3.9272,3.9272,3.9272,3.9272,3.9272,3.9272,3.9272,3.9272,3.9272,3.9272,3.9272,3.9272,3.9272,3.9272,3.9272,3.9272,3.9272,3.9272,3.9272,3.9272,3.9272,3.9272,3.9325,3.9661,4.0733,4.1059,4.1358,4.2537,4.2806,4.2806,4.2882,4.2882,4.2882,4.2882,4.2882,4.2882,4.2882,4.2882,4.2882,4.2882,4.2882,4.2882,4.2882,4.3105,4.3232,4.3232,4.3442,4.3579,4.3579,4.3579,4.3579,4.3579,4.3612,4.3511,4.3232,4.3232,4.3124,4.2882,4.2882,4.2882,4.2882,4.2882,4.2882,4.2882,4.2882,4.2882,1.7637,1.8343,1.8986,1.9555,1.969,1.969,1.969,1.969,1.9711,1.9747,1.9945,2.0462,2.1453,2.2032,2.2622,2.3589,2.5574,2.7479,2.9036,2.988,3.0584,3.1328,3.2183,3.2945,3.3557,3.4386,3.4899,3.4899,3.4899,3.4899,3.4899,3.4899,3.4899,3.4899,3.4899,3.5015,3.523,3.6589,3.7599,3.8228,3.8941,3.9272,3.9272,3.9272,3.9272,3.9272,3.9272,3.9272,3.9272,3.9272,3.9272,3.9272,3.9272,3.9272,3.9272,3.9272,3.9272,3.9272,3.9272,3.9272,3.9272,3.9272,3.9272,3.9272,3.9272,3.9272,3.9272,3.9272,3.9537,3.9935,4.04,4.0767,4.123,4.2115,4.2297,4.2418,4.2806,4.2882,4.2882,4.2882,4.2882,4.2882,4.2882,4.2882,4.2882,4.2882,4.2882,4.2882,4.2882,4.292,4.2957,4.2957,4.2995,4.3032,4.3032,4.3032,4.3032,4.3032,4.3232,4.3232,4.2957,4.2957,4.2957,4.2882,4.2882,4.2882,4.2882,4.2882,4.2882,4.2882,4.2882,4.2882,1.7518,1.8208,1.8867,1.9525,1.969,1.969,1.969,1.9974,2.0243,2.0243,2.0662,2.1255,2.1937,2.2695,2.3797,2.5504,2.7611,2.9118,2.9383,3.0394,3.1196,3.1543,3.2249,3.2978,3.3723,3.4468,3.4899,3.4899,3.4899,3.4899,3.4899,3.4899,3.4899,3.4899,3.4899,3.4899,3.4899,3.6357,3.7284,3.7632,3.8742,3.9272,3.9272,3.9272,3.9272,3.9272,3.9272,3.9272,3.9272,3.9272,3.9272,3.9272,3.9272,3.9272,3.9272,3.9272,3.9272,3.9272,3.9272,3.9272,3.9272,3.9272,3.9272,3.9272,3.9272,3.9272,3.9272,3.9272,3.9432,3.9677,4.0153,4.0594,4.1111,4.1913,4.2257,4.2494,4.2844,4.2882,4.2882,4.2882,4.2882,4.2882,4.2882,4.2882,4.2882,4.2882,4.2882,4.2882,4.2882,4.2882,4.2882,4.2882,4.2882,4.2882,4.2882,4.2882,4.2882,4.2882,4.3032,4.3032,4.29,4.2882,4.2882,4.2882,4.2882,4.2882,4.2882,4.2882,4.2882,4.2882,4.2882,4.2882,1.7697,1.8328,1.8897,1.972,1.9809,1.9735,1.9884,2.0333,2.0752,2.0917,2.1335,2.1928,2.2632,2.3864,2.5452,2.7547,2.9204,3.0195,2.9963,3.0865,3.1686,3.1851,3.2514,3.3243,3.3988,3.4568,3.4899,3.4899,3.4899,3.4899,3.4899,3.4899,3.4899,3.4899,3.4899,3.4982,3.5148,3.6456,3.7102,3.7119,3.8576,3.9272,3.9272,3.9272,3.9272,3.9272,3.9272,3.9272,3.9272,3.9272,3.9272,3.9272,3.9272,3.9272,3.9272,3.9272,3.9272,3.9272,3.9272,3.9272,3.9272,3.9272,3.9272,3.9272,3.9272,3.9272,3.9272,3.9272,3.9272,3.9415,4.002,4.0417,4.0832,4.17,4.2175,4.2512,4.2768,4.2862,4.2882,4.2882,4.2882,4.2882,4.2882,4.2882,4.2882,4.2882,4.2882,4.2882,4.2882,4.2882,4.2882,4.2882,4.2882,4.2882,4.2882,4.2882,4.2882,4.2882,4.2882,4.2882,4.2882,4.2882,4.2882,4.2882,4.2882,4.2882,4.2882,4.2882,4.2882,4.2882,4.2882,4.2882,1.8283,1.8672,1.9016,2.0318,2.0154,1.9854,2.0498,2.0677,2.0887,2.15,2.1665,2.2214,2.3851,2.5891,2.7842,2.9383,2.9526,2.9947,3.1288,3.151,3.1868,3.2531,3.3259,3.4005,3.475,3.4866,3.4899,3.4899,3.4899,3.4899,3.4899,3.4899,3.4899,3.4899,3.4899,3.523,3.5909,3.6704,3.7102,3.7119,3.8576,3.9272,3.9272,3.9272,3.9272,3.9272,3.9272,3.9272,3.9272,3.9272,3.9272,3.9272,3.9272,3.9272,3.9272,3.9272,3.9272,3.9272,3.9272,3.9272,3.9272,3.9272,3.9272,3.9272,3.9272,3.9272,3.9272,3.9272,3.9272,3.9415,3.9969,4.0121,4.0402,4.1408,4.1788,4.2068,4.2512,4.2786,4.2882,4.2882,4.2882,4.2882,4.2882,4.2882,4.2882,4.2882,4.2882,4.2882,4.2882,4.2882,4.2882,4.2882,4.2882,4.2882,4.2882,4.2882,4.2882,4.2882,4.2882,4.2882,4.2882,4.2882,4.2882,4.2882,4.2882,4.2882,4.2882,4.2882,4.2882,4.2882,4.2882,4.2882,1.8463,1.8982,1.9483,2.0445,2.0735,2.0914,2.1261,2.1595,2.2017,2.2742,2.3193,2.3968,2.577,2.7664,2.9162,2.9653,3.1101,3.2017,3.1626,3.2398,3.3061,3.3342,3.3624,3.4087,3.4816,3.4899,3.4899,3.4899,3.4899,3.4899,3.4899,3.4899,3.5098,3.5578,3.5578,3.5943,3.6688,3.7433,3.7798,3.7814,3.8791,3.9272,3.9272,3.9272,3.9272,3.9272,3.9272,3.9272,3.9272,3.9272,3.9272,3.9272,3.9272,3.9272,3.9272,3.9272,3.9272,3.9272,3.9272,3.9272,3.9272,3.9272,3.9272,3.9272,3.9272,3.9272,3.9272,3.9272,3.9272,3.9432,3.9833,4.0104,4.0483,4.13,4.1701,4.2044,4.2512,4.267,4.2747,4.29,4.2882,4.2882,4.2882,4.2882,4.2882,4.2882,4.2882,4.2882,4.2882,4.2882,4.2882,4.2882,4.2882,4.2882,4.2882,4.2882,4.2882,4.2882,4.2882,4.2882,4.2882,4.2882,4.2882,4.2882,4.2882,4.2882,4.2882,4.2882,4.2882,4.2882,4.2882,4.2882,1.8723,1.9439,2.0072,2.078,2.1396,2.1936,2.2435,2.284,2.3271,2.3762,2.4685,2.5807,2.7031,2.8654,2.991,3.0273,3.1834,3.2777,3.213,3.2978,3.3697,3.3697,3.3895,3.4242,3.4849,3.4835,3.4804,3.4899,3.4804,3.4903,3.523,3.515,3.5481,3.6324,3.6357,3.6704,3.745,3.7963,3.8328,3.8543,3.904,3.9272,3.9272,3.9272,3.9272,3.9272,3.9272,3.9272,3.9272,3.9272,3.9272,3.9272,3.9272,3.9272,3.9272,3.9272,3.9272,3.9272,3.9272,3.9272,3.9272,3.9272,3.9272,3.9272,3.9272,3.9272,3.9272,3.9272,3.9272,3.9379,3.9798,4.0154,4.0546,4.1146,4.1613,4.2019,4.2409,4.257,4.267,4.2844,4.2882,4.2882,4.2882,4.2882,4.2882,4.2882,4.2882,4.2882,4.2882,4.2882,4.2882,4.2882,4.2882,4.2882,4.2882,4.2882,4.2882,4.2882,4.2882,4.2882,4.2882,4.2882,4.2882,4.2882,4.2882,4.2882,4.2882,4.2882,4.2882,4.2882,4.2882,4.2882,1.9146,2.002,2.0659,2.1342,2.201,2.2857,2.4089,2.4385,2.4415,2.4505,2.6065,2.7416,2.7416,2.8741,3.0273,3.1545,3.1451,3.1644,3.2821,3.3225,3.3416,3.3416,3.4055,3.4594,3.4899,3.4659,3.4594,3.4899,3.4643,3.4923,3.5959,3.5745,3.609,3.7085,3.7119,3.7466,3.8212,3.8228,3.8576,3.9272,3.9272,3.9272,3.9272,3.9272,3.9272,3.9272,3.9272,3.9272,3.9272,3.9272,3.9272,3.9272,3.9272,3.9272,3.9272,3.9272,3.9272,3.9272,3.9272,3.9272,3.9272,3.9272,3.9272,3.9272,3.9272,3.9272,3.9272,3.9272,3.9272,3.9379,3.9798,4.0154,4.0514,4.0913,4.148,4.1977,4.2246,4.245,4.2649,4.2862,4.2882,4.2882,4.2882,4.2882,4.2882,4.2882,4.2882,4.2882,4.2882,4.2882,4.2882,4.2882,4.2882,4.2882,4.2882,4.2882,4.2882,4.2882,4.2882,4.2882,4.2882,4.2882,4.2882,4.2882,4.2882,4.2882,4.2882,4.2882,4.2882,4.2882,4.2882,4.2882,1.9275,1.9983,2.048,2.1317,2.2581,2.3701,2.4082,2.4523,2.5242,2.6608,2.7447,2.8193,2.9138,2.9993,3.0661,3.1051,3.1887,3.2487,3.2522,3.3139,3.3677,3.3876,3.4268,3.4546,3.4594,3.4546,3.4546,3.4594,3.4806,3.5147,3.5678,3.6104,3.6694,3.7485,3.7502,3.7863,3.8602,3.8602,3.8717,3.8969,3.8969,3.9094,3.9272,3.9272,3.9272,3.9272,3.9272,3.9272,3.9272,3.9272,3.9272,3.9272,3.9272,3.9272,3.9272,3.9272,3.9272,3.9272,3.9272,3.9272,3.9272,3.9272,3.9272,3.9272,3.9272,3.9272,3.9272,3.9272,3.9272,3.9325,3.9432,3.9781,4.0204,4.0836,4.1346,4.1762,4.1977,4.2187,4.245,4.2631,4.2824,4.2882,4.2882,4.2882,4.2882,4.2882,4.2882,4.2882,4.2882,4.2882,4.2882,4.2882,4.2882,4.2882,4.2882,4.2882,4.2882,4.2882,4.2882,4.2882,4.2882,4.2882,4.2882,4.2882,4.2882,4.2882,4.2882,4.2882,4.2882,4.2882,4.2882,4.2882,1.9117,2.0062,2.0724,2.1256,2.2731,2.4297,2.5024,2.5491,2.6177,2.7525,2.832,2.9031,2.9853,3.0448,3.0866,3.105,3.1925,3.2524,3.2437,3.3149,3.3745,3.3899,3.4101,3.425,3.4349,3.425,3.4314,3.4691,3.4859,3.5308,3.6206,3.6576,3.7091,3.797,3.8095,3.8346,3.8805,3.8805,3.8805,3.8805,3.8805,3.8914,3.9094,3.9094,3.9148,3.9272,3.9272,3.9272,3.9272,3.9272,3.9272,3.9272,3.9272,3.9272,3.9272,3.9272,3.9272,3.9272,3.9272,3.9272,3.9272,3.9272,3.9272,3.9272,3.9272,3.9272,3.9272,3.9272,3.9272,3.9272,3.9272,3.959,4.0037,4.0628,4.1071,4.1453,4.1831,4.2019,4.2187,4.245,4.2631,4.2786,4.2786,4.2862,4.2882,4.2882,4.2882,4.2882,4.2882,4.2882,4.2882,4.2882,4.2882,4.2882,4.2882,4.2882,4.2882,4.2882,4.319,4.3371,4.3371,4.3063,4.2882,4.2882,4.2882,4.2882,4.2882,4.2882,4.2882,4.2882,4.2882,4.3063,1.8753,2.0201,2.1167,2.1222,2.2688,2.4644,2.6483,2.703,2.7302,2.7766,2.891,2.9856,2.9944,3.0309,3.0807,3.1321,3.1652,3.1992,3.2477,3.3156,3.3591,3.3658,3.371,3.3813,3.405,3.3912,3.415,3.5017,3.4915,3.5556,3.7203,3.711,3.7432,3.8319,3.86,3.875,3.875,3.875,3.875,3.875,3.875,3.875,3.875,3.8805,3.904,3.9272,3.9272,3.9272,3.9272,3.9272,3.9272,3.9272,3.9272,3.9272,3.9272,3.9272,3.9272,3.9272,3.9272,3.9272,3.9272,3.9272,3.9272,3.9272,3.9272,3.9272,3.9272,3.9272,3.9272,3.9272,3.9272,3.959,3.9969,4.0319,4.0724,4.1163,4.1744,4.1892,4.1977,4.2205,4.245,4.2609,4.2609,4.2786,4.2882,4.2882,4.2882,4.2882,4.2882,4.2882,4.2882,4.2882,4.2882,4.2918,4.2991,4.3009,4.3027,4.3099,4.3788,4.4204,4.4204,4.3498,4.3118,4.3118,4.3118,4.3118,4.3118,4.3118,4.3118,4.3118,4.3118,4.3498,1.8516,1.9951,2.1085,2.1155,2.2935,2.5139,2.7084,2.7911,2.8504,2.9087,2.9421,2.9828,3.0337,3.054,3.0628,3.0747,3.0925,3.1263,3.1936,3.2342,3.2742,3.3293,3.3555,3.3694,3.3797,3.4206,3.459,3.4787,3.557,3.6333,3.6974,3.7431,3.7799,3.8001,3.8319,3.8375,3.8116,3.8375,3.8375,3.8116,3.8375,3.8504,3.8504,3.9002,3.9218,3.9272,3.9272,3.9272,3.9272,3.9272,3.9272,3.9272,3.9272,3.9272,3.9272,3.9272,3.9272,3.9272,3.9272,3.9272,3.9272,3.9272,3.9272,3.9272,3.9272,3.9272,3.9272,3.9272,3.9272,3.9272,3.9272,3.959,3.9969,4.0319,4.0724,4.1117,4.1587,4.1805,4.1934,4.1959,4.231,4.2609,4.2609,4.2786,4.2882,4.2882,4.2882,4.2882,4.2882,4.2882,4.2882,4.2882,4.2882,4.3154,4.3788,4.3824,4.4095,4.4729,4.4947,4.5037,4.5037,4.4874,4.4784,4.4784,4.4784,4.4784,4.4784,4.4784,4.4784,4.4784,4.4784,4.4874,1.7871,1.9202,2.0581,2.2091,2.3644,2.5206,2.691,2.7998,2.8768,2.9102,2.9653,3.019,3.051,3.0568,3.0669,3.0974,3.1275,3.1738,3.2436,3.2806,3.3269,3.3817,3.4038,3.4257,3.4504,3.4838,3.5188,3.5467,3.6068,3.6622,3.7144,3.7552,3.7685,3.7685,3.8017,3.8075,3.7886,3.8075,3.8148,3.8132,3.8148,3.8262,3.8391,3.9002,3.9202,3.9094,3.9218,3.9272,3.9272,3.9272,3.9272,3.9272,3.9272,3.9272,3.9272,3.9272,3.9272,3.9272,3.9272,3.9272,3.9272,3.9272,3.9272,3.9272,3.9272,3.9272,3.9272,3.9272,3.9272,3.9272,3.9272,3.9484,3.9729,4.0269,4.0724,4.1117,4.1498,4.1675,4.1762,4.1762,4.2145,4.245,4.245,4.2709,4.2882,4.2882,4.2882,4.2882,4.2882,4.2882,4.3045,4.3425,4.3462,4.3788,4.4603,4.4675,4.4838,4.5273,4.5653,4.587,4.587,4.625,4.6087,4.5327,4.5291,4.5291,4.5291,4.5291,4.5291,4.5291,4.5291,4.5508,1.7093,1.8464,2.0217,2.3045,2.4297,2.5183,2.6489,2.7766,2.871,2.8811,2.9769,3.0568,3.0568,3.0669,3.0916,3.1438,3.1921,3.2492,3.3087,3.3592,3.4074,3.4574,3.469,3.4878,3.5338,3.5489,3.5805,3.639,3.6548,3.6864,3.7449,3.748,3.748,3.748,3.7786,3.7886,3.7828,3.7886,3.8017,3.8221,3.8017,3.8075,3.8335,3.8931,3.904,3.8805,3.9148,3.9272,3.9272,3.9272,3.9272,3.9272,3.9272,3.9272,3.9272,3.9272,3.9272,3.9272,3.9272,3.9272,3.9272,3.9272,3.9272,3.9272,3.9272,3.9272,3.9272,3.9272,3.9272,3.9272,3.9272,3.9325,3.9573,4.022,4.0724,4.1117,4.1498,4.1604,4.1604,4.1604,4.1934,4.2246,4.2287,4.2591,4.2862,4.2862,4.29,4.2936,4.3081,4.3099,4.3407,4.4222,4.4313,4.4621,4.5436,4.5508,4.5562,4.5707,4.6341,4.6721,4.6721,4.7355,4.7083,4.5743,4.5707,4.5707,4.5707,4.5707,4.5707,4.5707,4.5707,4.6069,1.6413,1.8371,2.0727,2.2566,2.3978,2.5212,2.6489,2.7766,2.884,2.9377,3.0074,3.0568,3.0568,3.1032,3.1424,3.1511,3.2067,3.265,3.3146,3.3577,3.4044,3.4558,3.5008,3.5322,3.5394,3.5932,3.6327,3.6421,3.699,3.7385,3.7464,3.748,3.748,3.748,3.7786,3.7786,3.7583,3.7786,3.7786,3.7642,3.7786,3.7943,3.8001,3.8567,3.886,3.8805,3.9148,3.9272,3.9272,3.9272,3.9272,3.9272,3.9272,3.9272,3.9272,3.9272,3.9272,3.9272,3.9272,3.9272,3.9272,3.9272,3.9272,3.9272,3.9272,3.9272,3.9272,3.9272,3.9272,3.9272,3.9272,3.9537,3.9935,4.0319,4.0724,4.1117,4.1498,4.1604,4.1604,4.1604,4.1805,4.2019,4.2246,4.249,4.2649,4.2649,4.2786,4.3136,4.3842,4.3932,4.424,4.5055,4.5146,4.5472,4.6269,4.6341,4.6649,4.7355,4.7482,4.7554,4.7554,4.7645,4.7609,4.7391,4.7391,4.7391,4.7391,4.7391,4.7391,4.7391,4.7391,4.7446,1.6837,1.8769,2.0741,2.2047,2.3644,2.5096,2.601,2.7229,2.8332,2.8956,2.9595,3.0147,3.051,3.109,3.1642,3.2019,3.2629,3.3231,3.3776,3.4307,3.4798,3.5278,3.5794,3.6256,3.6564,3.6832,3.7022,3.7022,3.7306,3.748,3.748,3.748,3.748,3.748,3.7626,3.7642,3.748,3.7642,3.7642,3.748,3.7786,3.7886,3.7943,3.8359,3.86,3.86,3.8876,3.9148,3.9272,3.9094,3.9148,3.9272,3.9272,3.9272,3.9272,3.9272,3.9272,3.9272,3.9272,3.9272,3.9272,3.9272,3.9272,3.9272,3.9272,3.9272,3.9272,3.9272,3.9272,3.9272,3.9272,3.9432,3.9677,4.0003,4.0385,4.0754,4.1163,4.1453,4.1648,4.1762,4.1849,4.1977,4.2246,4.2369,4.2633,4.3162,4.3354,4.3743,4.4657,4.4765,4.5073,4.5888,4.5979,4.6305,4.7102,4.7174,4.7319,4.7681,4.7717,4.7717,4.7717,4.7717,4.7717,4.7717,4.7717,4.7717,4.7717,4.7717,4.7717,4.7717,4.7717,4.7717,1.697,1.8604,2.0117,2.1284,2.2867,2.4413,2.5371,2.6562,2.7708,2.8521,2.9189,2.9813,3.0451,3.109,3.1743,3.2411,3.305,3.3754,3.4514,3.5037,3.5544,3.6054,3.6585,3.7029,3.748,3.748,3.748,3.748,3.748,3.748,3.748,3.748,3.748,3.748,3.748,3.748,3.748,3.748,3.748,3.748,3.7685,3.7786,3.7786,3.8148,3.8262,3.8262,3.8639,3.8914,3.9148,3.8914,3.8985,3.9272,3.9272,3.9272,3.9272,3.9272,3.9272,3.9272,3.9272,3.9272,3.9272,3.9272,3.9272,3.9272,3.9272,3.9272,3.9272,3.9272,3.9272,3.9272,3.9272,3.9272,3.9379,3.9798,4.0154,4.0563,4.1024,4.1408,4.1648,4.1805,4.1805,4.1945,4.2346,4.2465,4.2816,4.3769,4.4001,4.4412,4.5369,4.5486,4.5834,4.6721,4.6812,4.7065,4.7663,4.7717,4.7717,4.7717,4.7717,4.7717,4.7717,4.7717,4.7717,4.7717,4.7717,4.7717,4.7717,4.7717,4.7717,4.7717,4.7717,4.7717,1.6179,1.7323,1.8585,2.0103,2.1476,2.289,2.4549,2.5923,2.7186,2.8419,2.9189,2.9813,3.0451,3.109,3.1743,3.2411,3.305,3.3871,3.5014,3.5544,3.6054,3.6585,3.7165,3.748,3.748,3.748,3.748,3.748,3.748,3.748,3.748,3.748,3.748,3.748,3.748,3.748,3.748,3.748,3.748,3.748,3.7539,3.7539,3.7539,3.7786,3.7943,3.7943,3.8567,3.8805,3.8805,3.8805,3.8985,3.9272,3.9272,3.9272,3.9272,3.9272,3.9272,3.9272,3.9272,3.9272,3.9272,3.9272,3.9272,3.9272,3.9272,3.9272,3.9272,3.9272,3.9272,3.9272,3.9272,3.9272,3.9379,3.9798,4.0154,4.0594,4.1408,4.1604,4.1604,4.1604,4.1604,4.185,4.265,4.2935,4.3315,4.4129,4.4596,4.5144,4.5953,4.6073,4.645,4.7518,4.7645,4.7663,4.7717,4.7717,4.7717,4.7717,4.7717,4.7717,4.7717,4.7717,4.7717,4.7717,4.7717,4.7717,4.7717,4.7717,4.7717,4.7717,4.7717,4.7717,1.6153,1.7229,1.8309,1.9152,2.0829,2.2437,2.3093,2.4725,2.6402,2.7273,2.7969,2.8724,2.9769,3.0814,3.1598,3.1845,3.2425,3.3143,3.3966,3.448,3.5015,3.5627,3.6461,3.6968,3.6968,3.7285,3.748,3.748,3.748,3.748,3.748,3.748,3.748,3.748,3.748,3.748,3.748,3.748,3.748,3.748,3.748,3.7583,3.7727,3.7828,3.7886,3.7943,3.8375,3.8655,3.8805,3.86,3.8838,3.9272,3.9272,3.9272,3.9272,3.9272,3.9272,3.9272,3.9272,3.9272,3.9272,3.9272,3.9272,3.9272,3.9272,3.9272,3.9272,3.9272,3.9272,3.9272,3.9272,3.9272,3.9468,4.0087,4.0711,4.1415,4.2177,4.1973,4.1762,4.2271,4.2377,4.2622,4.3377,4.3592,4.393,4.4862,4.5133,4.5579,4.6667,4.6816,4.7053,4.7621,4.7717,4.7717,4.7717,4.7717,4.7717,4.7717,4.7717,4.7717,4.7717,4.7717,4.7717,4.7717,4.7717,4.7717,4.7717,4.7717,4.7717,4.7717,4.7717,4.7717,1.5994,1.685,1.7731,1.8401,2.0034,2.1573,2.2179,2.3779,2.5458,2.6562,2.7128,2.781,2.9073,3.0001,3.0771,3.1409,3.1888,3.246,3.3293,3.3687,3.4241,3.5011,3.5734,3.6199,3.643,3.6907,3.7225,3.7225,3.7421,3.748,3.748,3.748,3.748,3.748,3.748,3.748,3.748,3.748,3.748,3.748,3.748,3.7583,3.7786,3.7786,3.7786,3.7786,3.7992,3.8319,3.8655,3.8544,3.8838,3.9272,3.9272,3.9272,3.9272,3.9272,3.9272,3.9272,3.9272,3.9272,3.9272,3.9272,3.9272,3.9272,3.9272,3.9272,3.9272,3.9272,3.9272,3.9272,3.9272,3.9454,3.9834,4.0392,4.129,4.2156,4.284,4.2654,4.2535,4.3079,4.3184,4.3412,4.4167,4.429,4.4601,4.5499,4.5764,4.6145,4.6954,4.7249,4.7425,4.7675,4.7717,4.7657,4.7529,4.7529,4.7529,4.7486,4.7529,4.7572,4.7572,4.7657,4.7657,4.7572,4.7572,4.7529,4.7486,4.7615,4.7717,4.7717,4.7717,4.7717,0.0,0.0,0.0,1.7796,1.8856,2.0113,2.1847,2.3105,2.4399,2.63,2.6721,2.7142,2.839,2.8637,2.9261,3.1134,3.1453,3.1886,3.3104,3.327,3.3679,3.4758,3.4957,3.5216,3.5821,3.6352,3.6693,3.6723,3.7225,3.748,3.748,3.748,3.748,3.748,3.748,3.748,3.748,3.748,3.748,3.748,3.748,3.748,3.748,3.748,3.748,3.748,3.7539,3.7817,3.8391,3.8711,3.8985,3.9272,3.9272,3.9272,3.9272,3.9272,3.9272,3.9272,3.9272,3.9272,3.9272,3.9272,3.9272,3.9272,3.9272,3.9272,3.9272,3.9272,3.9272,3.9342,3.9305,3.9852,4.0508,4.0836,4.1831,4.2843,4.3247,4.3655,4.3957,4.3939,4.3939,4.4185,4.4992,4.5133,4.5378,4.6116,4.6464,4.6684,4.6684,4.7249,4.7675,4.7675,4.7675,4.7529,4.7205,4.7187,4.716,4.6998,4.7187,4.7302,4.7302,4.7554,4.7572,4.732,4.7302,4.7187,4.6998,4.7486,4.7699,4.7699,4.7699,4.7675,1.5693,0.0,0.0,0.0,0.0,0.0,2.0623,2.2085,2.3484,2.4486,2.5429,2.6315,2.7157,2.7679,2.8318,2.9305,2.9856,3.0584,3.1813,3.2035,3.2269,3.3118,3.3553,3.4179,3.5138,3.5691,3.6347,3.7178,3.7421,3.748,3.748,3.748,3.748,3.748,3.748,3.748,3.748,3.748,3.748,3.748,3.748,3.748,3.748,3.748,3.748,3.7539,3.7685,3.8033,3.8408,3.8504,3.8821,3.9272,3.9272,3.9272,3.9272,3.9272,3.9272,3.9272,3.9272,3.9272,3.9272,3.9272,3.9272,3.9272,3.9272,3.9272,3.9272,3.9272,3.9272,3.9404,3.9934,4.0597,4.1222,4.1627,4.2378,4.3243,4.3923,4.4659,4.5053,4.4822,4.4764,4.501,4.5782,4.5923,4.5975,4.6186,4.627,4.6319,4.6319,4.6512,4.659,4.659,4.698,4.7178,4.707,4.7088,4.7025,4.698,4.707,4.707,4.707,4.716,4.716,4.707,4.707,4.707,4.6998,4.7294,4.7407,4.7407,4.7407,4.7338,1.6032,1.6271,1.6565,1.6863,0.0,0.0,1.9932,2.1367,2.2802,2.3702,2.4486,2.5197,2.5865,2.6504,2.7128,2.7781,2.8419,2.9276,3.0553,3.0727,3.1076,3.199,3.2514,3.3198,3.4149,3.514,3.5975,3.6711,3.7188,3.748,3.748,3.748,3.748,3.748,3.748,3.748,3.748,3.748,3.748,3.748,3.748,3.748,3.748,3.748,3.748,3.7524,3.7786,3.8017,3.8205,3.8335,3.8655,3.9094,3.9094,3.9094,3.9094,3.9272,3.9272,3.9272,3.9272,3.9272,3.9272,3.9272,3.9272,3.9272,3.9272,3.9272,3.9272,3.9272,3.9487,3.9901,4.0613,4.1342,4.1929,4.2122,4.2931,4.3804,4.4241,4.5009,4.5613,4.5544,4.5572,4.5712,4.6151,4.6172,4.6172,4.6172,4.6172,4.6172,4.6172,4.6172,4.6172,4.6172,4.6464,4.6655,4.6655,4.6655,4.6655,4.6655,4.6795,4.6842,4.6842,4.6934,4.6952,4.6842,4.6842,4.6842,4.6842,4.7053,4.7187,4.7187,4.7187,4.7116,1.6534,1.6522,1.6522,1.6552,1.7636,0.0,1.9505,2.0783,2.212,2.3325,2.363,2.3891,2.4559,2.5168,2.5792,2.646,2.7041,2.7842,2.9319,2.9523,2.9958,3.1224,3.1735,3.2317,3.3168,3.4621,3.553,3.5745,3.6833,3.748,3.748,3.748,3.748,3.748,3.748,3.748,3.748,3.748,3.748,3.748,3.748,3.748,3.748,3.7559,3.7591,3.765,3.7918,3.8126,3.8184,3.8447,3.8634,3.875,3.8805,3.8805,3.886,3.9164,3.9272,3.9272,3.9272,3.9272,3.9272,3.9272,3.9272,3.9272,3.9272,3.9272,3.9342,3.9425,3.9984,4.0763,4.1375,4.2088,4.2634,4.2634,4.3423,4.4253,4.431,4.4944,4.5632,4.6073,4.6172,4.6172,4.6172,4.6172,4.6172,4.6172,4.6172,4.6172,4.6172,4.6172,4.6172,4.6172,4.6172,4.6172,4.6172,4.6172,4.6172,4.6172,4.6398,4.6542,4.6542,4.6795,4.6795,4.6542,4.6542,4.6542,4.6542,4.6842,4.6952,4.6952,4.6952,4.6934,1.6647,1.6522,1.6607,1.6989,1.7514,0.0,1.9211,1.9971,2.0683,2.1409,2.1989,2.257,2.3163,2.3833,2.4471,2.511,2.5264,2.6213,2.8536,2.8869,2.9302,3.0378,3.0582,3.1459,3.3391,3.3867,3.4696,3.6153,3.701,3.748,3.748,3.748,3.748,3.748,3.748,3.748,3.748,3.748,3.748,3.748,3.748,3.748,3.7496,3.8065,3.8302,3.8349,3.8932,3.9354,3.963,3.9658,3.9237,3.8504,3.8711,3.8805,3.886,3.9164,3.9272,3.9272,3.9272,3.9272,3.9272,3.9272,3.9272,3.9272,3.9272,3.9272,3.9404,4.0001,4.1094,4.2137,4.227,4.285,4.3413,4.3413,4.3571,4.3848,4.4253,4.4708,4.5178,4.5632,4.5972,4.6172,4.6172,4.6172,4.6172,4.6172,4.6172,4.6172,4.6172,4.6172,4.6172,4.6172,4.6172,4.6172,4.6172,4.6172,4.6172,4.6172,4.627,4.627,4.627,4.6319,4.6319,4.627,4.627,4.627,4.627,4.6542,4.6684,4.6684,4.6684,4.6542,1.7099,1.6735,0.0,1.6778,0.0,0.0,0.0,1.9443,1.9993,2.0831,2.1264,2.1583,2.1917,2.2512,2.3049,2.3368,2.3949,2.482,2.6112,2.7325,2.8508,2.9688,3.0162,3.099,3.2501,3.3178,3.4321,3.6237,3.6753,3.7101,3.7464,3.748,3.748,3.748,3.748,3.748,3.748,3.748,3.748,3.748,3.7828,3.8002,3.8017,3.8697,3.9013,3.9029,3.9563,3.9829,4.0014,4.0014,3.9658,3.9162,3.917,3.9137,3.9128,3.9046,3.9164,3.9272,3.9272,3.9272,3.9272,3.9272,3.9272,3.9272,3.9272,3.9537,4.005,4.1143,4.1972,4.2601,4.2965,4.3346,4.3628,4.3628,4.3628,4.3671,4.3906,4.4276,4.4652,4.4889,4.5249,4.5684,4.6122,4.6172,4.6172,4.6172,4.6172,4.6172,4.6172,4.6172,4.6172,4.6172,4.6172,4.6172,4.6172,4.6172,4.6172,4.6172,4.6172,4.6172,4.6172,4.6023,4.5905,4.5905,4.6122,4.6172,4.6172,4.6319,4.6398,4.6398,4.6398,4.6319,0.0,0.0,0.0,0.0,0.0,1.7553,0.0,0.0,0.0,2.0443,2.0625,2.0669,2.0799,2.1264,2.1583,2.1452,2.2512,2.3296,2.318,2.5103,2.703,2.8589,2.9529,3.033,3.1176,3.241,3.3943,3.5868,3.6148,3.6542,3.7243,3.7401,3.748,3.748,3.748,3.748,3.748,3.748,3.748,3.7496,3.8175,3.8507,3.8539,3.9345,3.9708,3.9724,4.0117,4.0368,4.0414,4.0491,4.0491,4.0318,3.9817,3.9596,3.9583,3.9168,3.9199,3.9471,3.9322,3.9272,3.9272,3.9272,3.9425,3.9487,3.9487,4.01,4.1028,4.2187,4.2618,4.2866,4.3479,4.3628,4.3628,4.3628,4.3628,4.3628,4.3628,4.3964,4.431,4.431,4.4597,4.5125,4.5955,4.6073,4.6122,4.6172,4.6172,4.6172,4.6172,4.6172,4.6172,4.6172,4.6172,4.6172,4.6172,4.6172,4.6172,4.6172,4.6172,4.6172,4.6172,4.5803,4.558,4.5477,4.5854,4.6073,4.6073,4.6172,4.6172,4.6172,4.6172,4.6172,0.0,0.0,0.0,0.0,1.7535,1.7774,1.7882,0.0,1.9179,1.9304,0.0,1.9508,2.0088,0.0,0.0,1.9522,2.0494,2.1133,2.0611,2.2022,2.406,2.6534,2.7709,2.8728,2.9816,3.157,3.3232,3.4462,3.5321,3.6013,3.6474,3.7133,3.748,3.748,3.748,3.748,3.748,3.748,3.748,3.7496,3.8175,3.8507,3.8555,3.9882,4.0482,4.0514,4.1164,4.1612,4.1869,4.2203,4.214,4.1741,4.0446,4.0084,4.0345,3.9952,3.9972,4.0166,3.9557,3.9272,3.9272,3.9272,3.9719,4.0266,4.0266,4.121,4.2303,4.2469,4.2999,4.3512,4.3611,4.3628,4.3628,4.3628,4.3628,4.3628,4.3628,4.3964,4.431,4.431,4.4597,4.5072,4.558,4.5701,4.5803,4.6122,4.6172,4.6172,4.6172,4.6172,4.6172,4.6172,4.6172,4.6172,4.6172,4.6172,4.6172,4.6172,4.6172,4.6172,4.6172,4.5803,4.5407,4.4964,4.5407,4.5701,4.5684,4.6023,4.6172,4.6172,4.6172,4.6172,0.0,0.0,0.0,0.0,1.8423,1.8384,1.8011,1.819,1.8453,1.8375,0.0,0.0,0.0,0.0,0.0,0.0,1.9885,0.0,0.0,0.0,2.242,2.4537,2.5697,2.7057,2.8885,3.0835,3.2485,3.3603,3.4591,3.5486,3.6332,3.7101,3.748,3.748,3.748,3.748,3.748,3.748,3.7686,3.8081,3.876,3.9313,3.9756,4.0735,4.1178,4.1193,4.1462,4.1785,4.2109,4.2238,4.2238,4.2045,4.1643,4.1346,4.1031,4.0687,4.0713,4.0945,4.063,4.0514,4.0514,4.0514,4.0729,4.1061,4.1491,4.2038,4.2618,4.3048,4.338,4.3628,4.3628,4.3628,4.3628,4.3628,4.3628,4.3628,4.3628,4.373,4.3906,4.3906,4.4064,4.4276,4.478,4.5266,4.5632,4.5854,4.6073,4.6172,4.6172,4.6172,4.6172,4.6172,4.6172,4.6172,4.6172,4.6023,4.5955,4.6189,4.6172,4.6122,4.5854,4.5701,4.5477,4.5213,4.5372,4.5649,4.5955,4.6122,4.6172,4.6172,4.6172,4.6172,2.2284,2.1242,2.0175,1.9798,1.9459,1.9037,1.8578,1.8403,1.8347,1.8249,1.847,0.0,0.0,0.0,0.0,0.0,0.0,1.9696,0.0,1.9986,0.0,0.0,0.0,0.0,2.7967,2.9546,3.1118,3.2719,3.355,3.4592,3.6032,3.6801,3.7275,3.7464,3.748,3.748,3.748,3.748,3.7828,3.8523,3.9187,3.9882,4.0625,4.1288,4.1588,4.1588,4.1588,4.1785,4.2109,4.2109,4.2109,4.2109,4.2459,4.2278,4.1743,4.1406,4.1436,4.169,4.1475,4.1409,4.1409,4.1409,4.1558,4.1823,4.2353,4.2667,4.2932,4.3479,4.3628,4.3628,4.3628,4.3628,4.3628,4.3628,4.3628,4.3628,4.3628,4.3628,4.3628,4.3628,4.3628,4.373,4.4253,4.4835,4.5319,4.558,4.5854,4.6073,4.6189,4.6172,4.6172,4.6172,4.6172,4.6172,4.6172,4.5854,4.5684,4.5837,4.5837,4.5684,4.5266,4.5266,4.5159,4.4889,4.4889,4.5106,4.5477,4.5955,4.6172,4.6172,4.6172,4.6172,2.3916,2.2698,2.143,2.1405,2.0553,1.9651,1.966,1.9449,1.9251,1.9238,0.0,0.0,0.0,0.0,0.0,0.0,0.0,0.0,0.0,0.0,0.0,0.0,0.0,0.0,0.0,2.7375,2.8695,3.1517,3.1965,3.3044,3.5291,3.6074,3.6769,3.7464,3.748,3.748,3.748,3.748,3.7828,3.8523,3.9187,3.9882,4.0625,4.1288,4.1588,4.1588,4.1588,4.1785,4.2109,4.2109,4.2109,4.2109,4.2459,4.2569,4.2534,4.2125,4.2177,4.2386,4.1674,4.1409,4.1409,4.1409,4.1905,4.2485,4.2518,4.3015,4.3595,4.3611,4.3628,4.3628,4.3628,4.3628,4.3628,4.3628,4.3628,4.3628,4.3628,4.3628,4.3628,4.3628,4.3628,4.373,4.4253,4.4293,4.4614,4.5477,4.558,4.5752,4.6172,4.6172,4.6172,4.6172,4.6172,4.6172,4.6172,4.5854,4.5407,4.4964,4.4964,4.4763,4.435,4.4463,4.4293,4.3687,4.3687,4.3687,4.3671,4.5372,4.6172,4.6172,4.6172,4.6172,2.5724,2.4933,2.4029,2.3326,2.2885,2.2304,2.1179,2.057,2.0134,1.9699,0.0,0.0,0.0,0.0,0.0,0.0,0.0,0.0,0.0,0.0,0.0,0.0,0.0,0.0,0.0,0.0,0.0,0.0,3.1612,3.3277,3.5315,3.6058,3.6753,3.7464,3.748,3.748,3.748,3.748,3.8049,3.9171,3.9392,4.0119,4.1257,4.1494,4.1588,4.1588,4.1588,4.1654,4.1785,4.198,4.198,4.1851,4.2396,4.2459,4.2317,4.2635,4.2933,4.3214,4.2965,4.2883,4.2883,4.2883,4.3048,4.3247,4.3247,4.3429,4.3628,4.3628,4.3628,4.3628,4.3628,4.3628,4.3628,4.3628,4.3628,4.3628,4.3628,4.3628,4.3628,4.3628,4.3628,4.3628,4.3789,4.3848,4.4236,4.5424,4.558,4.5752,4.6172,4.6172,4.6172,4.6172,4.6172,4.6172,4.6172,4.5854,4.5319,4.4558,4.4746,4.4927,4.4998,4.4669,4.4763,4.5302,4.4162,4.3628,4.3628,4.4162,4.4763,4.5337,4.5955,4.6172,2.7143,2.6628,2.5988,2.5096,2.4607,2.4082,2.2968,2.2083,2.1499,2.1336,2.0566,0.0,0.0,0.0,0.0,0.0,0.0,0.0,0.0,1.9101,0.0,0.0,0.0,0.0,0.0,0.0,0.0,0.0,0.0,0.0,0.0,3.5537,3.6374,3.7085,3.7338,3.748,3.748,3.748,3.816,3.9503,3.9503,4.023,4.1588,4.1588,4.1588,4.1588,4.1588,4.1588,4.1588,4.1851,4.1785,4.1654,4.2222,4.2285,4.2174,4.2851,4.3295,4.3628,4.3628,4.3628,4.3628,4.3628,4.3628,4.3628,4.3628,4.3628,4.3628,4.3628,4.3628,4.3628,4.3628,4.3628,4.3628,4.3628,4.3628,4.3545,4.3297,4.323,4.3148,4.2883,4.2833,4.2891,4.3065,4.3165,4.3647,4.4947,4.5249,4.5511,4.5905,4.6122,4.6172,4.6172,4.6073,4.5854,4.5529,4.5266,4.4835,4.408,4.4276,4.4541,4.478,4.439,4.4558,4.5249,4.4162,4.3628,4.3628,4.3628,4.3889,4.4485,4.5354,4.5837]},{"header":{"parameterUnit":"m.s-1","parameterCategory":1,"la1":30.6,"la2":29.2853,"lo1":-89.7004,"lo2":-87.6739,"dx":0.0162,"dy":0.0183,"nx":112,"ny":82,"refTime":"2023-01-04T18:00:00:Z","depth":0,"parameterNumber":3,"parameterNumberName":"V-component_of_WINDS"},"data":[0.0,0.0,0.0,0.0,0.0,0.0,0.0,0.0,0.0,0.0,0.0,0.0,0.0,0.0,0.0,0.0,0.0,0.0,0.0,0.0,0.0,0.0,0.0,0.0,0.0,0.0,0.0,0.0,0.0,0.0,0.0,0.0,0.0,0.0,0.0,0.0,0.0,0.0,0.0,0.0,0.0,0.0,0.0,0.0,0.0,0.0,0.0,0.0,0.0,0.0,0.0,0.0,0.0,0.0,0.0,0.0,0.0,0.0,0.0,0.0,0.0,0.0,0.0,0.0,0.0,0.0,0.0,0.0,0.0,0.0,0.0,0.0,0.0,0.0,0.0,0.0,0.0,0.0,0.0,0.0,0.0,0.0,0.0,0.0,0.0,0.0,0.0,0.0,0.0,0.0,0.0368,-0.0723,-0.0198,0.0399,0.0923,0.1535,0.1973,0.2224,0.0,0.0,0.0,0.0,0.0,0.0,0.0,0.0,0.0,0.0,0.0,0.0,0.0,0.0,0.0,0.0,0.0,0.0,0.0,0.0,0.0,0.0,0.0,0.0,0.0,0.0,0.0,0.0,0.0,0.0,0.0,0.0,0.0,0.0,0.0,0.0,0.0,0.0,0.0,0.0,0.0,0.0,0.0,0.0,0.0,0.0,0.0,0.0,0.0,0.0,0.0,0.0,0.0,0.0,0.0,0.0,0.0,0.0,0.0,0.0,0.0,0.0,0.0,0.0,0.0,0.0,0.0,0.0,0.0,0.0,0.0,0.0,0.0,0.0,0.0,0.0,0.0,0.0,0.0,0.0,0.0,0.0,0.0,0.0,0.0,0.0,0.0,0.0,0.0,0.0,0.0,0.0,0.0,0.0,0.0,0.0,0.0,0.0,0.0,0.0,0.0,0.0,0.0,0.0,0.0145,-0.0104,0.0615,0.1171,0.1303,0.168,0.1996,0.2262,0.0,0.0,0.0,0.0,0.0,0.0,0.0,0.0,0.0,0.0,0.0,0.0,0.0,0.0,0.0,0.0,0.0,0.0,0.0,0.0,0.0,0.0,0.0,0.0,0.0,0.0,0.0,0.0,0.0,0.0,0.0,0.0,0.0,0.0,0.0,0.0,0.0,0.0,0.0,0.0,0.0,0.0,0.0,0.0,0.0,0.0,0.0,0.0,0.0,0.0,0.0,0.0,0.0,0.0,0.0,0.0,0.0,0.0,0.0,0.0,0.0,0.0,0.0,0.0,0.0,0.0,0.0,0.0,0.0,0.0,0.0,0.0,0.0,0.0,0.0,0.0,0.0,0.0,0.0,0.0,0.0,0.0,0.0,0.0,0.0,0.0,0.0,0.0,0.0,0.0,0.0,0.0,0.0,0.0,0.0,0.0,0.0,0.0,0.0,0.0,0.0,0.0,0.0,-0.0,-0.0103,0.0053,0.0746,0.1333,0.1753,0.2026,0.219,0.2285,0.2029,0.0,0.0,0.0,0.0,0.0,0.0,0.0,0.0,0.0,0.0,0.0,0.0,0.0,0.0,0.0,0.0,0.0,0.0,0.0,0.0,0.0,0.0,0.0,0.0,0.0,0.0,0.0,0.0,0.0,0.0,0.0,0.0,0.0,0.0,0.0,0.0,0.0,0.0,0.0,0.0,0.0,0.0,0.0,0.0,0.0,0.0,0.0,0.0,0.0,0.0,0.0,0.0,0.0,0.0,0.0,0.0,0.0,0.0,0.0,0.0,0.0,0.0,0.0,0.0,0.0,0.0,0.0,0.0,0.0,0.0,0.0,0.0,0.0,0.0,0.0,0.0,0.0,0.0,0.0,0.0,0.0,0.0,0.0,0.0,0.0,0.0,0.0,0.0,0.0,0.0,0.0,0.0,0.0,0.0,0.0,0.0,0.0,0.0,0.0,0.0,0.0,0.0,0.0051,0.0107,0.0431,0.0936,0.1549,0.2212,0.2345,0.2409,0.2319,0.2062,0.0,0.0,0.0,0.0,0.0,0.0,0.0,0.0,0.0,0.0,0.0,0.0,0.0,0.0,0.0,0.0,0.0,0.0,0.0,0.0,0.0,0.0,0.0,0.0,0.0,0.0,0.0,0.0,0.0,0.0,0.0,0.0,0.0,0.0,0.0,0.0,0.0,0.0,0.0,0.0,0.0,0.0,0.0,0.0,0.0,0.0,0.0,0.0,0.0,0.0,0.0,0.0,0.0,0.0,0.0,0.0,0.0,0.0,0.0,0.0,0.0,0.0,0.0,0.0,0.0,0.0,0.0,0.0,0.0,0.0,0.0,0.0,0.0,0.0,0.0,0.0,0.0,0.0,0.0,0.0,0.0,0.0,0.0,0.0,0.0,0.0,0.0,0.0,0.0,0.0,0.0,0.0,0.0,0.0,0.0,0.0,0.0,0.0,0.0,0.0,0.0,0.0,0.0935,0.124,0.1445,0.1676,0.2014,0.2625,0.2597,0.2505,0.2413,0.2156,0.0,0.0,0.0,0.0,0.0,0.0,0.0,0.0,0.0,0.0,0.0,0.0,0.0,0.0,0.0,0.0,0.0,0.0,0.0,0.0,0.0,0.0,0.0,0.0,0.0,0.0,0.0,0.0,0.0,0.0,0.0,0.0,0.0,0.0,0.0,0.0,0.0,0.0,0.0,0.0,0.0,0.0,0.0,0.0,0.0,0.0,0.0,0.0,0.0,0.0,0.0,0.0,0.0,0.0,0.0,0.0,0.0,0.0,0.0,0.0,0.0,0.0,0.0,0.0,0.0,0.0,0.0,0.0,0.0,0.0,0.0,0.0,0.0,0.0,0.0,0.0,0.0,0.0,0.0,0.0,0.0,0.0,0.0,0.0,0.0,0.0,0.0,0.0,0.0,0.0,0.0,0.0,0.0,0.0,0.0,0.0,0.0,0.0,0.0,0.0,0.0,0.0,0.0903,0.1272,0.1284,0.1621,0.2071,0.2635,0.2661,0.2567,0.2423,0.0,0.0,0.0,0.0,0.0,0.0,0.0,0.0,0.0,0.0,0.0,0.0,0.0,0.0,0.0,0.0,0.0,0.0,0.0,0.0,0.0,0.0,0.0,0.0,0.0,0.0,0.0,0.0,0.0,0.0,0.0,0.0,0.0,0.0,0.0,0.0,0.0,0.0,0.0,0.0,0.0,0.0,0.0,0.0,0.0,0.0,0.0,0.0,0.0,0.0,0.0,0.0,0.0,0.0,0.0,0.0,0.0,0.0,0.0,0.0,0.0,0.0,0.0,0.0,0.0,0.0,0.0,0.0,0.0,0.0,0.0,0.0,0.0,0.0,0.0,0.0,0.0,0.0,0.0,0.0,0.0,0.0,0.0,0.0,0.0,0.0,0.0,0.0,0.0,0.0,0.0,0.0,0.0,0.0,0.0,0.0,0.0,0.0,0.0,0.0,0.0,0.0,0.0703,0.1182,0.1569,0.1621,0.179,0.2127,0.2635,0.2634,0.2558,0.2466,0.0,0.0,0.0,0.0,0.0,0.0,0.0,0.0,0.0,0.0,0.0,0.0,0.0,0.0,0.0,0.0,0.0,0.0,0.0,0.0,0.0,0.0,0.0,0.0,0.0,0.0,0.0,0.0,0.0,0.0,0.0,0.0,0.0,0.0,0.0,0.0,0.0,0.0,0.0,0.0,0.0,0.0,0.0,0.0,0.0,0.0,0.0,0.0,0.0,0.0,0.0,0.0,0.0,0.0,0.0,0.0,0.0,0.0,0.0,0.0,0.0,0.0,0.0,0.0,0.0,0.0,0.0,0.0,0.0,0.0,0.0,0.0,0.0,0.0,0.0,0.0,0.0,0.0,0.0,0.0,0.0,0.0,0.0,0.0,0.0,0.0,0.0,0.0,0.0,0.0,0.0,0.0,0.0,0.0,0.0,0.0,0.0,0.0,0.0,0.0,0.0,0.0,0.1709,0.1987,0.2352,0.2635,0.2408,0.2352,0.2691,0.2691,0.2652,0.0,0.0,0.0,0.0,0.0,0.0,0.0,0.0,0.0,0.0,0.0,0.0,0.0,0.0,0.0,0.0,0.0,0.0,0.0,0.0,0.0,0.0,0.0,0.0,0.0,0.0,0.0,0.0,0.0,0.0,0.0,0.0,0.0,0.0,0.0,0.0,0.0,0.0,0.0,0.0,0.0,0.0,0.0,0.0,0.0,0.0,0.0,0.0,0.0,0.0,0.0,0.0,0.0,0.0,0.0,0.0,0.0,0.0,0.0,0.0,0.0,0.0,0.0,0.0,0.0,0.0,0.0,0.0,0.0,0.0,0.0,0.0,0.0,0.0,0.0,0.0,0.0,0.0,0.0,0.0,0.0,0.0,0.0,0.0,0.0,0.0,0.0,0.0,0.0,0.0,0.0,0.0,0.0,0.0,0.0,0.0,0.0,0.0,0.0,0.0,0.0,0.0,0.0,0.1724,0.2017,0.224,0.2352,0.224,0.2352,0.2691,0.2691,0.2652,0.2613,0.0,0.0,0.0,0.0,0.0,0.0,0.0,0.0,0.0,0.0,0.0,0.0,0.0,0.0,0.0,0.0,0.0,0.0,0.0,0.0,0.0,0.0,0.0,0.0,0.0,0.0,0.0,0.0,0.0,0.0,0.0,0.0,0.0,0.0,0.0,0.0,0.0,0.0,0.0,0.0,0.0,0.0,0.0,0.0,0.0,0.0,0.0,0.0,0.0,0.0,0.0,0.0,0.0,0.0,0.0,0.0,0.0,0.0,0.0,0.0,0.0,0.0,0.0,0.0,0.0,0.0,0.0,0.0,0.0,0.0,0.0,0.0,0.0,0.0,0.0,0.0,0.0,0.0,0.0,0.0,0.0,0.0,0.0,0.0,0.0,0.0,0.0,0.0,0.0,0.0,0.0,0.0,0.0,0.0,0.0,0.0,0.0,0.0,0.0,0.0,0.0,0.0,0.1961,0.2196,0.2408,0.2408,0.2408,0.2465,0.2691,0.2691,0.2668,0.2665,0.0,0.0,0.0,0.0,0.0,0.0,0.0,0.0,0.0,0.0,0.0,0.0,0.0,0.0,0.0,0.0,0.0,0.0,0.0,0.0,0.0,0.0,0.0,0.0,0.0,0.0,0.0,0.0,0.0,0.0,0.0,0.0,0.0,0.0,0.0,0.0,0.0,0.0,0.0,0.0,0.0,0.0,0.0,0.0,0.0,0.0,0.0,0.0,0.0,0.0,0.0,0.0,0.0,0.0,0.0,0.0,0.0,0.0,0.0,0.0,0.0,0.0,0.0,0.0,0.0,0.0,0.0,0.0,0.0,0.0,0.0,0.0,0.0,0.0,0.0,0.0,0.0,0.0,0.0,0.0,0.0,0.0,0.0,0.0,0.0,0.0,0.0,0.0,0.0,0.0,0.0,0.0,0.0,0.0,0.0,0.0,0.0,0.0,0.0,0.0,0.0,0.0,0.2287,0.2536,0.2703,0.2703,0.2711,0.2715,0.2715,0.2707,0.2703,0.2703,0.0,0.0,0.0,0.0,0.0,0.0,0.0,0.0,0.0,0.0,0.0,0.0,0.0,0.0,0.0,0.0,0.0,0.0,0.0,0.0,0.0,0.0,0.0,0.0,0.0,0.0,0.0,0.0,0.0,0.0,0.0,0.0,0.0,0.0,0.0,0.0,0.0,0.0,0.0,0.0,0.0,0.0,0.0,0.0,0.0,0.0,0.0,0.0,0.0,0.0,0.0,0.0,0.0,0.0,0.0,0.0,0.0,0.0,0.0,0.0,0.7975,0.6682,0.0,0.0,0.0,0.0,0.0,0.0,0.0,0.0,0.0,0.0,0.0,0.0,0.0,0.0,0.0,0.0,0.0,0.0,0.0,0.0,0.0,0.0,0.0,0.0,0.0,0.0,0.0,0.0,0.0,0.0,0.0,0.0,0.0,0.0,0.0,0.0,0.0,0.0,0.0,0.0,0.2648,0.2683,0.2797,0.2797,0.2858,0.2959,0.2959,0.2838,0.2797,0.2797,0.2644,0.0,0.0,0.0,0.0,0.0,0.0,0.0,0.0,0.0,0.0,0.0,0.0,0.0,0.0,0.0,0.0,0.0,0.0,0.0,0.0,0.0,0.0,0.0,0.0,0.0,0.0,0.0,0.0,0.0,0.0,0.0,0.0,0.0,0.0,0.0,0.0,0.0,0.0,0.0,0.0,0.0,0.0,0.0,0.0,0.0,0.0,0.0,0.0,0.0,0.0,0.0,0.0,0.0,0.0,0.0,0.0,0.0,0.0,0.0,0.8907,0.7912,0.0,0.0,0.0,0.0,0.0,0.0,0.0,0.0,0.0,0.0,0.0,0.0,0.0,0.0,0.0,0.0,0.0,0.0,0.0,0.0,0.0,0.0,0.0,0.0,0.0,0.0,0.0,0.0,0.0,0.0,0.0,0.0,0.0,0.0,0.0,0.0,0.0,0.0,0.0,0.0,0.2801,0.2834,0.2889,0.2889,0.2988,0.3015,0.3015,0.2913,0.2889,0.2889,0.276,0.0,0.0,0.0,0.0,0.0,0.0,0.0,0.0,0.0,0.0,0.0,0.0,0.0,0.0,0.0,0.0,0.0,0.0,0.0,0.0,0.0,0.0,0.0,0.0,0.0,0.0,0.0,0.0,0.0,0.0,0.0,0.0,0.0,0.0,0.0,0.0,0.0,0.0,0.0,0.0,0.0,0.0,0.0,0.0,0.0,0.0,0.0,0.0,0.0,0.0,0.0,0.0,0.0,0.9424,0.9906,1.0723,1.0723,1.0771,1.0785,0.9757,0.9161,0.8893,0.8018,0.0,0.0,0.0,0.0,0.0,0.0,0.0,0.0,0.0,0.0,0.0,0.0,0.0,0.0,0.0,0.0,0.0,0.0,0.0,0.0,0.0,0.0,0.4897,0.4897,0.4897,0.482,0.4524,0.0,0.0,0.0,0.0,0.0,0.0,0.0,0.0,0.0,0.0,0.0,0.2956,0.2924,0.3045,0.3061,0.3078,0.3095,0.3111,0.3082,0.3063,0.3063,0.2905,0.2809,0.0,0.0,0.0,0.0,0.0,0.0,0.0,0.0,0.0,0.0,0.0,0.0,0.0,0.0,0.0,0.0,0.0,0.0,0.0,0.0,0.0,0.0,0.0,0.0,0.0,0.0,0.0,0.0,0.0,0.0,0.0,0.0,0.646,0.6714,0.0,0.0,0.0,0.0,0.0,0.0,0.0,0.0,0.0,0.0,0.0,0.0,0.0,0.9314,0.8859,0.9747,1.0238,1.021,1.0706,1.128,1.1895,1.1895,1.2141,1.2531,1.1932,0.0,0.9265,0.9407,0.0,0.0,0.0,0.0,0.0,0.0,0.0,0.0,0.0,0.0,0.0,0.0,0.0,0.0,0.0,0.0,0.0,0.0,0.0,0.0,0.0,0.0,0.5229,0.5229,0.5229,0.5217,0.5169,0.4927,0.4763,0.4739,0.4751,0.482,0.0,0.0,0.0,0.0,0.0,0.0,0.3047,0.3015,0.3103,0.3183,0.3262,0.3342,0.3422,0.3283,0.3191,0.3191,0.3032,0.2899,0.2813,0.2721,0.0,0.0,0.0,0.0,0.0,0.0,0.0,0.0,0.0,0.0,0.0,0.0,0.0,0.0,0.0,0.0,0.0,0.0,0.0,0.0,0.0,0.0,0.0,0.0,0.0,0.0,0.0,0.0,0.0,0.6684,0.7085,0.7304,0.7915,0.8248,0.0,0.0,0.0,0.0,0.0,0.0,0.0,0.0,0.0,0.9022,0.9396,0.9505,0.9358,1.0305,1.0943,1.1264,1.2044,1.2675,1.3214,1.3214,1.3214,1.311,1.2902,1.2164,1.109,1.0672,1.0205,0.9725,0.0,0.0,0.0,0.0,0.8553,0.85,0.8535,0.849,0.8293,0.7962,0.0,0.0,0.0,0.0,0.0,0.0,0.0,0.5405,0.5506,0.5596,0.5657,0.5657,0.5657,0.5657,0.5657,0.5527,0.5381,0.5279,0.5259,0.5316,0.5502,0.5535,0.0,0.0,0.0,0.4264,0.3616,0.3433,0.3336,0.3377,0.3416,0.3456,0.3497,0.3426,0.3358,0.3307,0.3179,0.3066,0.2979,0.2842,0.2817,0.0,0.0,0.0,0.0,0.0,0.0,0.0,0.0,0.0,0.0,0.0,0.0,0.0,0.0,0.0,0.0,0.0,0.0,0.0,0.0,0.0,0.0,0.0,0.0,0.0,0.0,0.0,0.0,0.7493,0.77,0.8029,0.8626,0.8936,0.0,0.0,0.0,0.0,0.0,0.0,0.9096,0.9419,0.9492,0.9286,0.9562,0.9828,1.0128,1.0971,1.1701,1.2281,1.3112,1.3692,1.4077,1.4077,1.3863,1.3476,1.3476,1.3304,1.2823,1.1799,1.1154,1.0737,1.0483,1.0121,0.9763,0.961,0.9408,0.9297,0.9631,0.9559,0.9357,0.8885,0.884,0.8795,0.7781,0.0,0.0,0.0,0.0,0.5713,0.5852,0.5921,0.5953,0.5953,0.599,0.6022,0.6022,0.6022,0.5957,0.5726,0.5681,0.5726,0.5864,0.5925,0.0,0.5392,0.5117,0.4824,0.4382,0.4121,0.4014,0.404,0.3898,0.3763,0.3789,0.362,0.3503,0.3436,0.3346,0.3244,0.313,0.2999,0.2983,0.3119,0.0,0.0,0.0,0.0,0.0,0.0,0.0,0.0,0.0,0.0,0.0,0.0,0.0,0.0,0.0,0.0,0.0,0.0,0.0,0.0,0.0,0.0,0.0,0.0,0.0,0.0,0.0,0.0,0.0,0.9345,0.9296,0.0,0.0,0.0,0.0,0.8855,0.904,0.922,0.9349,0.9533,0.9731,1.0046,1.0068,1.0551,1.1503,1.2078,1.263,1.3222,1.379,1.4077,1.4077,1.4077,1.4077,1.4077,1.4077,1.4024,1.3961,1.2878,1.2422,1.2312,1.1583,1.1375,1.1399,1.06,1.0422,1.0514,1.0536,1.0528,1.0514,1.0457,1.0001,0.9477,0.9362,0.8317,0.0,0.0,0.6813,0.5876,0.5888,0.6072,0.6195,0.6195,0.6266,0.6392,0.6392,0.6392,0.629,0.5941,0.5872,0.5876,0.5888,0.0,0.5994,0.5636,0.5738,0.5693,0.5409,0.5294,0.5349,0.5396,0.4891,0.4566,0.4598,0.3975,0.3618,0.3614,0.3534,0.3405,0.3226,0.3211,0.3085,0.2826,0.3062,0.0,0.0,0.0,0.0,0.0,0.0,0.0,0.0,0.0,0.0,0.0,0.0,0.0,0.0,0.0,0.0,0.0,0.0,0.0,0.0,0.0,0.0,0.0,0.0,0.0,0.0,0.0,0.0,0.9278,0.9564,0.0,0.9255,0.9677,0.9872,0.9633,0.9715,0.9907,1.0173,1.0243,1.0294,1.0411,1.086,1.1264,1.1616,1.309,1.3905,1.4144,1.5233,1.5751,1.5751,1.5751,1.5751,1.5751,1.5751,1.5492,1.5051,1.4617,1.3667,1.2381,1.1648,1.1205,1.0929,1.0644,1.053,1.0587,1.0587,1.0587,1.0587,1.0358,0.9904,0.9509,0.9396,0.8851,0.8264,0.8553,0.8339,0.7987,0.8129,0.7827,0.7478,0.7478,0.7125,0.6761,0.6761,0.6761,0.6725,0.6599,0.6477,0.6432,0.6554,0.6623,0.6615,0.6541,0.6339,0.6103,0.6012,0.5812,0.5712,0.5758,0.568,0.5669,0.5635,0.4965,0.4477,0.4404,0.4305,0.4111,0.3966,0.4235,0.4295,0.4229,0.4148,0.4036,0.0,0.0,0.0,0.0,0.0,0.0,0.0,0.0,0.0,0.0,0.0,0.0,0.0,0.0,0.0,0.0,0.0,0.0,0.0,0.0,0.0,0.0,0.0,0.0,0.0,0.9414,0.9509,0.9585,0.9864,0.9959,0.9813,1.0204,1.0417,1.0306,1.0265,1.036,1.0572,1.0697,1.0916,1.132,1.1846,1.2437,1.3025,1.4357,1.5107,1.5308,1.6258,1.6665,1.6665,1.6665,1.6665,1.6665,1.6665,1.6402,1.5936,1.5735,1.4852,1.3436,1.2476,1.1879,1.1533,1.1299,1.1238,1.1238,1.1238,1.1238,1.1177,1.0995,1.0691,1.0408,1.0225,0.9839,0.9489,0.953,0.9378,0.9138,0.9018,0.8624,0.8203,0.7988,0.7617,0.7315,0.7297,0.7309,0.7309,0.7309,0.7017,0.6876,0.7003,0.7005,0.6993,0.6826,0.6832,0.6729,0.6549,0.6579,0.6623,0.6623,0.6548,0.6523,0.6523,0.5615,0.5127,0.5286,0.4857,0.4741,0.4847,0.4862,0.4843,0.4754,0.4498,0.4421,0.4578,0.0,0.0,0.0,0.0,0.0,0.0,0.0,0.0,0.0,0.0,0.0,0.0,0.0,0.0,0.0,0.0,0.0,0.0,0.0,0.0,0.0,0.0,0.0,1.0542,1.0124,0.9974,1.0372,1.0242,1.0119,1.0119,1.0411,1.0609,1.0616,1.0631,1.0638,1.0646,1.0946,1.1624,1.2691,1.3035,1.4072,1.579,1.5808,1.6147,1.6748,1.6777,1.6787,1.6787,1.6743,1.6753,1.6753,1.6753,1.6743,1.6679,1.6139,1.5873,1.567,1.4107,1.3502,1.3435,1.2721,1.2519,1.2519,1.2519,1.2519,1.2519,1.2519,1.239,1.2194,1.2072,1.1456,1.0761,1.0565,1.0009,0.9308,0.8548,0.8336,0.8314,0.7685,0.7717,0.7813,0.7975,0.8012,0.8012,0.8012,0.7456,0.706,0.706,0.7135,0.708,0.6549,0.7257,0.0,0.7087,0.7604,0.802,0.7938,0.745,0.7123,0.7123,0.5871,0.5452,0.6194,0.5415,0.5132,0.5799,0.5126,0.4575,0.4407,0.4111,0.4382,0.5236,0.0,0.0,0.0,0.0,0.0,0.0,0.0,0.0,0.0,0.0,0.0,0.0,0.0,0.0,0.0,0.0,0.0,0.0,0.0,0.0,0.0,1.1197,1.1003,1.0537,1.02,1.0181,1.069,1.0582,1.0455,1.0455,1.0748,1.1041,1.1336,1.1509,1.1736,1.1977,1.2072,1.2495,1.3371,1.3908,1.4716,1.5799,1.6569,1.7067,1.7207,1.7822,1.8115,1.8125,1.8437,1.8584,1.8584,1.8584,1.8302,1.7797,1.7583,1.7207,1.6499,1.4451,1.3659,1.3526,1.2788,1.2519,1.2519,1.2519,1.2519,1.2451,1.239,1.2474,1.2564,1.2649,1.2503,1.2418,1.2556,1.1928,1.1082,1.0855,0.988,0.8918,0.8733,0.8307,0.7955,0.8004,0.8012,0.8012,0.8012,0.7858,0.7724,0.7724,0.7764,0.7733,0.7615,0.7748,0.7877,0.7761,0.8046,0.8042,0.7451,0.7382,0.7361,0.7361,0.6484,0.6257,0.7017,0.6712,0.6532,0.6735,0.6713,0.6566,0.6242,0.5693,0.5706,0.0,0.0,0.0,0.0,0.0,0.0,0.0,0.0,0.0,0.0,0.0,0.0,0.0,0.0,0.0,0.0,0.0,0.0,0.0,0.0,0.0,0.0,1.1421,1.126,1.0883,1.0514,1.0413,1.0737,1.0942,1.0997,1.0997,1.1414,1.1758,1.1948,1.2138,1.2321,1.2511,1.2908,1.3528,1.4346,1.5316,1.6161,1.6968,1.7813,1.8184,1.8184,1.8672,1.8906,1.8916,1.917,1.9287,1.9287,1.9287,1.9068,1.8701,1.8701,1.8387,1.7759,0.0,0.0,0.0,0.0,1.3338,1.3338,1.3338,1.3338,1.3338,1.3273,1.3244,1.335,1.3304,1.3251,1.3192,1.3304,1.2876,1.232,1.1994,1.1094,1.0308,0.9998,0.9606,0.9133,0.8893,0.8826,0.8657,0.8328,0.8243,0.0,0.8243,0.8113,0.7954,0.7697,0.7963,0.807,0.7801,0.8166,0.8233,0.7797,0.788,0.7937,0.7937,0.7232,0.0,0.0,0.0,0.7097,0.7112,0.7254,0.0,0.0,0.0,0.6482,0.6907,0.6517,0.0,0.0,0.5844,0.5758,0.0,0.0,0.0,0.0,0.0,0.0,0.0,0.0,0.0,0.0,0.0,0.0,0.0,0.0,0.0,0.0,1.1353,1.1178,1.1494,1.1095,1.0835,1.082,1.1328,1.167,1.167,1.2219,1.2577,1.2577,1.2643,1.2687,1.2816,1.3731,0.0,0.0,0.0,1.7918,1.864,1.9092,1.9287,1.9287,1.9336,1.9355,1.9365,1.9404,1.9434,1.9434,1.9434,1.9434,1.9434,1.9434,1.936,1.912,1.7578,1.6405,1.5496,1.4769,1.4472,1.4472,1.4472,0.0,0.0,1.4472,1.4387,1.4237,1.4023,1.3787,1.3564,1.3453,1.3307,1.3061,1.232,1.1992,1.1804,1.12,1.0999,1.0805,1.0077,0.9859,0.9602,0.874,0.858,0.8597,0.8597,0.8308,0.7879,0.7439,0.7893,0.8205,0.765,0.8208,0.8564,0.8476,0.8476,0.0,0.8476,0.7848,0.7845,0.8564,0.7805,0.7303,0.7228,0.7221,0.714,0.6973,0.6838,0.693,0.7313,0.7151,0.7142,0.7062,0.6317,0.6152,0.0,0.0,0.0,0.0,0.0,0.0,0.0,0.0,0.0,0.0,0.0,0.0,0.0,0.0,0.0,1.2121,1.2134,1.213,1.2192,1.219,1.2077,1.2027,1.2191,1.2336,1.2336,1.2687,1.2914,1.2914,1.3404,1.3992,1.4718,1.5165,1.6088,1.7597,1.7908,1.8422,1.916,1.9248,1.9287,1.9287,1.9629,0.0,1.9805,2.0156,2.0312,2.0312,2.0312,2.0312,2.0312,2.0312,1.9927,1.9155,1.7573,1.6049,1.4691,1.4543,1.4472,1.4472,1.4472,1.4472,1.4472,1.4472,1.4465,1.4438,1.4612,1.4517,0.0,1.4413,1.3888,1.3213,1.2716,1.2199,1.1691,1.1326,1.1252,1.101,1.0111,0.9859,0.9602,0.874,0.8678,0.8771,0.8771,0.8597,0.8471,0.8333,0.8428,0.8524,0.8384,0.8476,0.8384,0.7757,0.7757,0.7757,0.7757,0.7577,0.7845,0.8564,0.8448,0.8257,0.8074,0.807,0.7983,0.78,0.7764,0.7732,0.7862,0.7825,0.7809,0.7793,0.7074,0.6857,0.0,0.0,0.0,0.0,0.0,0.0,0.0,0.0,0.0,0.0,0.0,1.2958,1.2942,0.0,1.2724,1.2373,1.2358,1.2406,1.2436,1.2587,1.2652,1.2477,1.2594,1.2833,1.2994,1.3301,1.3565,1.3726,1.404,1.4599,1.5479,1.601,1.6876,1.8175,1.8742,1.9228,1.96,1.9814,1.9922,1.9932,2.0137,2.0244,2.0244,2.0469,2.0566,2.0566,2.0566,2.0566,2.0566,2.0566,2.0089,1.9256,1.8378,1.705,1.5568,1.5102,1.4948,1.4948,1.4948,1.4948,1.4948,1.4948,1.4948,1.4977,1.4974,1.4936,1.4799,1.4699,1.4307,1.388,1.3633,1.3209,1.2869,1.2699,1.2807,1.2551,1.1056,1.1238,1.1237,0.9547,0.9527,0.9588,0.9413,0.9067,0.8832,0.8832,0.8832,0.8832,0.8832,0.8832,0.8737,0.8367,0.8276,0.8276,0.8276,0.8276,0.8422,0.8698,0.8694,0.8613,0.8438,0.843,0.8385,0.8292,0.8199,0.8234,0.848,0.8139,0.8098,0.8336,0.7729,0.7533,0.0,0.0,0.0,0.0,0.0,0.0,0.0,1.3278,1.3152,1.3852,1.388,1.3698,1.3504,1.3433,1.3283,1.2834,1.2867,1.2964,1.3073,1.3431,1.3512,1.3033,1.3101,1.3323,1.3653,1.3923,1.4256,1.4669,1.4829,1.5234,1.6283,1.697,1.7792,1.8639,1.9562,2.0039,2.0039,2.0391,2.0566,2.0566,2.0566,2.0566,2.0566,2.0654,2.0693,2.0703,2.0781,2.082,2.082,2.082,2.0337,1.9522,1.9448,1.8432,1.6958,1.617,1.5831,1.5665,1.5665,1.5506,1.5431,1.5431,1.5431,1.5347,1.5173,1.5173,1.509,1.4824,1.4657,1.458,1.4558,1.4494,1.4358,1.4412,1.4609,1.4239,1.2532,1.2974,1.3121,1.0935,1.0589,1.0612,1.0259,0.9643,0.9177,0.9108,0.9096,0.9096,0.9096,0.9096,0.9096,0.9096,0.9096,0.9096,0.9096,0.9096,0.9035,0.8885,0.8873,0.8812,0.8674,0.867,0.867,0.867,0.8524,0.862,0.9044,0.8462,0.8396,0.8737,0.8396,0.8166,1.4619,1.4458,1.4571,1.4731,1.4661,1.4528,0.0,1.4422,1.4233,1.43,1.4178,1.3974,1.3774,1.4084,1.424,1.3993,1.4499,1.4967,1.4985,1.5596,1.573,1.4885,1.4283,1.4004,1.4326,1.4392,1.4724,1.5488,1.5858,1.674,1.8384,1.8806,1.9399,2.0265,2.0469,2.0498,2.0498,2.0537,2.0566,2.0566,2.0566,2.0566,2.0576,2.0977,2.1162,2.1182,2.1572,2.1738,2.1738,2.1738,2.1224,2.0412,1.9962,1.9235,1.836,1.7874,1.7188,1.6535,1.6535,1.6064,1.5431,1.5431,1.5431,1.5431,1.5347,1.5347,1.5347,1.509,1.5173,1.5238,1.5162,1.524,1.5411,1.5504,1.5499,1.5253,1.4244,1.4084,1.3929,1.2836,1.1899,1.1194,1.1104,1.0219,0.9462,0.9145,0.9096,0.9096,0.9096,0.9096,0.9096,0.9096,0.9096,0.9096,0.9096,0.9096,0.9088,0.9068,0.9064,0.9056,0.9039,0.9039,0.9039,0.9039,0.9015,0.9007,0.9099,0.8986,0.8978,0.907,0.8978,0.8718,1.535,1.5018,1.4933,1.5357,1.4989,1.4666,1.5128,1.4891,1.4676,1.4824,1.475,1.4605,1.4688,1.4759,1.4834,1.482,1.505,1.5274,1.5213,1.5454,1.5509,1.5017,1.4687,1.4596,1.4735,1.5196,1.5732,1.6238,1.6869,1.7757,1.9045,1.921,1.9696,2.0566,2.082,2.0957,2.0957,2.1201,2.1338,2.1338,2.1338,2.1338,2.1338,2.1533,2.1611,2.1621,2.1807,2.1885,2.1885,2.1885,2.1709,2.1349,2.1167,2.0495,1.949,1.7803,1.7025,1.6617,1.6139,1.5665,1.5431,1.5431,1.5431,1.5431,1.5431,1.5431,1.5384,1.5573,1.5539,1.5526,1.5661,1.5651,1.5687,1.5725,1.5805,1.5749,1.4728,1.5134,1.5252,1.3755,1.3182,1.2677,1.2203,1.0937,1.0066,0.9908,0.9598,0.9405,0.9405,0.9405,0.9405,0.9405,0.9405,0.9405,0.9405,0.9405,0.936,0.9254,0.9246,0.9202,0.91,0.9096,0.9283,0.9562,0.9558,0.9837,1.0482,1.0116,1.0209,1.0389,1.0116,0.971,1.6348,1.5914,1.5637,1.5898,1.5454,1.5038,1.5415,1.5311,1.519,1.5386,1.5352,1.5322,1.5514,1.5632,1.5716,1.5574,1.5683,1.5635,1.5414,1.551,1.5659,1.5651,1.5725,1.5786,1.5859,1.6165,1.6501,1.7001,1.7836,1.8851,1.9855,1.9865,2.0169,2.0997,2.124,2.1416,2.1416,2.1728,2.1967,2.1967,2.1967,2.205,2.2142,2.2178,2.2286,2.2404,2.2404,2.2404,2.2404,2.232,2.232,2.231,2.2109,2.1623,2.0745,1.8545,1.7399,1.6893,1.6156,1.5723,1.5548,1.546,1.5489,1.5562,1.5562,1.5621,1.5738,1.5972,1.5951,1.585,1.6166,1.6149,1.6081,1.6076,1.6366,1.6246,1.5491,1.6133,1.6386,1.5045,1.4567,1.4088,1.3323,1.1868,1.0895,1.0605,1.0314,0.992,0.9628,0.9628,0.9628,0.9628,0.9628,0.9628,0.9628,0.9628,0.9571,0.9437,0.9429,0.9468,0.9436,0.9432,0.9716,1.0279,1.0279,1.0655,1.1308,1.1027,1.0937,1.112,1.0749,1.0373,1.7892,1.7581,1.7085,1.6528,1.6516,1.6418,1.5569,1.5727,1.6016,1.5908,1.5989,1.6096,1.6055,1.6768,1.7071,1.6324,1.6519,1.6711,1.6259,1.6553,1.7004,1.7536,1.7757,1.7971,1.8204,1.7245,1.7009,1.7917,1.8736,1.9944,2.1481,2.1281,2.1487,2.2155,2.1938,2.1865,2.1865,2.1875,2.1967,2.2205,2.2205,2.2297,2.2563,2.2986,2.3408,2.3714,2.3714,2.3714,2.3714,2.3551,2.3464,2.3424,2.2742,2.249,2.2262,2.096,1.9264,1.7589,1.7241,1.6553,1.5848,1.5533,1.5643,1.5899,1.5899,1.6104,1.6345,1.6352,1.6352,1.6426,1.6755,1.6843,1.6916,1.7223,1.7304,1.7225,1.7225,1.7225,1.7232,1.7232,1.6177,1.5121,1.4364,1.3108,1.1955,1.1292,1.1194,1.0806,0.9727,0.9628,0.9628,0.9628,0.9628,0.9628,0.9628,0.9628,0.9624,0.962,0.962,0.9813,1.0297,1.0395,1.0592,1.1175,1.1175,1.1179,1.1175,1.1175,1.0881,1.0395,1.0395,1.01,1.7485,1.7132,1.6669,1.651,1.6157,1.5795,1.5741,1.5786,1.585,1.6009,1.6087,1.6302,1.6836,1.6768,1.6769,1.7321,1.7133,1.7031,1.756,1.7694,1.7868,1.811,1.8143,1.8221,1.8292,1.8617,1.9029,1.9525,2.0604,2.1413,2.1967,2.2068,2.2148,2.2205,2.2575,2.2725,2.2725,2.3003,2.3228,2.3228,2.3228,2.3313,2.3408,2.3559,2.37,2.3841,2.3841,2.3841,2.3754,2.358,2.3503,2.3484,2.3075,2.2485,2.1923,2.1521,2.0483,1.9326,1.8801,1.7994,1.7125,1.7009,1.6632,1.6213,1.6213,1.6287,1.6411,1.663,1.6689,1.6762,1.7084,1.7172,1.7194,1.7304,1.7326,1.7326,1.7326,1.7326,1.7239,1.716,1.648,1.5805,1.5337,1.389,1.2446,1.1389,1.0904,1.0511,1.0216,0.9821,0.9628,0.9628,0.9628,0.9628,0.9628,0.9628,0.9628,0.9628,0.9628,0.9727,0.9821,1.0216,1.0609,1.1194,1.1585,1.1878,1.2273,1.2273,1.2175,1.198,1.198,1.1683,1.7537,1.7231,1.6897,1.6634,1.6373,1.6126,1.5891,1.5904,1.6014,1.6157,1.6253,1.6523,1.7256,1.714,1.711,1.7531,1.7417,1.7392,1.7759,1.7902,1.8226,1.8788,1.8789,1.9002,1.9626,2.0357,2.0627,2.0386,2.153,2.2357,2.2671,2.2692,2.2772,2.2922,2.3277,2.3418,2.3418,2.37,2.3841,2.3937,2.4013,2.4013,2.4013,2.4013,2.4013,2.4013,2.4013,2.4013,2.4013,2.3851,2.3764,2.3764,2.3493,2.295,2.2325,2.2325,2.1872,2.1051,1.9442,1.8534,1.7906,1.7437,1.6964,1.6543,1.6543,1.6623,1.6755,1.6967,1.7026,1.7069,1.7274,1.7326,1.7326,1.7326,1.7326,1.7326,1.7326,1.7326,1.7239,1.7153,1.6864,1.6473,1.6015,1.4567,1.3125,1.2262,1.1482,1.09,1.0703,1.0408,1.0216,1.0216,1.0019,0.992,0.992,0.9727,0.9628,0.9628,0.9826,1.0019,1.0117,1.0708,1.1194,1.178,1.2078,1.2467,1.2764,1.2764,1.2662,1.2467,1.2467,1.2273,1.817,1.7984,1.7797,1.7101,1.7257,1.7257,1.6056,1.6171,1.6456,1.6337,1.653,1.6836,1.7331,1.7819,1.7881,1.7042,1.7394,1.7596,1.7125,1.7405,1.8246,1.9769,1.9756,2.032,2.2056,2.219,2.1781,2.0866,2.167,2.2619,2.3449,2.3143,2.3343,2.4196,2.3937,2.3841,2.3841,2.3841,2.3937,2.4206,2.4368,2.454,2.454,2.454,2.454,2.454,2.454,2.454,2.4454,2.4282,2.4206,2.4196,2.3927,2.3667,2.3503,2.3503,2.3319,2.2717,1.9554,1.8466,1.8232,1.7039,1.6802,1.697,1.697,1.7091,1.7326,1.7326,1.7326,1.7326,1.7326,1.7326,1.7326,1.7326,1.7326,1.7326,1.7326,1.7326,1.7326,1.7326,1.7326,1.7044,1.6285,1.4949,1.3998,1.3908,1.2845,1.1878,1.1292,1.1198,1.1194,1.1194,1.0703,1.0413,1.0413,0.992,0.9628,0.9727,1.0117,1.0609,1.1198,1.1683,1.2273,1.2764,1.2764,1.2764,1.2764,1.2764,1.257,1.2078,1.2078,1.1785,1.9214,1.8951,1.8525,1.8483,1.8038,1.749,1.6719,1.6492,1.6561,1.6794,1.6507,1.6552,1.7365,1.7077,1.6825,1.7187,1.7182,1.7619,1.8923,1.9199,1.9772,2.0931,2.0634,2.0811,2.2066,2.2089,2.2274,2.299,2.3257,2.3559,2.4023,2.4033,2.417,2.4196,2.4282,2.4282,2.4282,2.4282,2.4368,2.4454,2.4454,2.454,2.454,2.454,2.454,2.454,2.454,2.454,2.4454,2.4282,2.4206,2.4196,2.3927,2.3754,2.3754,2.3754,2.359,2.3212,2.1557,2.0989,2.0624,1.9625,1.8854,1.821,1.7387,1.7267,1.7326,1.7326,1.7326,1.7326,1.7326,1.7326,1.7326,1.7326,1.7326,1.7326,1.7326,1.7326,1.7326,1.7326,1.7326,1.7044,1.6285,1.59,1.5235,1.4094,1.3619,1.3039,1.1975,1.1487,1.1194,1.1194,1.0703,1.0609,1.0998,1.0117,0.992,1.0703,1.0507,1.0609,1.1198,1.1683,1.2073,1.2175,1.2565,1.2764,1.2764,1.2764,1.2764,1.2565,1.2565,1.2565,1.9004,1.8738,1.8417,1.8483,1.8093,1.7534,1.7157,1.6989,1.7016,1.7313,1.6946,1.6729,1.7431,1.717,1.6939,1.7429,1.7736,1.8288,1.9424,1.9907,2.0414,2.1145,2.1074,2.1366,2.2213,2.2332,2.2776,2.3846,2.3951,2.411,2.4292,2.4368,2.4378,2.4368,2.4454,2.454,2.454,2.454,2.454,2.454,2.454,2.454,2.454,2.454,2.454,2.454,2.454,2.454,2.4454,2.4368,2.4368,2.4292,2.4196,2.4013,2.4024,2.4024,2.3851,2.358,2.3028,2.2501,2.1971,2.0602,1.9604,1.8696,1.8149,1.7699,1.7326,1.7326,1.7326,1.7326,1.7326,1.7326,1.7326,1.7326,1.7326,1.7326,1.7326,1.7326,1.7326,1.7326,1.7326,1.7138,1.6763,1.6379,1.5812,1.4573,1.4094,1.3522,1.2467,1.2078,1.1878,1.1878,1.1194,1.09,1.1194,1.0216,0.992,1.0801,1.0801,1.0998,1.1492,1.2078,1.237,1.237,1.2667,1.2764,1.2764,1.2764,1.2764,1.2764,1.2764,1.2764,1.8471,1.8244,1.8135,1.8124,1.8015,1.7797,1.76,1.749,1.7501,1.7748,1.7201,1.6824,1.7296,1.7375,1.7377,1.7427,1.8315,1.9013,1.9203,1.9928,2.0535,2.0818,2.1151,2.1686,2.2449,2.2654,2.3033,2.3846,2.4122,2.4292,2.4454,2.4368,2.4292,2.4454,2.454,2.454,2.454,2.454,2.454,2.454,2.454,2.454,2.454,2.454,2.454,2.454,2.454,2.454,2.454,2.454,2.454,2.454,2.454,2.4368,2.4206,2.4206,2.411,2.3841,2.3841,2.3406,2.2608,2.0872,1.9695,1.898,1.8796,1.8064,1.7426,1.7326,1.7326,1.7326,1.7326,1.7326,1.7326,1.7326,1.7326,1.7326,1.7326,1.7326,1.7326,1.7326,1.7326,1.7326,1.7326,1.6756,1.6096,1.5337,1.4573,1.3811,1.305,1.2861,1.2764,1.2764,1.1878,1.1292,1.1389,1.0413,1.0117,1.0703,1.1096,1.1585,1.2078,1.2565,1.2764,1.2764,1.2764,1.2764,1.2764,1.2764,1.2764,1.2764,1.2764,1.2764,1.954,1.9436,1.9331,1.9423,1.9371,1.9069,1.8471,1.7918,1.749,1.7367,1.6192,1.5359,1.5935,1.605,1.6128,1.6292,1.7204,1.8168,1.9053,1.9656,2.0244,2.0989,2.0989,2.1433,2.2371,2.2402,2.2776,2.3846,2.4206,2.4454,2.454,2.4454,2.4454,2.454,2.454,2.454,2.454,2.454,2.454,2.454,2.454,2.454,2.454,2.454,2.454,2.454,2.454,2.454,2.454,2.454,2.454,2.454,2.454,2.4454,2.4454,2.4454,2.4282,2.411,2.411,2.3937,2.3309,2.1695,2.0628,1.9828,1.8627,1.8079,1.7893,1.7419,1.7326,1.7326,1.7326,1.7326,1.7326,1.7326,1.7326,1.7326,1.7326,1.7326,1.7326,1.7326,1.7326,1.7326,1.7326,1.7232,1.6857,1.6096,1.5337,1.4573,1.3811,1.3141,1.2764,1.2764,1.2273,1.2078,1.2467,1.159,1.1292,1.2273,1.2078,1.2078,1.2662,1.2764,1.2764,1.2764,1.2764,1.2764,1.2764,1.2764,1.2764,1.2764,1.2764,1.2764,1.9798,1.9759,1.9708,1.9798,1.9759,1.9478,1.873,1.8346,1.799,1.7422,1.6232,1.5404,1.5712,1.5516,1.5474,1.589,1.6888,1.7829,1.8685,1.9438,2.0103,2.0628,2.0859,2.1318,2.2087,2.2306,2.2676,2.3484,2.3939,2.4302,2.4529,2.454,2.454,2.454,2.454,2.454,2.454,2.454,2.454,2.454,2.454,2.454,2.454,2.454,2.454,2.454,2.454,2.454,2.454,2.454,2.454,2.454,2.454,2.454,2.454,2.454,2.4454,2.4378,2.4378,2.4024,2.3493,2.2687,2.1971,2.1159,1.9795,1.9063,1.8427,1.7505,1.7326,1.7326,1.7326,1.7326,1.7326,1.7326,1.7326,1.7326,1.7326,1.7326,1.7326,1.7326,1.7326,1.7326,1.7326,1.7326,1.7044,1.6285,1.5527,1.4765,1.4004,1.3238,1.2764,1.2764,1.2273,1.2078,1.237,1.1688,1.159,1.237,1.2175,1.2273,1.2764,1.2764,1.2764,1.2764,1.2764,1.2764,1.2764,1.2764,1.2764,1.2764,1.2764,1.2764,1.9773,1.9798,1.9798,1.9798,1.971,1.9433,1.8758,1.8311,1.7905,1.7189,1.6109,1.5335,1.5335,1.5016,1.4954,1.5652,1.6595,1.7461,1.8224,1.8962,1.9682,2.0287,2.0689,2.1151,2.1766,2.2221,2.2646,2.3008,2.3557,2.4074,2.4519,2.454,2.454,2.454,2.454,2.454,2.454,2.454,2.454,2.454,2.454,2.454,2.454,2.454,2.454,2.454,2.454,2.454,2.454,2.454,2.454,2.454,2.454,2.454,2.454,2.454,2.454,2.454,2.454,2.4196,2.3677,2.3677,2.3125,2.2217,2.1132,2.0141,1.9239,1.8149,1.7699,1.7426,1.7426,1.7426,1.7326,1.7326,1.7326,1.7326,1.7326,1.7326,1.7326,1.7326,1.7326,1.7326,1.7326,1.7326,1.7138,1.6473,1.5717,1.486,1.419,1.3335,1.2764,1.2764,1.2467,1.2175,1.2175,1.178,1.1683,1.2175,1.2175,1.237,1.2759,1.2764,1.2764,1.2764,1.2764,1.2764,1.2764,1.2764,1.2764,1.2764,1.2764,1.2764,1.9673,1.9798,1.9798,1.9798,1.9447,1.8983,1.8684,1.7458,1.6345,1.5997,1.4737,1.3769,1.3871,1.3942,1.4294,1.5114,1.5816,1.6675,1.7951,1.8165,1.8715,2.0246,2.0396,2.0777,2.169,2.2221,2.2511,2.2563,2.3381,2.4074,2.4519,2.454,2.454,2.454,2.454,2.454,2.454,2.454,2.454,2.454,2.454,2.454,2.454,2.454,2.454,2.454,2.454,2.454,2.454,2.454,2.454,2.454,2.454,2.454,2.454,2.454,2.454,2.454,2.454,2.4454,2.4368,2.4368,2.3474,2.2306,2.1784,2.1069,2.0357,1.9803,1.8896,1.7994,1.7994,1.7707,1.7326,1.7326,1.7326,1.7326,1.7326,1.7326,1.7326,1.7326,1.7326,1.7326,1.7326,1.7326,1.7232,1.7232,1.6001,1.5051,1.4956,1.3715,1.2764,1.2764,1.2764,1.2764,1.2764,1.2667,1.2662,1.2764,1.2764,1.2764,1.2764,1.2764,1.2764,1.2764,1.2764,1.2764,1.2764,1.2764,1.2764,1.2764,1.2764,1.2764,1.8781,1.8844,1.8844,1.8844,1.8632,1.8177,1.7424,1.6679,1.5904,1.507,1.4247,1.3705,1.3754,1.3695,1.379,1.4428,1.5301,1.6218,1.7307,1.7877,1.866,1.9913,2.0216,2.0657,2.1342,2.1807,2.2201,2.248,2.336,2.396,2.4136,2.4395,2.454,2.454,2.454,2.454,2.454,2.454,2.454,2.454,2.454,2.454,2.454,2.454,2.454,2.454,2.454,2.454,2.454,2.454,2.454,2.454,2.454,2.454,2.454,2.454,2.454,2.454,2.454,2.454,2.454,2.454,2.41,2.3377,2.2138,2.1516,2.0979,1.9629,1.8727,1.8087,1.8087,1.7707,1.7326,1.7326,1.7326,1.7326,1.7326,1.7326,1.7326,1.7326,1.7326,1.7326,1.7326,1.7326,1.7326,1.7326,1.6001,1.5051,1.5051,1.3721,1.2764,1.2764,1.2764,1.2764,1.2764,1.2764,1.2764,1.2764,1.2764,1.2764,1.2764,1.2764,1.2764,1.2764,1.2764,1.2764,1.2764,1.2764,1.2764,1.2764,1.2764,1.2764,1.8166,1.8204,1.8204,1.8204,1.8031,1.7594,1.6702,1.6243,1.5684,1.4776,1.4222,1.3858,1.3905,1.361,1.3562,1.4072,1.4914,1.5804,1.6715,1.7492,1.8387,1.9448,1.9928,2.039,2.1073,2.1538,2.1994,2.2459,2.3101,2.3525,2.367,2.4095,2.4405,2.454,2.454,2.454,2.454,2.454,2.454,2.454,2.454,2.454,2.454,2.454,2.454,2.454,2.454,2.454,2.454,2.454,2.454,2.454,2.454,2.454,2.454,2.454,2.454,2.454,2.454,2.454,2.454,2.454,2.454,2.4186,2.2677,2.205,2.1596,2.0257,1.9088,1.8272,1.7893,1.7613,1.7326,1.7326,1.7326,1.7326,1.7326,1.7326,1.7326,1.7326,1.7326,1.7326,1.7326,1.7326,1.7326,1.7326,1.6001,1.5051,1.5051,1.3721,1.2764,1.2764,1.2764,1.2764,1.2764,1.2764,1.2764,1.2764,1.2764,1.2764,1.2764,1.2764,1.2764,1.2764,1.2764,1.2764,1.2764,1.2764,1.2764,1.2764,1.2764,1.2764,1.8053,1.8204,1.8204,1.8204,1.779,1.7343,1.7057,1.6275,1.5555,1.5344,1.4617,1.4025,1.4176,1.3752,1.3611,1.4181,1.4707,1.5328,1.6249,1.6719,1.747,1.8905,1.9384,2.0028,2.0999,2.1538,2.1994,2.2459,2.2501,2.2708,2.3163,2.3629,2.4084,2.4529,2.454,2.454,2.454,2.454,2.454,2.454,2.454,2.454,2.454,2.454,2.454,2.454,2.454,2.454,2.454,2.454,2.454,2.454,2.454,2.454,2.454,2.454,2.454,2.454,2.454,2.454,2.454,2.454,2.454,2.4368,2.3677,2.295,2.2394,2.2394,2.061,1.8542,1.7606,1.7326,1.7326,1.7326,1.7326,1.7326,1.7326,1.7326,1.7326,1.7326,1.7326,1.7326,1.7326,1.7326,1.7326,1.7326,1.6001,1.5051,1.5051,1.3721,1.2764,1.2764,1.2764,1.2764,1.2764,1.2764,1.2764,1.2764,1.2764,1.2764,1.2764,1.2764,1.2764,1.2764,1.2764,1.2764,1.2764,1.2764,1.2764,1.2764,1.2764,1.2764,1.6923,1.7005,1.7049,1.7049,1.6803,1.649,1.6142,1.573,1.5299,1.4983,1.4755,1.4628,1.4674,1.4362,1.4136,1.4344,1.4742,1.5214,1.5815,1.6775,1.7748,1.8526,1.9538,2.0513,2.1507,2.1714,2.1869,2.2014,2.2325,2.2563,2.2708,2.3153,2.3619,2.4074,2.4385,2.454,2.454,2.454,2.454,2.454,2.454,2.454,2.454,2.454,2.454,2.454,2.454,2.454,2.454,2.454,2.454,2.454,2.454,2.454,2.454,2.454,2.454,2.454,2.454,2.454,2.454,2.454,2.454,2.4454,2.4282,2.3667,2.295,2.2138,2.1248,2.0158,1.8872,1.8419,1.8149,1.7419,1.7326,1.7326,1.7326,1.7326,1.7326,1.7326,1.7326,1.7326,1.7326,1.7326,1.7326,1.7326,1.6001,1.5051,1.5051,1.3721,1.2764,1.2764,1.2764,1.2764,1.2764,1.2764,1.2764,1.2764,1.2764,1.2764,1.2764,1.2764,1.2764,1.2764,1.2764,1.305,1.3522,1.3522,1.3811,1.4382,1.4382,1.4382,1.6373,1.6436,1.6522,1.6522,1.6392,1.6219,1.5964,1.5832,1.5623,1.5119,1.5164,1.513,1.4777,1.4558,1.4326,1.414,1.4597,1.5101,1.539,1.6757,1.803,1.8806,1.9799,2.0721,2.1476,2.1704,2.1807,2.1807,2.2076,2.2232,2.2232,2.2677,2.306,2.335,2.3971,2.4374,2.454,2.454,2.454,2.454,2.454,2.454,2.454,2.454,2.454,2.454,2.454,2.454,0.0,2.454,2.454,2.454,2.454,2.454,2.454,2.454,2.454,2.454,2.454,2.454,2.454,2.454,2.454,2.454,2.454,2.4024,2.3232,2.2059,2.1606,2.106,1.9497,1.9047,1.8603,1.7606,1.7326,1.7326,1.7326,1.7326,1.7326,1.7326,1.7326,1.7326,1.7326,1.7326,1.7326,1.7326,1.6285,1.5527,1.5527,1.4196,1.3238,1.3238,1.2953,1.2764,1.2764,1.2764,1.2764,1.2764,1.2764,1.2953,1.3238,1.3238,1.3335,1.3624,1.3624,1.3908,1.4382,1.4382,1.4573,1.5146,1.5432,1.5337,0.0,1.6411,1.6522,1.6522,1.6522,1.6479,1.6436,1.6436,0.0,1.5768,1.5756,1.5522,1.464,1.4466,1.4233,1.3752,1.4397,1.5007,1.5038,1.6622,1.8268,1.9671,2.0151,2.0607,2.1073,2.1538,2.1807,2.1807,2.1807,2.1807,2.1807,2.2211,2.247,2.2501,2.3329,2.4012,2.4488,2.4498,2.4509,2.454,2.454,2.454,2.454,2.454,2.454,2.454,2.454,2.454,2.454,2.454,2.454,2.454,2.454,2.454,2.454,2.454,2.454,2.454,2.454,2.454,2.454,2.454,2.454,2.454,2.454,2.411,2.3319,2.2236,2.1872,2.1418,1.9679,1.9222,1.8772,1.7598,1.7326,1.7326,1.7326,1.7326,1.7326,1.7326,1.7326,1.7326,1.7326,1.7326,1.7326,1.7326,1.6662,1.619,1.619,1.4854,1.3998,1.3998,1.3335,1.2953,1.2953,1.2861,1.2861,1.2856,1.2856,1.3238,1.3902,1.3998,1.4382,1.5051,1.5146,1.5146,1.5146,1.5242,1.5242,1.5242,1.6001,1.5906,1.5703,0.0,1.6522,1.6522,1.6479,1.6436,0.0,1.6436,1.6392,1.6293,1.602,1.5744,1.5522,1.4858,1.4384,1.4233,1.4647,1.5121,1.5473,1.7088,1.8609,1.9713,2.0151,2.0607,2.1073,2.1538,2.1807,2.1807,2.1807,2.1807,2.1807,2.1901,2.2128,2.248,2.2708,2.3215,2.4022,2.4033,2.4209,2.454,2.454,2.454,2.454,2.454,2.454,2.454,2.454,2.454,2.454,2.454,2.454,2.454,2.454,2.454,2.454,2.454,2.454,2.454,2.454,2.454,2.454,2.454,2.454,2.454,2.454,2.4368,2.4196,2.3917,2.3299,2.2413,2.0854,1.996,1.9063,1.7598,1.7326,1.7326,1.7326,1.7326,1.7326,1.7326,1.7326,1.7326,1.7326,1.7326,1.7326,1.7326,1.6662,1.619,1.619,1.5432,1.486,1.486,1.4669,1.458,1.458,1.3528,1.305,1.3619,1.3619,1.4004,1.4765,1.486,1.4956,1.5051,1.5622,1.5906,1.5906,1.6473,1.6763,1.6763,1.6951,1.6951,1.5486,1.6065,1.6522,1.6522,1.6479,1.6479,1.6479,1.6479,1.6392,1.6207,1.6151,1.5976,1.5579,1.5246,1.4949,1.4701,1.5065,1.5618,1.6508,1.7636,1.864,1.9354,2.0027,2.0524,2.0772,2.1414,2.1807,2.1807,2.1807,2.1807,2.1807,2.1807,2.1921,2.217,2.218,2.2625,2.3557,2.3774,2.4002,2.424,2.4447,2.454,2.454,2.454,2.454,2.454,2.454,2.454,2.454,2.454,2.454,2.454,2.454,2.454,2.454,2.454,2.454,2.454,2.454,2.454,2.454,2.454,2.454,2.454,2.454,2.454,2.454,2.454,2.41,2.329,2.1382,2.0494,1.9687,1.7785,1.7326,1.7326,1.7326,1.7326,1.7326,1.7326,1.7326,1.7326,1.7326,1.7326,1.7326,1.7326,1.6951,1.6669,1.6669,1.6096,1.5622,1.5622,1.5337,1.5051,1.5051,1.4388,1.4004,1.4382,1.4478,1.4765,1.5527,1.5622,1.5717,1.6096,1.6473,1.6669,1.6669,1.7138,1.7326,1.7326,1.7326,1.7326,1.5291,1.5969,1.6409,1.6497,1.6522,1.6522,1.6522,1.6522,1.638,1.5976,1.6151,1.6144,1.5336,1.5473,1.5553,1.5083,1.55,1.6353,1.7647,1.8206,1.8651,1.9116,1.9913,2.0452,2.0524,2.13,2.1807,2.1807,2.1807,2.1807,2.1807,2.1807,2.1807,2.1807,2.1807,2.218,2.2967,2.3505,2.3805,2.3888,2.4333,2.454,2.454,2.454,2.454,2.454,2.454,2.454,2.454,2.454,2.454,2.454,2.454,2.454,2.454,2.454,2.454,2.454,2.454,2.454,2.454,2.454,2.454,2.454,2.454,2.454,2.454,2.454,2.4454,2.3831,2.1658,2.1033,2.0395,1.8056,1.7512,1.7512,1.7326,1.7326,1.7326,1.7326,1.7326,1.7326,1.7326,1.7326,1.7326,1.7326,1.7326,1.7326,1.7326,1.6763,1.6379,1.6379,1.5812,1.5432,1.5432,1.5432,1.5432,1.5432,1.5337,1.5622,1.6379,1.6379,1.6662,1.7326,1.7326,1.7326,1.7326,1.7326,1.7326,1.7326,1.7326,1.7326,1.4865,1.5392,1.5932,1.6409,1.6522,1.6522,1.6522,1.6522,1.6466,1.6423,1.6151,1.5843,1.573,1.5356,1.5115,1.5028,1.598,1.7171,1.8143,1.8671,1.9204,1.9671,2.011,2.0586,2.0969,2.1487,2.1807,2.1807,2.1807,2.1807,2.1807,2.1807,2.1807,2.1807,2.1807,2.188,2.2014,2.2863,2.3494,2.3888,2.4333,2.454,2.454,2.454,2.454,2.454,2.454,2.454,2.454,2.454,2.454,2.454,2.454,2.454,2.454,2.454,2.454,2.454,2.454,2.454,2.454,2.454,2.454,2.454,2.454,2.454,2.454,2.454,2.411,2.3406,2.2394,2.1676,2.0782,1.8972,1.8611,1.8334,1.7512,1.7326,1.7326,1.7326,1.7326,1.7326,1.7326,1.7326,1.7326,1.7326,1.7326,1.7326,1.7326,1.7232,1.7138,1.7138,1.7044,1.6951,1.6951,1.6951,1.6951,1.6951,1.6379,1.6379,1.7138,1.7138,1.7138,1.7326,1.7326,1.7326,1.7326,1.7326,1.7326,1.7326,1.7326,1.7326,1.4765,1.5279,1.5831,1.6384,1.6522,1.6522,1.6522,1.676,1.6986,1.6986,1.7032,1.6983,1.6681,1.6413,1.6203,1.6092,1.7253,1.8195,1.8361,1.8992,1.9588,1.9806,2.0151,2.0607,2.1073,2.1538,2.1807,2.1807,2.1807,2.1807,2.1807,2.1807,2.1807,2.1807,2.1807,2.1807,2.1807,2.2718,2.3298,2.3515,2.4209,2.454,2.454,2.454,2.454,2.454,2.454,2.454,2.454,2.454,2.454,2.454,2.454,2.454,2.454,2.454,2.454,2.454,2.454,2.454,2.454,2.454,2.454,2.454,2.454,2.454,2.454,2.454,2.4282,2.3841,2.2833,2.2041,2.106,1.9322,1.8703,1.8257,1.7419,1.7326,1.7326,1.7326,1.7326,1.7326,1.7326,1.7326,1.7326,1.7326,1.7326,1.7326,1.7326,1.7326,1.7326,1.7326,1.7326,1.7326,1.7326,1.7326,1.7326,1.7326,1.6951,1.6951,1.7333,1.7326,1.7326,1.7326,1.7326,1.7326,1.7326,1.7326,1.7326,1.7326,1.7326,1.7326,1.4916,1.5379,1.5856,1.6547,1.6622,1.6559,1.6685,1.7061,1.7413,1.7551,1.7903,1.8076,1.7762,1.7659,1.7656,1.7719,1.8426,1.8868,1.8723,1.938,1.9799,1.9903,2.0317,2.0772,2.1238,2.16,2.1807,2.1807,2.1807,2.1807,2.1807,2.1807,2.1807,2.1807,2.1807,2.1859,2.1963,2.278,2.3184,2.3194,2.4105,2.454,2.454,2.454,2.454,2.454,2.454,2.454,2.454,2.454,2.454,2.454,2.454,2.454,2.454,2.454,2.454,2.454,2.454,2.454,2.454,2.454,2.454,2.454,2.454,2.454,2.454,2.454,2.454,2.4272,2.3105,2.2403,2.1596,1.9778,1.8888,1.8265,1.7606,1.7426,1.7326,1.7326,1.7326,1.7326,1.7326,1.7326,1.7326,1.7326,1.7326,1.7326,1.7326,1.7326,1.7326,1.7326,1.7326,1.7326,1.7326,1.7326,1.7326,1.7326,1.7326,1.7326,1.7326,1.7326,1.7326,1.7326,1.7326,1.7326,1.7326,1.7326,1.7326,1.7326,1.7326,1.7326,1.5341,1.5668,1.5957,1.7049,1.6911,1.666,1.72,1.735,1.7526,1.8041,1.8179,1.8312,1.8803,1.8725,1.8868,1.9726,1.9083,1.8713,1.9551,1.9785,1.9913,2.0327,2.0783,2.1248,2.1714,2.1787,2.1807,2.1807,2.1807,2.1807,2.1807,2.1807,2.1807,2.1807,2.1807,2.2014,2.2439,2.2936,2.3184,2.3194,2.4105,2.454,2.454,2.454,2.454,2.454,2.454,2.454,2.454,2.454,2.454,2.454,2.454,2.454,2.454,2.454,2.454,2.454,2.454,2.454,2.454,2.454,2.454,2.454,2.454,2.454,2.454,2.454,2.454,2.4272,2.3309,2.3047,2.2511,2.0645,1.982,1.9171,1.8265,1.7613,1.7326,1.7326,1.7326,1.7326,1.7326,1.7326,1.7326,1.7326,1.7326,1.7326,1.7326,1.7326,1.7326,1.7326,1.7326,1.7326,1.7326,1.7326,1.7326,1.7326,1.7326,1.7326,1.7326,1.7326,1.7326,1.7326,1.7326,1.7326,1.7326,1.7326,1.7326,1.7326,1.7326,1.7326,1.5492,1.5998,1.6494,1.7232,1.7554,1.7705,1.784,1.8201,1.8639,1.9083,1.9548,2.0022,2.0407,2.0007,1.967,2.0095,2.0101,2.0006,1.9858,2.0245,2.0659,2.0834,2.101,2.13,2.1756,2.1807,2.1807,2.1807,2.1807,2.1807,2.1807,2.1807,2.1932,2.2232,2.2232,2.2459,2.2925,2.3391,2.3619,2.3629,2.424,2.454,2.454,2.454,2.454,2.454,2.454,2.454,2.454,2.454,2.454,2.454,2.454,2.454,2.454,2.454,2.454,2.454,2.454,2.454,2.454,2.454,2.454,2.454,2.454,2.454,2.454,2.454,2.454,2.4282,2.358,2.3038,2.2325,2.0817,2.0002,1.9271,1.8265,1.7893,1.7707,1.7333,1.7326,1.7326,1.7326,1.7326,1.7326,1.7326,1.7326,1.7326,1.7326,1.7326,1.7326,1.7326,1.7326,1.7326,1.7326,1.7326,1.7326,1.7326,1.7326,1.7326,1.7326,1.7326,1.7326,1.7326,1.7326,1.7326,1.7326,1.7326,1.7326,1.7326,1.7326,1.7326,1.585,1.6456,1.7068,1.7592,1.8194,1.8735,1.8992,1.9421,1.9788,2.0116,2.099,2.175,2.1987,2.169,2.1433,2.1395,2.1472,2.1286,2.0667,2.1009,2.1261,2.1261,2.1386,2.1605,2.1776,2.1873,2.1959,2.1807,2.1959,2.2022,2.2014,2.2178,2.2387,2.2697,2.2718,2.2936,2.3401,2.3722,2.395,2.4084,2.4395,2.454,2.454,2.454,2.454,2.454,2.454,2.454,2.454,2.454,2.454,2.454,2.454,2.454,2.454,2.454,2.454,2.454,2.454,2.454,2.454,2.454,2.454,2.454,2.454,2.454,2.454,2.454,2.454,2.4368,2.3677,2.295,2.2129,2.1078,2.0184,1.9371,1.855,1.8179,1.7893,1.7419,1.7326,1.7326,1.7326,1.7326,1.7326,1.7326,1.7326,1.7326,1.7326,1.7326,1.7326,1.7326,1.7326,1.7326,1.7326,1.7326,1.7326,1.7326,1.7326,1.7326,1.7326,1.7326,1.7326,1.7326,1.7326,1.7326,1.7326,1.7326,1.7326,1.7326,1.7326,1.7326,1.6497,1.7099,1.7644,1.8228,1.8798,1.9521,2.0665,2.0919,2.0945,2.0929,2.2261,2.3416,2.3416,2.3904,2.4188,2.3987,2.3167,2.2467,2.2347,2.1991,2.17,2.17,2.2115,2.2252,2.1807,2.2187,2.2252,2.1807,2.2176,2.2463,2.247,2.2882,2.3103,2.3174,2.3194,2.3412,2.3877,2.3888,2.4105,2.454,2.454,2.454,2.454,2.454,2.454,2.454,2.454,2.454,2.454,2.454,2.454,2.454,2.454,2.454,2.454,2.454,2.454,2.454,2.454,2.454,2.454,2.454,2.454,2.454,2.454,2.454,2.454,2.454,2.454,2.4368,2.3677,2.295,2.2227,2.1526,2.0456,1.9463,1.892,1.8458,1.7994,1.7426,1.7326,1.7326,1.7326,1.7326,1.7326,1.7326,1.7326,1.7326,1.7326,1.7326,1.7326,1.7326,1.7326,1.7326,1.7326,1.7326,1.7326,1.7326,1.7326,1.7326,1.7326,1.7326,1.7326,1.7326,1.7326,1.7326,1.7326,1.7326,1.7326,1.7326,1.7326,1.7326,1.6317,1.7142,1.7881,1.8287,1.9543,2.0785,2.112,2.1506,2.2137,2.3335,2.3859,2.44,2.5218,2.5056,2.4829,2.481,2.4247,2.3603,2.2984,2.2989,2.293,2.2635,2.2467,2.2327,2.2252,2.2327,2.2327,2.2252,2.2929,2.3263,2.2949,2.3334,2.3716,2.4111,2.4122,2.4354,2.483,2.483,2.4904,2.4946,2.4946,2.4786,2.454,2.454,2.454,2.454,2.454,2.454,2.454,2.454,2.454,2.454,2.454,2.454,2.454,2.454,2.454,2.454,2.454,2.454,2.454,2.454,2.454,2.454,2.454,2.454,2.454,2.454,2.454,2.4454,2.4282,2.3667,2.2862,2.1713,2.0727,1.992,1.9463,1.9004,1.8458,1.7986,1.752,1.7326,1.7326,1.7326,1.7326,1.7326,1.7326,1.7326,1.7326,1.7326,1.7326,1.7326,1.7326,1.7326,1.7326,1.7326,1.7326,1.7326,1.7326,1.7326,1.7326,1.7326,1.7326,1.7326,1.7326,1.7326,1.7326,1.7326,1.7326,1.7326,1.7326,1.7326,1.6472,1.7439,1.8254,1.8477,1.9935,2.1496,2.2237,2.2652,2.3262,2.4567,2.5055,2.5459,2.6181,2.612,2.59,2.571,2.5281,2.4732,2.4002,2.3754,2.3519,2.3298,2.3001,2.2777,2.2628,2.2777,2.2928,2.2961,2.3623,2.404,2.3964,2.4324,2.4784,2.5013,2.4858,2.4902,2.52,2.52,2.52,2.52,2.52,2.5031,2.4786,2.4786,2.47,2.454,2.454,2.454,2.454,2.454,2.454,2.454,2.454,2.454,2.454,2.454,2.454,2.454,2.454,2.454,2.454,2.454,2.454,2.454,2.454,2.454,2.454,2.454,2.454,2.454,2.454,2.4024,2.3232,2.2059,2.1266,2.0555,1.9729,1.9371,1.9004,1.8458,1.7986,1.7613,1.7613,1.7426,1.7326,1.7326,1.7326,1.7326,1.7326,1.7326,1.7326,1.7326,1.7326,1.7326,1.7326,1.7326,1.7326,1.7326,1.745,1.7523,1.7523,1.7399,1.7326,1.7326,1.7326,1.7326,1.7326,1.7326,1.7326,1.7326,1.7326,1.7399,1.6885,1.7873,1.8727,1.8693,2.0073,2.19,2.3741,2.4125,2.4261,2.5001,2.5803,2.6414,2.6492,2.7051,2.7255,2.6633,2.6208,2.5791,2.5146,2.4311,2.374,2.3677,2.3604,2.3457,2.3075,2.3416,2.369,2.3842,2.4334,2.4781,2.5212,2.5625,2.5847,2.5968,2.5549,2.5285,2.5285,2.5285,2.5285,2.5285,2.5285,2.5285,2.5285,2.52,2.4871,2.454,2.454,2.454,2.454,2.454,2.454,2.454,2.454,2.454,2.454,2.454,2.454,2.454,2.454,2.454,2.454,2.454,2.454,2.454,2.454,2.454,2.454,2.454,2.454,2.454,2.454,2.4024,2.3309,2.258,2.1882,2.1087,1.9911,1.9646,1.9463,1.9012,1.8458,1.8087,1.8087,1.7613,1.7326,1.7326,1.7326,1.7326,1.7326,1.7326,1.7326,1.7326,1.7326,1.734,1.7369,1.7377,1.7384,1.7413,1.7691,1.786,1.786,1.7574,1.7421,1.7421,1.7421,1.7421,1.7421,1.7421,1.7421,1.7421,1.7421,1.7574,1.7116,1.8122,1.8819,1.8799,2.0471,2.2635,2.4387,2.5132,2.5553,2.619,2.6491,2.6739,2.7196,2.7378,2.7456,2.7323,2.7121,2.6701,2.5861,2.5382,2.4897,2.4189,2.3824,2.3593,2.3446,2.3951,2.422,2.4245,2.5372,2.5916,2.565,2.6088,2.6345,2.6362,2.5968,2.5884,2.6196,2.5884,2.5884,2.6196,2.5884,2.5728,2.5728,2.4967,2.4625,2.454,2.454,2.454,2.454,2.454,2.454,2.454,2.454,2.454,2.454,2.454,2.454,2.454,2.454,2.454,2.454,2.454,2.454,2.454,2.454,2.454,2.454,2.454,2.454,2.454,2.454,2.4024,2.3309,2.258,2.1882,2.1177,2.0283,1.9828,1.9554,1.9455,1.8727,1.8087,1.8087,1.7613,1.7326,1.7326,1.7326,1.7326,1.7326,1.7326,1.7326,1.7326,1.7326,1.7435,1.7691,1.7706,1.7816,1.8072,1.816,1.8196,1.8196,1.813,1.8094,1.8094,1.8094,1.8094,1.8094,1.8094,1.8094,1.8094,1.8094,1.813,1.7033,1.7984,1.9025,1.9891,2.1289,2.2795,2.423,2.521,2.5903,2.6203,2.67,2.7183,2.7471,2.7523,2.7615,2.7889,2.7669,2.7347,2.7097,2.6803,2.6227,2.5483,2.5187,2.4889,2.4612,2.485,2.5099,2.5415,2.6085,2.6485,2.6495,2.6662,2.688,2.688,2.6373,2.629,2.6528,2.629,2.6218,2.6207,2.6218,2.6052,2.5895,2.4967,2.4615,2.4786,2.4625,2.454,2.454,2.454,2.454,2.454,2.454,2.454,2.454,2.454,2.454,2.454,2.454,2.454,2.454,2.454,2.454,2.454,2.454,2.454,2.454,2.454,2.454,2.454,2.454,2.4196,2.3754,2.2668,2.1882,2.1177,2.0464,2.0102,1.992,1.992,1.9096,1.8458,1.8458,1.78,1.7326,1.7326,1.7326,1.7326,1.7326,1.7326,1.7391,1.7545,1.756,1.7691,1.8021,1.805,1.8116,1.8291,1.8445,1.8533,1.8533,1.8686,1.8621,1.8313,1.8299,1.8299,1.8299,1.8299,1.8299,1.8299,1.8299,1.8386,1.7019,1.7909,1.927,2.0933,2.1877,2.2675,2.3851,2.5001,2.585,2.5942,2.6804,2.7523,2.7523,2.7615,2.7837,2.8307,2.8118,2.7997,2.8384,2.7938,2.7347,2.6649,2.6498,2.6282,2.5793,2.5784,2.6014,2.6439,2.6554,2.6783,2.7208,2.7231,2.7231,2.7231,2.6704,2.6528,2.661,2.6528,2.6373,2.6146,2.6373,2.629,2.5979,2.5041,2.4871,2.52,2.47,2.454,2.454,2.454,2.454,2.454,2.454,2.454,2.454,2.454,2.454,2.454,2.454,2.454,2.454,2.454,2.454,2.454,2.454,2.454,2.454,2.454,2.454,2.454,2.454,2.4454,2.4013,2.2755,2.1882,2.1177,2.0464,2.0292,2.0292,2.0292,1.9554,1.892,1.8827,1.8079,1.7426,1.7426,1.7333,1.7347,1.7406,1.7413,1.7538,1.7867,1.7904,1.8028,1.8357,1.8386,1.8408,1.8467,1.8723,1.8877,1.8877,1.9133,1.9023,1.8482,1.8467,1.8467,1.8467,1.8467,1.8467,1.8467,1.8467,1.8613,1.7756,1.8695,1.9669,2.0588,2.159,2.2701,2.3851,2.5001,2.5968,2.6452,2.7079,2.7523,2.7523,2.7941,2.8294,2.8373,2.8747,2.8886,2.8435,2.7925,2.7323,2.6637,2.6142,2.5781,2.5716,2.6106,2.6393,2.6462,2.6875,2.7162,2.7219,2.7231,2.7231,2.7231,2.6704,2.6704,2.7056,2.6704,2.6704,2.6974,2.6704,2.6445,2.6362,2.5527,2.5115,2.52,2.47,2.454,2.454,2.454,2.454,2.454,2.454,2.454,2.454,2.454,2.454,2.454,2.454,2.454,2.454,2.454,2.454,2.454,2.454,2.454,2.454,2.454,2.454,2.454,2.454,2.411,2.3406,2.258,2.1882,2.1177,2.0464,2.0292,2.0292,2.0292,1.9828,1.9371,1.892,1.8365,1.7994,1.7994,1.7613,1.7428,1.7713,1.775,1.7874,1.8203,1.824,1.8372,1.8694,1.8723,1.8847,1.9133,1.9184,1.9213,1.9213,1.925,1.9235,1.9147,1.9147,1.9147,1.9147,1.9147,1.9147,1.9147,1.9147,1.9169,1.8135,1.8934,1.9683,2.0114,2.1289,2.2596,2.342,2.4517,2.5511,2.6073,2.6648,2.7144,2.7471,2.7994,2.849,2.883,2.9379,2.979,2.9883,2.9301,2.8686,2.8062,2.7466,2.6951,2.6565,2.676,2.6898,2.6898,2.7105,2.7231,2.7231,2.7231,2.7231,2.7231,2.6962,2.6974,2.7231,2.6974,2.6974,2.7231,2.6704,2.6528,2.6445,2.5874,2.5549,2.5549,2.5126,2.47,2.454,2.4786,2.47,2.454,2.454,2.454,2.454,2.454,2.454,2.454,2.454,2.454,2.454,2.454,2.454,2.454,2.454,2.454,2.454,2.454,2.454,2.454,2.454,2.4282,2.3841,2.3212,2.2501,2.1784,2.1087,2.0555,2.0201,1.992,1.9737,1.9463,1.892,1.8643,1.8427,1.8433,1.818,1.8007,1.8043,1.8086,1.8211,1.854,1.8577,1.8708,1.903,1.906,1.9118,1.9264,1.9279,1.9279,1.9279,1.9279,1.9279,1.9279,1.9279,1.9279,1.9279,1.9279,1.9279,1.9279,1.9279,1.9279,1.8278,1.9014,1.9683,1.9761,2.0954,2.2273,2.2844,2.3916,2.4949,2.568,2.6282,2.6844,2.7419,2.7994,2.8582,2.9183,2.9758,3.0259,3.067,3.019,2.9561,2.8937,2.8327,2.7777,2.7231,2.7231,2.7231,2.7231,2.7231,2.7231,2.7231,2.7231,2.7231,2.7231,2.7231,2.7231,2.7231,2.7231,2.7231,2.7231,2.688,2.6704,2.6704,2.6218,2.6052,2.6052,2.5454,2.5031,2.47,2.5031,2.4956,2.454,2.454,2.454,2.454,2.454,2.454,2.454,2.454,2.454,2.454,2.454,2.454,2.454,2.454,2.454,2.454,2.454,2.454,2.454,2.454,2.454,2.4368,2.3677,2.295,2.2138,2.1356,2.0645,2.0201,1.9828,1.9828,1.9671,1.941,1.9241,1.9175,1.9145,1.8904,1.8738,1.8676,1.8493,1.8518,1.8877,1.8913,1.9016,1.9257,1.9279,1.9279,1.9279,1.9279,1.9279,1.9279,1.9279,1.9279,1.9279,1.9279,1.9279,1.9279,1.9279,1.9279,1.9279,1.9279,1.9279,1.8048,1.8988,1.9843,1.9669,2.0469,2.1532,2.2298,2.3341,2.4478,2.5589,2.6282,2.6844,2.7419,2.7994,2.8582,2.9183,2.9758,3.0099,3.0037,2.9561,2.8937,2.8327,2.7626,2.7231,2.7231,2.7231,2.7231,2.7231,2.7231,2.7231,2.7231,2.7231,2.7231,2.7231,2.7231,2.7231,2.7231,2.7231,2.7231,2.7231,2.7149,2.7149,2.7149,2.6704,2.6445,2.6445,2.5527,2.52,2.52,2.52,2.4956,2.454,2.454,2.454,2.454,2.454,2.454,2.454,2.454,2.454,2.454,2.454,2.454,2.454,2.454,2.454,2.454,2.454,2.454,2.454,2.454,2.454,2.4368,2.3677,2.295,2.2041,2.0645,2.0292,2.0292,2.0292,2.0292,2.0412,2.0687,2.0364,2.0198,2.0578,1.9739,1.9163,1.9506,1.8966,1.8767,1.9199,1.925,1.9257,1.9279,1.9279,1.9279,1.9279,1.9279,1.9279,1.9279,1.9279,1.9279,1.9279,1.9279,1.9279,1.9279,1.9279,1.9279,1.9279,1.9279,1.9279,1.8019,1.8968,1.9807,1.9489,2.0379,2.1385,2.1629,2.2656,2.3772,2.4557,2.5184,2.5863,2.6804,2.7745,2.8451,2.8673,2.9196,2.9712,3.0051,2.9579,2.9251,2.9369,2.8486,2.7857,2.7857,2.7464,2.7231,2.7231,2.7231,2.7231,2.7231,2.7231,2.7231,2.7231,2.7231,2.7231,2.7231,2.7231,2.7231,2.7231,2.7231,2.7056,2.6787,2.661,2.6528,2.6445,2.5884,2.5464,2.52,2.5549,2.5221,2.454,2.454,2.454,2.454,2.454,2.454,2.454,2.454,2.454,2.454,2.454,2.454,2.454,2.454,2.454,2.454,2.454,2.454,2.454,2.454,2.454,2.4186,2.3028,2.2799,2.237,2.1029,2.0472,2.0369,2.0617,2.0668,2.0788,2.1156,2.1026,2.0954,2.1039,2.0687,2.0412,2.0171,1.9872,1.9611,1.9361,1.9279,1.9279,1.9279,1.9279,1.9279,1.9279,1.9279,1.9279,1.9279,1.9279,1.9279,1.9279,1.9279,1.9279,1.9279,1.9279,1.9279,1.9279,1.9279,1.9279,1.8238,1.9046,1.9778,1.9561,2.021,2.1015,2.1232,2.1981,2.2923,2.3916,2.4426,2.504,2.6177,2.7013,2.7706,2.8281,2.8712,2.9099,2.9455,2.9154,2.8987,2.9377,2.868,2.8282,2.8462,2.7938,2.7545,2.7545,2.7313,2.7231,2.7231,2.7231,2.7231,2.7231,2.7231,2.7231,2.7231,2.7231,2.7231,2.7231,2.7231,2.7056,2.6704,2.6704,2.6704,2.6704,2.6479,2.5968,2.5464,2.5633,2.5221,2.454,2.454,2.454,2.454,2.454,2.454,2.454,2.454,2.454,2.454,2.454,2.454,2.454,2.454,2.454,2.454,2.454,2.454,2.454,2.454,2.4654,2.441,2.332,2.3124,2.2889,2.171,2.1035,2.0746,2.1011,2.1062,2.1174,2.1542,2.1602,2.1633,2.1702,2.1462,2.1151,2.0783,2.03,1.9887,1.9383,1.9279,1.9376,1.9687,1.9687,1.9687,1.9791,1.9687,1.9583,1.9583,1.9376,1.9376,1.9583,1.9583,1.9687,1.9791,1.948,1.9279,1.9279,1.9279,1.9279,0.0,0.0,0.0,1.9851,2.0044,2.0378,2.1097,2.1358,2.1969,2.3681,2.406,2.4439,2.5563,2.5785,2.6347,2.8033,2.832,2.8334,2.8274,2.829,2.826,2.8272,2.8182,2.839,2.9008,2.853,2.8155,2.8179,2.7545,2.7231,2.7231,2.7231,2.7231,2.7231,2.7231,2.7231,2.7231,2.7231,2.7231,2.7231,2.7231,2.7231,2.7231,2.7231,2.7231,2.7231,2.7149,2.6727,2.5895,2.538,2.4956,2.454,2.454,2.454,2.454,2.454,2.454,2.454,2.454,2.454,2.454,2.454,2.454,2.454,2.454,2.454,2.454,2.454,2.454,2.4464,2.456,2.4902,2.5067,2.4415,2.403,2.3505,2.2753,2.2004,2.1439,2.143,2.143,2.155,2.1944,2.2013,2.2133,2.2492,2.2038,2.1522,2.1522,2.03,1.9383,1.9383,1.9383,1.9687,2.0403,2.0395,2.0506,2.0925,2.0395,2.0078,2.0078,1.9576,1.9583,2.0086,2.0078,2.0395,2.0925,1.9791,1.9272,1.9272,1.9272,1.9383,1.8702,0.0,0.0,0.0,0.0,0.0,2.0003,2.0505,2.1146,2.2047,2.2897,2.3694,2.4452,2.4922,2.5497,2.6386,2.6883,2.7417,2.827,2.8342,2.855,2.8916,2.853,2.8301,2.8455,2.7885,2.7514,2.751,2.7313,2.7231,2.7231,2.7231,2.7231,2.7231,2.7231,2.7231,2.7231,2.7231,2.7231,2.7231,2.7231,2.7231,2.7231,2.7231,2.7231,2.7149,2.688,2.6385,2.5906,2.5728,2.5211,2.454,2.454,2.454,2.454,2.454,2.454,2.454,2.454,2.454,2.454,2.454,2.454,2.454,2.454,2.454,2.454,2.454,2.454,2.4623,2.4954,2.5368,2.5509,2.4766,2.4838,2.459,2.3354,2.3001,2.2832,2.1982,2.1833,2.1953,2.2329,2.2398,2.2424,2.2526,2.2443,2.2342,2.2342,2.1937,2.1725,2.1725,2.0917,2.0514,2.0712,2.0719,2.0814,2.0917,2.0712,2.0712,2.0712,2.0506,2.0506,2.0712,2.0712,2.0712,2.0925,2.0197,1.9879,1.9879,1.9879,2.0094,1.9106,1.939,1.9654,1.9398,0.0,0.0,1.9759,2.01,2.0531,2.1342,2.2047,2.2688,2.3289,2.3864,2.4426,2.5014,2.5589,2.636,2.751,2.7667,2.7981,2.8804,2.8389,2.8104,2.8276,2.7702,2.7356,2.7289,2.7267,2.7231,2.7231,2.7231,2.7231,2.7231,2.7231,2.7231,2.7231,2.7231,2.7231,2.7231,2.7231,2.7231,2.7231,2.7231,2.7231,2.7138,2.6704,2.6373,2.6135,2.5979,2.5464,2.4786,2.4786,2.4786,2.4786,2.454,2.454,2.454,2.454,2.454,2.454,2.454,2.454,2.454,2.454,2.454,2.454,2.454,2.4674,2.4933,2.5378,2.5834,2.6073,2.5686,2.5668,2.5418,2.4649,2.4058,2.3367,2.246,2.2227,2.2295,2.2509,2.2644,2.2644,2.2644,2.2644,2.2644,2.2644,2.2644,2.2644,2.2644,2.2038,2.1632,2.1632,2.1632,2.1632,2.1632,2.1326,2.1224,2.1224,2.1019,2.1027,2.1224,2.1224,2.1224,2.1224,2.0704,2.0395,2.0395,2.0395,2.0609,1.9705,1.969,1.969,1.9639,1.9416,0.0,1.9936,1.9809,1.9917,2.1002,2.1276,2.1511,2.2113,2.2662,2.3223,2.3825,2.4347,2.5179,2.6399,2.6582,2.6974,2.7991,2.7708,2.7601,2.8079,2.7539,2.7263,2.7304,2.7255,2.7231,2.7231,2.7231,2.7231,2.7231,2.7231,2.7231,2.7231,2.7231,2.7231,2.7231,2.7231,2.7231,2.7231,2.7288,2.7311,2.7229,2.6922,2.6696,2.6613,2.63,2.5814,2.5285,2.52,2.52,2.5115,2.4711,2.454,2.454,2.454,2.454,2.454,2.454,2.454,2.454,2.454,2.454,2.4464,2.4516,2.4985,2.5471,2.5854,2.6299,2.6641,2.6641,2.6479,2.6197,2.61,2.4913,2.3628,2.2846,2.2644,2.2644,2.2644,2.2644,2.2644,2.2644,2.2644,2.2644,2.2644,2.2644,2.2644,2.2644,2.2644,2.2644,2.2644,2.2644,2.2644,2.2644,2.2131,2.1827,2.1827,2.1326,2.1326,2.1827,2.1827,2.1827,2.1827,2.1224,2.1027,2.1027,2.1027,2.1019,1.9839,1.969,1.9617,1.9288,1.8946,0.0,1.8961,1.8705,1.8623,1.9277,1.9799,2.0322,2.0948,2.1459,2.2034,2.2609,2.2847,2.3602,2.5694,2.5994,2.6038,2.6291,2.6235,2.6164,2.6324,2.6222,2.6264,2.663,2.7013,2.7231,2.7231,2.7231,2.7231,2.7231,2.7231,2.7231,2.7231,2.7231,2.7231,2.7231,2.7231,2.7231,2.7242,2.7656,2.7828,2.7862,2.8156,2.8071,2.7749,2.764,2.6841,2.5728,2.538,2.52,2.5115,2.4711,2.454,2.454,2.454,2.454,2.454,2.454,2.454,2.454,2.454,2.454,2.4623,2.4995,2.5678,2.633,2.6413,2.6775,2.7127,2.7127,2.7094,2.687,2.6197,2.5294,2.4402,2.3628,2.3046,2.2644,2.2644,2.2644,2.2644,2.2644,2.2644,2.2644,2.2644,2.2644,2.2644,2.2644,2.2644,2.2644,2.2644,2.2644,2.2644,2.2644,2.2443,2.2443,2.2443,2.2342,2.2342,2.2443,2.2443,2.2443,2.2443,2.1827,2.1522,2.1522,2.1522,2.1827,2.0378,1.9944,0.0,1.9472,0.0,0.0,0.0,1.8694,1.8481,1.8839,1.9146,1.9433,1.9734,2.027,2.0753,2.1041,2.1564,2.2348,2.3511,2.4175,2.4782,2.5356,2.4975,2.4762,2.5052,2.5001,2.5396,2.6449,2.6703,2.6955,2.7219,2.7231,2.7231,2.7231,2.7231,2.7231,2.7231,2.7231,2.7231,2.7231,2.7483,2.761,2.7621,2.8115,2.8344,2.8356,2.835,2.8279,2.8018,2.8018,2.764,2.6915,2.6173,2.5904,2.5776,2.5115,2.4711,2.454,2.454,2.454,2.454,2.454,2.454,2.454,2.454,2.4705,2.5026,2.5709,2.6227,2.662,2.6848,2.7086,2.7262,2.7262,2.7262,2.7156,2.6774,2.6081,2.5392,2.5011,2.4313,2.3529,2.2745,2.2644,2.2644,2.2644,2.2644,2.2644,2.2644,2.2644,2.2644,2.2644,2.2644,2.2644,2.2644,2.2644,2.2644,2.2644,2.2644,2.2644,2.2644,2.2946,2.3138,2.3138,2.2745,2.2644,2.2644,2.2342,2.2131,2.2131,2.2131,2.2342,0.0,0.0,0.0,0.0,0.0,1.8989,0.0,0.0,0.0,1.8569,1.8571,1.861,1.8728,1.9146,1.9433,1.9316,2.027,2.0976,2.0871,2.1822,2.3086,2.4418,2.3806,2.3484,2.3922,2.4202,2.4888,2.606,2.6505,2.6794,2.7059,2.7174,2.7231,2.7231,2.7231,2.7231,2.7231,2.7231,2.7231,2.7242,2.7736,2.7977,2.8,2.8586,2.885,2.8861,2.8615,2.8397,2.8298,2.8221,2.8221,2.8231,2.7238,2.6834,2.6574,2.568,2.5093,2.4664,2.4571,2.454,2.454,2.454,2.4516,2.4674,2.4674,2.5057,2.5637,2.6361,2.663,2.6786,2.7169,2.7262,2.7262,2.7262,2.7262,2.7262,2.7262,2.6678,2.61,2.61,2.5489,2.4501,2.3038,2.2846,2.2745,2.2644,2.2644,2.2644,2.2644,2.2644,2.2644,2.2644,2.2644,2.2644,2.2644,2.2644,2.2644,2.2644,2.2644,2.2644,2.2644,2.3338,2.3728,2.3926,2.3238,2.2846,2.2846,2.2644,2.2644,2.2644,2.2644,2.2644,0.0,0.0,0.0,0.0,1.956,1.8567,1.8599,0.0,1.7345,1.7382,0.0,1.7565,1.8087,0.0,0.0,1.7578,1.8453,1.9028,1.8558,1.9144,2.0368,2.2463,2.2639,2.2648,2.2775,2.4115,2.4929,2.5038,2.6375,2.7015,2.6622,2.6978,2.7231,2.7231,2.7231,2.7231,2.7231,2.7231,2.7231,2.7242,2.7736,2.7977,2.8012,2.8976,2.9412,2.9435,2.977,2.9682,2.9317,2.887,2.8962,2.9228,2.832,2.7678,2.7085,2.6194,2.5588,2.5099,2.4598,2.454,2.454,2.454,2.4819,2.5161,2.5161,2.5751,2.6434,2.6537,2.6868,2.7189,2.7251,2.7262,2.7262,2.7262,2.7262,2.7262,2.7262,2.6678,2.61,2.61,2.5489,2.4599,2.3728,2.3538,2.3338,2.2745,2.2644,2.2644,2.2644,2.2644,2.2644,2.2644,2.2644,2.2644,2.2644,2.2644,2.2644,2.2644,2.2644,2.2644,2.2644,2.3338,2.4016,2.4796,2.4016,2.3538,2.3529,2.2946,2.2644,2.2644,2.2644,2.2644,0.0,0.0,0.0,0.0,2.138,2.0688,1.9656,1.9169,1.8696,1.8057,0.0,0.0,0.0,0.0,0.0,0.0,1.7904,0.0,0.0,0.0,1.949,2.0772,2.0995,2.133,2.2064,2.3661,2.459,2.4526,2.5948,2.6741,2.6518,2.6955,2.7231,2.7231,2.7231,2.7231,2.7231,2.7231,2.738,2.7667,2.8161,2.8563,2.8884,2.9596,2.9917,2.9929,3.0124,2.9943,2.9485,2.9301,2.9301,2.9441,2.8754,2.8151,2.7676,2.6676,2.6062,2.5585,2.5388,2.5316,2.5316,2.5316,2.5451,2.5658,2.5927,2.6268,2.663,2.69,2.7107,2.7262,2.7262,2.7262,2.7262,2.7262,2.7262,2.7262,2.7262,2.7061,2.6774,2.6774,2.6476,2.6081,2.5206,2.4322,2.3628,2.3238,2.2846,2.2644,2.2644,2.2644,2.2644,2.2644,2.2644,2.2644,2.2644,2.2946,2.3038,2.2653,2.2644,2.2745,2.3238,2.3538,2.3926,2.4421,2.4125,2.3637,2.3038,2.2745,2.2644,2.2644,2.2644,2.2644,2.6557,2.5315,2.4044,2.3595,2.2986,2.2191,2.0907,2.0171,1.9504,1.8733,1.8071,0.0,0.0,0.0,0.0,0.0,0.0,1.7735,0.0,1.7996,0.0,0.0,0.0,0.0,2.1655,2.3188,2.4094,2.4211,2.5512,2.6304,2.6299,2.6737,2.7082,2.7219,2.7231,2.7231,2.7231,2.7231,2.7483,2.7989,2.8471,2.8976,2.9515,2.9998,3.0216,3.0216,3.0216,2.9943,2.9485,2.9485,2.9485,2.9485,2.891,2.8517,2.8156,2.7147,2.6525,2.6051,2.5916,2.5875,2.5875,2.5875,2.5968,2.6134,2.6465,2.6662,2.6827,2.7169,2.7262,2.7262,2.7262,2.7262,2.7262,2.7262,2.7262,2.7262,2.7262,2.7262,2.7262,2.7262,2.7262,2.7061,2.6197,2.5109,2.4223,2.3728,2.3238,2.2846,2.2653,2.2644,2.2644,2.2644,2.2644,2.2644,2.2644,2.3238,2.3529,2.3229,2.3229,2.3529,2.4322,2.4322,2.452,2.5011,2.5011,2.4618,2.3926,2.3038,2.2644,2.2644,2.2644,2.2644,2.8502,2.7051,2.554,2.551,2.3747,2.2017,2.1931,2.0316,1.8836,1.8822,0.0,0.0,0.0,0.0,0.0,0.0,0.0,0.0,0.0,0.0,0.0,0.0,0.0,0.0,0.0,2.2767,2.3654,2.4184,2.5199,2.5817,2.5758,2.6209,2.6714,2.7219,2.7231,2.7231,2.7231,2.7231,2.7483,2.7989,2.8471,2.8976,2.9515,2.9998,3.0216,3.0216,3.0216,2.9943,2.9485,2.9485,2.9485,2.9485,2.891,2.8713,2.8555,2.7618,2.6999,2.6486,2.6041,2.5875,2.5875,2.5875,2.6185,2.6548,2.6568,2.6879,2.7241,2.7251,2.7262,2.7262,2.7262,2.7262,2.7262,2.7262,2.7262,2.7262,2.7262,2.7262,2.7262,2.7262,2.7262,2.7061,2.6197,2.6091,2.5499,2.3926,2.3728,2.3438,2.2644,2.2644,2.2644,2.2644,2.2644,2.2644,2.2644,2.3238,2.4016,2.4796,2.4796,2.5197,2.5994,2.58,2.6091,2.7167,2.7167,2.7167,2.7156,2.4125,2.2644,2.2644,2.2644,2.2644,3.0657,2.9714,2.8637,2.7799,2.6326,2.499,2.4471,2.2846,2.1309,2.0941,0.0,0.0,0.0,0.0,0.0,0.0,0.0,0.0,0.0,0.0,0.0,0.0,0.0,0.0,0.0,0.0,0.0,0.0,2.4477,2.5419,2.5658,2.6198,2.6703,2.7219,2.7231,2.7231,2.7231,2.7231,2.7644,2.8459,2.862,2.9148,2.9975,3.0147,3.0216,3.0216,3.0216,3.0125,2.9943,2.9669,2.9669,2.9852,2.9002,2.891,2.9084,2.8086,2.7483,2.7003,2.6848,2.6796,2.6796,2.6796,2.69,2.7024,2.7024,2.7138,2.7262,2.7262,2.7262,2.7262,2.7262,2.7262,2.7262,2.7262,2.7262,2.7262,2.7262,2.7262,2.7262,2.7262,2.7262,2.7262,2.6965,2.687,2.6187,2.4026,2.3728,2.3438,2.2644,2.2644,2.2644,2.2644,2.2644,2.2644,2.2644,2.3238,2.4223,2.5596,2.5187,2.4903,2.4815,2.5401,2.5197,2.4214,2.6274,2.7262,2.7262,2.6274,2.5197,2.4106,2.3038,2.2644,3.2347,3.1734,3.0971,2.9909,2.8684,2.746,2.6539,2.4742,2.3055,2.2484,2.0837,0.0,0.0,0.0,0.0,0.0,0.0,0.0,0.0,1.7199,0.0,0.0,0.0,0.0,0.0,0.0,0.0,0.0,0.0,0.0,0.0,2.5819,2.6427,2.6944,2.7128,2.7231,2.7231,2.7231,2.7725,2.87,2.87,2.9228,3.0216,3.0216,3.0216,3.0216,3.0216,3.0216,3.0216,2.9852,2.9943,3.0125,2.929,2.9198,2.9393,2.8362,2.7715,2.7262,2.7262,2.7262,2.7262,2.7262,2.7262,2.7262,2.7262,2.7262,2.7262,2.7262,2.7262,2.7262,2.7262,2.7262,2.7262,2.7262,2.7262,2.721,2.7055,2.7013,2.6962,2.6796,2.6765,2.6671,2.639,2.6711,2.6486,2.4786,2.4313,2.3818,2.3138,2.2745,2.2644,2.2644,2.2846,2.3238,2.3827,2.4322,2.5109,2.6486,2.6081,2.5586,2.5206,2.5887,2.5596,2.4313,2.6274,2.7262,2.7262,2.7262,2.6764,2.5684,2.4115,2.3229]}]]